     2.11           OBSERVATION DATA    G (GPS)             RINEX VERSION / TYPE
teqc 2010Oct21 OPUS Account 20111026 14:52:41UTC            PGM / RUN BY / DATE
Z 1521                                                      MARKER NAME
1156                                                        MARKER NUMBER
CSMIDDLETON NGS                                             OBSERVER / AGENCY
0220390632 TRIMBLE R7 2.28                                  REC # / TYPE / VERS
60183425 TRM41249.00 NONE                                   ANT # / TYPE
  -739235.5524 -5488110.1763  3154246.6214                  APPROX POSITION XYZ
        2.0010        0.0000        0.0000                  ANTENNA: DELTA H/E/N
     1     1                                                WAVELENGTH FACT L1/2
     5    L1    L2    C1    P1    P2                        # / TYPES OF OBSERV
    15                                                      LEAP SECONDS
  2011     7    30     0     0   30.0000000     GPS         TIME OF FIRST OBS
                                                            END OF HEADER
 11  7 30  0  0 30.0000000  0  8G09G10G17G28G04G27G20G02
  -7361601.92257  -5727599.86755  22179744.6644                   22179744.2504
  -5681619.43056  -4419778.69154  23306024.6024                   23306023.9734
  -5709735.97358  -4439184.00856  21547855.9064                   21547853.8484
   -232140.62157   -173727.58255  22031378.9774                   22031377.1334
 -17957854.72758 -13983061.52057  19943775.2974                   19943773.5704
  -8982994.44157  -6992087.96155  22461809.6804                   22461808.9804
   3120997.96956   2435137.87552  24413615.3204                   24413611.8204
 -10749348.54758  -8367362.79756  22152766.2504                   22152763.1954
 11  7 30  0  1  0.0000000  0  8G09G10G17G28G04G27G20G02
  -7357768.00047  -5724612.40645  22180474.3834                   22180472.6804
  -5752466.80147  -4474984.35544  23292542.5944                   23292541.9184
  -5655909.75047  -4397241.50446  21558099.2504                   21558096.9184
   -154467.43447   -113203.05545  22046159.4144                   22046157.2934
 -17941064.42648 -13969978.16047  19946970.5394                   19946968.6804
  -8964352.54347  -6977561.83245  22465357.4924                   22465356.1884
   3185683.44146   2485542.16842  24425923.1254                   24425920.6994
 -10802379.46948  -8408685.53146  22142674.9534                   22142671.7304
 11  7 30  0  1 30.0000000  0  8G09G10G17G28G04G27G20G02
  -7353288.48447  -5721121.89145  22181326.9144                   22181325.2624
  -5823210.14147  -4530108.93744  23279081.0394                   23279080.2504
  -5601990.62948  -4355226.62946  21568359.5474                   21568357.2894
    -76416.77747    -52384.40245  22061011.7194                   22061009.4064
 -17923704.15648 -13956450.67247  19950274.0634                   19950272.0354
  -8945216.91047  -6962650.96145  22468998.6174                   22468997.4964
   3250853.95746   2536324.34042  24438324.5634                   24438323.3444
 -10855092.74648  -8449760.78546  22132643.9614                   22132640.4804
 11  7 30  0  2  0.0000000  0  8G09G10G17G28G04G27G20G02
  -7348172.14547  -5717135.14845  22182300.4304                   22182299.1564
  -5893855.03546  -4585156.83244  23265637.1564                   23265636.8204
  -5547987.68748  -4313146.43446  21578636.3444                   21578634.1644
      2002.53147      8721.51245  22075934.3834                   22075932.6174
 -17905783.63348 -13942486.62547  19953684.2814                   19953682.3524
  -8925596.83247  -6947362.60545  22472732.1484                   22472730.8874
   3316499.56346   2587476.73843  24450819.0084                   24450817.0984
 -10907496.22348  -8490594.61746  22122671.5554                   22122668.3524
 11  7 30  0  2 30.0000000  0  8G09G10G17G28G04G27G20G02
  -7342420.43747  -5712653.31645  22183395.2274                   22183393.4454
  -5964399.78546  -4640126.71944  23252213.1804                   23252212.3874
  -5493902.69148  -4271002.30146  21588928.5004                   21588925.7194
     80788.35547     70113.03145  22090927.3754                   22090924.8914
 -17887305.35948 -13928087.96147  19957200.4224                   19957198.4414
  -8905494.54347  -6931698.51645  22476557.9144                   22476556.3324
   3382617.48046   2638997.17243  24463400.1724                   24463399.3794
 -10959590.43748  -8531187.46946  22112758.2194                   22112755.1294
 11  7 30  0  3  0.0000000  0  8G09G10G17G28G04G27G20G02
  -7336027.96147  -5707672.18445  22184611.5084                   22184609.2074
  -6034835.41447  -4695011.56244  23238809.6954                   23238809.7384
  -5439730.54348  -4228790.25046  21599236.9454                   21599234.1334
    159946.10247    131794.35245  22105990.9614                   22105989.2464
 -17868264.18448 -13913250.67647  19960823.8984                   19960822.2664
  -8884904.84047  -6915654.60945  22480475.6724                   22480474.3094
   3449212.05946   2690889.05143  24476073.5554                   24476071.8874
 -11011368.44548  -8571533.92246  22102905.5084                   22102902.0044
 11  7 30  0  3 30.0000000  0  8G09G10G17G28G04G27G20G02
  -7328994.25847  -5702191.37945  22185949.9454                   22185948.1524
  -6105158.79346  -4749808.91844  23225427.1174                   23225426.9184
  -5385471.09848  -4186510.20346  21609562.3284                   21609559.3484
    239475.75447    193765.47345  22121124.5784                   22121123.1684
 -17848660.87548 -13897975.37147  19964554.1334                   19964552.2384
  -8863828.02747  -6899231.14845  22484486.4144                   22484485.6174
   3516282.71146   2743151.83643  24488835.4064                   24488834.2274
 -11062829.02748  -8611633.03546  22093112.8914                   22093109.6024
 11  7 30  0  4  0.0000000  0  8G09G10G17G28G04G27G20G02
  -7321316.53547  -5696208.75445  22187410.6254                   22187409.6294
  -6175363.71146  -4804513.96544  23212067.5554                   23212067.0864
  -5331121.68448  -4144160.03546  21619904.7344                   21619902.1024
    319380.16047    256028.60945  22136330.1804                   22136328.8554
 -17828493.21948 -13882260.30947  19968391.8204                   19968389.8634
  -8842261.39847  -6882426.00845  22488590.5864                   22488589.7344
   3583831.13746   2795786.93443  24501690.0314                   24501687.9414
 -11113968.06647  -8651481.59846  22083381.1804                   22083378.0594
 11  7 30  0  4 30.0000000  0  8G09G10G17G28G04G27G20G02
  -7313000.24247  -5689728.53145  22188993.2664                   22188991.3634
  -6245452.33247  -4859128.40644  23198730.5634                   23198729.6954
  -5276688.05148  -4101744.24646  21630263.0704                   21630260.3324
    399652.99247    318578.82845  22151605.5784                   22151603.8284
 -17807767.83648 -13866110.66447  19972336.0554                   19972334.0864
  -8820211.32047  -6865244.15645  22492786.8444                   22492784.9734
   3651850.79346   2848789.26243  24514634.1564                   24514632.1454
 -11164790.27348  -8691083.27746  22073709.8594                   22073706.5554
 11  7 30  0  5  0.0000000  0  8G09G10G17G28G04G27G20G02
  -7304046.14547  -5682751.33645  22190697.2504                   22190696.0904
  -6315422.27747  -4913650.37545  23185415.0474                   23185415.5204
  -5222171.44147  -4059263.79346  21640637.0554                   21640634.8794
    480293.58247    381415.61745  22166950.9534                   22166949.6524
 -17786486.06648 -13849527.46547  19976385.2974                   19976383.8754
  -8797679.21547  -6847686.69545  22497074.1954                   22497073.0824
   3720339.75446   2902157.26643  24527665.7034                   24527664.9734
 -11215295.27748  -8730437.78946  22064099.3594                   22064095.8324
 11  7 30  0  5 30.0000000  0  9G09G10G12G17G28G04G27G20G02
  -7294448.32047  -5675272.52345  22192523.9144                   22192522.5784
  -6385264.35246  -4968072.69944  23172124.5554                   23172124.7114
   -110978.48456    -78308.54754  24746837.6094                   24746837.7154
  -5167565.80547  -4016713.96146  21651028.0554                   21651025.6254
    561307.50047    444543.29345  22182367.0944                   22182365.4964
 -17764643.07848 -13832506.94947  19980542.2664                   19980540.2934
  -8774659.69947  -6829749.43445  22501454.9924                   22501454.0124
   3789303.00846   2955894.80943  24540789.3834                   24540788.5044
 -11265475.86348  -8769539.50846  22054550.5004                   22054546.7074
 11  7 30  0  6  0.0000000  0  9G09G10G12G17G28G04G27G20G02
  -7284214.73847  -5667298.31245  22194471.6724                   22194469.9694
  -6454982.88347  -5022398.73844  23158857.9064                   23158857.0234
   -186300.08246   -137000.64844  24732505.5554                   24732504.1804
  -5112879.11347  -3974100.96546  21661434.8834                   21661432.1564
    642686.75047    507955.63745  22197853.6334                   22197851.8014
 -17742247.53548 -13815055.88347  19984804.0084                   19984802.1994
  -8751160.87147  -6811438.66845  22505926.9224                   22505925.4574
   3858731.51646   3009994.91443  24554000.7114                   24554000.0234
 -11315338.78548  -8808393.69546  22045061.4774                   22045058.1334
 11  7 30  0  6 30.0000000  0  9G09G10G12G17G28G04G27G20G02
  -7273342.96947  -5658826.81245  22196540.2274                   22196539.1724
  -6524572.41046  -5076624.28544  23145615.0234                   23145614.9574
   -261645.60547   -195711.39544  24718167.0164                   24718166.5234
  -5058109.24247  -3931423.15246  21671857.2974                   21671854.1134
    724433.19147    571654.12145  22213409.4694                   22213407.5354
 -17719297.81248 -13797172.98447  19989171.1564                   19989169.3834
  -8727180.96947  -6792753.06245  22510489.6564                   22510487.9534
   3928626.41846   3064458.40643  24567301.3134                   24567301.0434
 -11364880.64848  -8846997.71146  22035634.0474                   22035630.7074
 11  7 30  0  7  0.0000000  0  9G09G10G12G17G28G04G27G20G02
  -7261831.62547  -5649856.96545  22198730.4844                   22198729.7974
  -6594027.82846  -5130745.32844  23132398.3524                   23132398.3014
   -337011.94947   -254438.36343  24703826.0394                   24703824.2934
  -5003254.51647  -3888679.23046  21682295.6174                   21682293.2504
    806548.39147    635639.94545  22229035.3204                   22229032.9804
 -17695793.09048 -13778857.60947  19993643.8134                   19993642.0434
  -8702718.78147  -6773691.64845  22515144.7274                   22515143.8204
   3998988.25045   3119285.80543  24580691.0634                   24580690.8404
 -11414098.74248  -8885349.44146  22026268.2664                   22026264.6374
 11  7 30  0  7 30.0000000  0  9G09G10G12G17G28G04G27G20G02
  -7249682.60247  -5640390.19945  22201042.6884                   22201041.4344
  -6663347.66046  -5184760.71944  23119207.0554                   23119207.1884
   -412398.95747   -313181.45744  24689480.2274                   24689478.4734
  -4948316.50848  -3845870.42246  21692749.9304                   21692747.8984
    889030.37547    699911.57045  22244730.9064                   22244728.8554
 -17671736.02048 -13760111.84447  19998221.5234                   19998220.1254
  -8677776.42247  -6754256.06245  22519891.0164                   22519889.4414
   4069814.27746   3174474.83643  24594169.0004                   24594168.1844
 -11462993.41048  -8923449.14146  22016964.1254                   22016960.5824
 11  7 30  0  8  0.0000000  0  9G09G10G12G17G28G04G27G20G02
  -7236895.76247  -5630426.44145  22203476.0234                   22203474.4264
  -6732528.23847  -5238667.60244  23106042.0944                   23106041.8324
   -487805.03146   -371939.39143  24675130.9844                   24675128.9804
  -4893295.01648  -3802996.55546  21703220.7734                   21703218.2774
    971878.56647    764468.55545  22260496.4144                   22260493.8554
 -17647127.23448 -13740936.16847  20002904.3284                   20002902.6254
  -8652354.71547  -6734446.96545  22524728.6094                   22524727.4964
   4141103.03546   3230024.47343  24607734.6094                   24607733.6994
 -11511563.72348  -8961296.10546  22007721.5234                   22007717.5164
 11  7 30  0  8 30.0000000  0  9G09G10G12G17G28G04G27G20G02
  -7223477.35547  -5619970.56245  22206029.1254                   22206028.2894
  -6801572.51647  -5292468.25844  23092903.7894                   23092902.9414
   -563234.53946   -430715.58243  24660776.5164                   24660775.2774
  -4838197.08247  -3760063.11346  21713705.4144                   21713703.3054
   1055086.62947    829305.96545  22276331.3524                   22276327.3594
 -17621974.21148 -13721336.41847  20007690.8594                   20007689.1524
  -8626460.33447  -6714269.54345  22529656.5164                   22529654.7034
   4212847.85246   3285929.50843  24621387.5084                   24621386.2704
 -11559814.64148  -8998894.19146  21998539.2424                   21998535.6024
 11  7 30  0  9  0.0000000  0  9G09G10G12G17G28G04G27G20G02
  -7209418.34847  -5609015.50045  22208704.7504                   22208703.3134
  -6870467.63747  -5346152.70744  23079792.6954                   23079793.2934
   -638675.90646   -489501.01243  24646420.0634                   24646419.5204
  -4783013.03547  -3717062.58246  21724206.6644                   21724204.7034
   1138664.07847    894431.22345  22292235.3524                   22292232.9694
 -17596268.08248 -13701305.65247  20012582.7734                   20012581.2704
  -8600084.35947  -6693716.86745  22534675.4774                   22534673.8674
   4285056.69546   3342196.07443  24635129.4774                   24635127.1684
 -11607735.64148  -9036235.20346  21989420.3284                   21989416.3484
 11  7 30  0  9 30.0000000  0  9G09G10G12G17G28G04G27G20G02
  -7194718.43748  -5597561.04745  22211502.5474                   22211501.1054
  -6939209.79347  -5399717.95744  23066712.4774                   23066711.8594
   -714127.06246   -548294.09043  24632062.2194                   24632061.8834
  -4727742.02047  -3673994.27046  21734723.8594                   21734721.7464
   1222610.62947    959844.07845  22308209.7114                   22308207.5204
 -17570009.43448 -13680844.36747  20017579.7424                   20017577.8404
  -8573227.17247  -6672789.21145  22539786.3204                   22539785.2934
   4357728.73446   3398823.60543  24648958.4304                   24648955.9614
 -11655325.09048  -9073317.86746  21980364.1024                   21980360.7464
 11  7 30  0 10  0.0000000  0  9G09G10G12G17G28G04G27G20G02
  -7179376.94948  -5585606.65245  22214421.2974                   22214420.0634
  -7007794.54347  -5453160.56244  23053661.0314                   23053660.2194
   -789585.37946   -607092.71943  24617703.0634                   24617702.6644
  -4672383.42647  -3630857.70346  21745258.7114                   21745256.3364
   1306927.08247   1025545.17645  22324254.2894                   22324252.5164
 -17543198.32048 -13659952.59847  20022681.9304                   20022680.0434
  -8545888.23847  -6651486.17245  22544988.7504                   22544987.3714
   4430863.64146   3455811.87143  24662875.1024                   24662872.3984
 -11702580.96948  -9110140.60246  21971371.8984                   21971367.7544
 11  7 30  0 10 30.0000000  0  9G09G10G12G17G28G04G27G20G02
  -7163398.33248  -5573155.79345  22217461.9454                   22217460.8364
  -7076222.57447  -5506481.03944  23040639.3754                   23040638.4924
   -865053.07446   -665898.64543  24603342.0944                   24603340.7974
  -4616941.41047  -3587656.16046  21755808.5394                   21755806.3834
   1391608.72347   1091530.82845  22340368.9694                   22340367.4454
 -17515839.62548 -13638634.12947  20027887.8754                   20027885.9414
  -8518072.14848  -6629811.32445  22550281.9454                   22550280.7304
   4504456.28946   3513156.81643  24676879.0704                   24676876.9574
 -11749506.55548  -9146705.96946  21962442.1804                   21962437.8874
 11  7 30  0 11  0.0000000  0  9G09G10G12G17G28G04G27G20G02
  -7146777.62948  -5560204.60945  22220624.9614                   22220623.5704
  -7144485.78947  -5559673.08244  23027649.1724                   23027648.5554
   -940523.25446   -724706.58243  24588980.4224                   24588979.2384
  -4561410.73047  -3544385.51246  21766375.9844                   21766373.4884
   1476660.53547   1157804.91045  22356553.4774                   22356552.6334
 -17487929.72748 -13616886.15647  20033198.9454                   20033197.0434
  -8489774.82047  -6607761.47745  22555666.5234                   22555665.9264
   4578510.43446   3570861.31343  24690971.0164                   24690970.1564
 -11796095.53948  -9183009.05546  21953576.5864                   21953573.1024
 11  7 30  0 11 30.0000000  0  9G09G10G12G17G28G04G27G20G02
  -8704934.30548  -6774352.69545  21924117.5314                   21924116.7734
  -8788002.20347  -6840335.16044  22714898.5704                   22714898.1294
  -2591416.33246  -2011116.73443  24274826.5474                   24274825.2704
  -6081209.21948  -4728644.11346  21477168.2114                   21477165.4384
    -13334.63347     -3230.33645  22073016.6954                   22073015.2934
 -19034888.06648 -14822308.24247  19738822.7344                   19738820.8714
 -10036415.57847  -7812936.12145  22261351.1254                   22261350.1174
   3077607.66846   2401326.63342  24405358.2664                   24405356.8594
 -13417768.12948 -10446650.00846  21644982.5394                   21644979.0784
 11  7 30  0 12  0.0000000  0  9G09G10G12G17G28G04G27G20G02
  -8687028.89847  -6760400.44545  21927524.7814                   21927523.8134
  -8855922.90647  -6893260.30544  22701973.6484                   22701972.9694
  -2666884.50046  -2069923.00043  24260465.0314                   24260463.5004
  -6025499.43748  -4685233.94546  21487769.0394                   21487766.6804
     72457.69947     63620.79745  22089342.2194                   22089340.6134
 -19005876.28948 -14799701.66447  19744343.2974                   19744341.4494
 -10007155.88748  -7790136.39145  22266918.6094                   22266918.3164
   3152582.94146   2459748.83643  24419626.5314                   24419624.6454
 -13463678.89848 -10482424.59846  21636245.7274                   21636242.4264
 11  7 30  0 12 30.0000000  0  9G09G10G12G17G28G04G27G20G02
  -8668488.58248  -6745953.46545  21931052.6724                   21931052.1414
  -8923674.30147  -6946053.54744  22689080.5004                   22689079.8594
  -2742355.37147  -2128731.40643  24246103.7664                   24246101.6764
  -5969706.82448  -4641759.21146  21498386.3134                   21498384.0394
    158613.10947    130754.82845  22105737.7584                   22105734.8364
 -18976322.09048 -14776672.41847  19749967.3364                   19749965.5704
  -9977422.97747  -7766967.90645  22272576.8204                   22272575.4734
   3228010.19146   2518523.29342  24433978.1094                   24433977.9224
 -13509255.78948 -10517939.02046  21627572.5554                   21627569.4844
 11  7 30  0 13  0.0000000  0  8G09G10G12G17G28G04G27G02
  -8649309.34847  -6731008.60945  21934702.7114                   21934701.4414
  -8991248.57447  -6998708.77044  22676221.8134                   22676221.0864
  -2817822.74646  -2187537.06243  24231742.6724                   24231740.2894
  -5913826.93747  -4598216.46546  21509019.5084                   21509017.7344
    245135.33247    198174.71545  22122202.7034                   22122199.7774
 -18946222.19548 -14753217.96147  19755695.1884                   19755693.4924
  -9947213.22347  -7743427.86345  22278325.0004                   22278324.2034
 -13554493.30948 -10553189.00046  21618964.1954                   21618960.8324
 11  7 30  0 13 30.0000000  0  8G09G10G12G17G28G04G27G02
  -8629495.21148  -6715569.03945  21938473.4144                   21938472.2584
  -9058645.90647  -7051226.10244  22663396.2034                   22663395.9534
  -2893288.55146  -2246341.50044  24217382.1644                   24217380.4344
  -5857863.19948  -4554608.34446  21519668.8204                   21519667.3014
    332020.53947    265877.41045  22138736.7344                   22138733.2154
 -18915581.27348 -14729341.91447  19761525.8204                   19761524.2854
  -9916530.84447  -7719519.55145  22284163.9384                   22284163.0084
 -13599394.18048 -10588176.64846  21610419.7194                   21610416.3754
 11  7 30  0 14  0.0000000  0  8G09G10G12G17G28G04G27G02
  -8609041.82448  -6699631.33245  21942365.4774                   21942364.5004
  -9125858.12147  -7103599.20344  22650606.2194                   22650605.9024
  -2968746.43046  -2305139.79744  24203022.6484                   24203021.0704
  -5801811.05147  -4510931.37946  21530335.3914                   21530333.8404
    419272.94547    333866.27345  22155340.2194                   22155337.3914
 -18884395.73848 -14705041.50047  19767460.4304                   19767458.3484
  -9885372.05147  -7695239.98045  22290093.2894                   22290092.8914
 -13643952.94948 -10622897.73046  21601940.5634                   21601937.6564
 11  7 30  0 14 30.0000000  0  8G09G10G12G17G28G04G27G02
  -8587944.08247  -6683191.54345  21946380.0004                   21946378.3014
  -9192875.94547  -7155820.82844  22637853.0394                   22637852.7584
  -3044188.46947  -2363925.78944  24188666.8524                   24188664.3954
  -5745664.97347  -4467181.21146  21541019.7424                   21541017.6684
    506897.59847    402145.17245  22172014.2344                   22172012.5864
 -18852661.07448 -14680313.19947  19773499.1174                   19773497.3594
  -9853731.85248  -7670585.30945  22296114.0704                   22296113.5004
 -13688162.83248 -10657346.94946  21593527.7114                   21593524.7344
 11  7 30  0 15  0.0000000  0  8G09G10G12G17G28G04G27G02
  -8566202.42247  -6666250.00445  21950517.4534                   21950516.0704
  -9259695.68047  -7207888.09044  22625137.5704                   22625137.1134
  -3119612.82847  -2422698.00044  24174313.9454                   24174312.6484
  -5689424.42247  -4423357.42646  21551722.3914                   21551720.3714
    594894.33247    470713.99245  22188759.8754                   22188757.8754
 -18820378.11348 -14655157.63347  19779642.3984                   19779640.9454
  -9821611.09448  -7645556.18045  22302227.1174                   22302225.6644
 -13732022.66448 -10691523.42246  21585181.7664                   21585178.3014
 11  7 30  0 15 30.0000000  0  8G09G10G12G17G28G04G27G02
  -8543816.85248  -6648806.69945  21954777.1484                   21954776.0634
  -9326313.55147  -7259798.06644  22612460.6954                   22612460.6054
  -3195016.89847  -2481454.37944  24159965.3054                   24159964.0784
  -5633088.89548  -4379459.62946  21562442.5314                   21562440.1334
    683263.04347    539572.68845  22205576.1484                   22205573.7974
 -18787547.65648 -14629575.46147  19785889.7584                   19785888.0664
  -9789010.10548  -7620152.84045  22308430.7114                   22308429.6604
 -13775531.00048 -10725425.97746  21576902.0314                   21576898.7344
 11  7 30  0 16  0.0000000  0  8G09G10G12G17G28G04G27G02
  -8520795.85548  -6630868.27045  21959158.2894                   21959156.3524
  -9392734.09447  -7311554.27345  22599821.0314                   22599821.5204
  -3270406.71147  -2540199.63744  24145618.1804                   24145618.0004
  -5576666.43448  -4335494.10946  21573179.2584                   21573176.9264
    771995.16447    608714.54745  22222460.8364                   22222458.4884
 -18754178.77048 -14603573.73847  19792239.5944                   19792238.1174
  -9755937.64148  -7594382.10945  22314723.9844                   22314723.2774
 -13818694.68048 -10759059.98846  21568688.0864                   21568684.8244
 11  7 30  0 16 30.0000000  0  8G09G10G12G17G28G04G27G02
  -8497134.14847  -6612430.59045  21963660.9534                   21963659.3674
  -9458948.08647  -7363149.50044  22587221.1724                   22587221.2234
  -3345774.39547  -2598927.63744  24131276.3834                   24131275.2974
  -5520150.74248  -4291455.94146  21583933.8444                   21583931.7774
    861096.16047    678143.80945  22239415.9844                   22239413.8094
 -18720266.88748 -14577148.89847  19798692.9144                   19798690.9224
  -9722388.57448  -7568240.01245  22321108.5944                   22321107.2504
 -13861506.85248 -10792420.09446  21560541.2504                   21560538.0944
 11  7 30  0 17  0.0000000  0  8G09G10G12G17G28G04G27G02
  -8472839.52747  -6593499.72745  21968283.9224                   21968282.8054
  -9524959.28947  -7414586.73444  22574659.3594                   22574659.1994
  -3421125.07847  -2657642.35244  24116937.8754                   24116936.5864
  -5463548.67648  -4247350.46546  21594705.0314                   21594703.1254
    950558.51247    747854.68445  22256439.4454                   22256438.6954
 -18685820.08248 -14550307.23047  19805247.7664                   19805246.1684
  -9688370.75048  -7541732.64145  22327581.7974                   22327580.9844
 -13903973.64148 -10825511.07446  21552460.6334                   21552456.6684
 11  7 30  0 17 30.0000000  0  8G09G10G12G17G28G04G27G02
  -8447909.29347  -6574073.58245  21973027.7734                   21973025.7664
  -9590760.69147  -7465860.50045  22562138.5784                   22562137.4734
  -3496453.41847  -2716339.70344  24102603.1884                   24102601.6804
  -5406856.61748  -4203174.84846  21605493.1334                   21605491.0354
   1040385.13347    817849.36745  22273534.0944                   22273531.7974
 -18650836.32048 -14523047.16447  19811905.3984                   19811903.0594
  -9653881.79748  -7514858.16045  22334144.8594                   22334143.8014
 -13946090.79348 -10858329.61346  21544445.6484                   21544442.0314
 11  7 30  0 18  0.0000000  0  8G09G10G12G17G28G04G27G02
  -8422343.07447  -6554151.86745  21977893.2664                   21977891.8794
  -9656347.73447  -7516967.24244  22549656.7424                   22549656.5234
  -3571756.62146  -2775017.42644  24088273.0164                   24088271.6604
  -5350073.83647  -4158928.55146  21616298.5554                   21616296.6024
   1130576.49247    888128.29745  22290696.5634                   22290694.5044
 -18615315.83648 -14495368.87547  19818664.3524                   19818662.5944
  -9618921.66047  -7487616.53945  22340797.6024                   22340796.2304
 -13987856.47348 -10890874.28146  21536497.9774                   21536494.3634
 11  7 30  0 18 30.0000000  0  8G09G10G12G17G28G04G27G02
  -8396146.00447  -6533738.57845  21982877.8594                   21982876.6764
  -9721721.59047  -7567907.83245  22537216.4694                   22537215.9454
  -3647036.99646  -2833677.40243  24073947.7344                   24073946.7664
  -5293204.14147  -4114614.51246  21627120.1564                   21627118.8834
   1221127.52747    958687.49645  22307928.0004                   22307926.5234
 -18579264.31648 -14467276.78947  19825524.6564                   19825523.0354
  -9583495.68747  -7460011.90645  22347539.3754                   22347537.3444
 -14029274.23848 -10923147.82446  21528616.4844                   21528613.1564
 11  7 30  0 19  0.0000000  0  8G09G10G12G17G28G04G27G02
  -8369311.38347  -6512828.50445  21987984.3284                   21987983.4734
  -9786870.98447  -7618673.55945  22524818.7664                   22524818.6414
  -3722284.73046  -2892311.97343  24059627.8284                   24059627.0474
  -5236240.36748  -4070227.17646  21637960.2114                   21637958.5234
   1312045.24247   1029532.41445  22325229.3674                   22325227.7814
 -18542675.34048 -14438765.89847  19832487.6094                   19832485.7464
  -9547597.44147  -7432039.26245  22354370.1094                   22354368.5314
 -14070335.39148 -10955143.51246  21520803.0394                   21520798.7854
 11  7 30  0 19 30.0000000  0  8G09G10G12G17G28G04G27G02
  -8341846.06647  -6491426.97745  21993210.7974                   21993209.8594
  -9851798.63347  -7669266.49645  22512464.0394                   22512463.1454
  -3797503.82846  -2950924.21543  24045313.8284                   24045313.2704
  -5179188.04747  -4025770.84046  21648816.5554                   21648815.1564
   1403322.88347   1100657.82045  22342598.9774                   22342596.8524
 -18505556.32848 -14409842.00447  19839551.0394                   19839549.3714
  -9511233.82848  -7403704.01245  22361289.7734                   22361288.6334
 -14111044.80948 -10986865.12146  21513056.1174                   21513052.3674
 11  7 30  0 20  0.0000000  0  8G09G10G12G17G28G04G27G02
  -8313756.02747  -6469538.65245  21998556.3134                   21998555.2424
  -9916506.52747  -7719688.18044  22500150.3204                   22500149.7234
  -3872697.52346  -3009516.66043  24031004.7504                   24031004.0474
  -5122052.37147  -3981249.53946  21659689.4224                   21659688.0394
   1494954.92647   1172059.35945  22360035.7504                   22360033.3914
 -18467913.98848 -14380510.31247  19846714.0704                   19846712.0084
  -9474411.16848  -7375011.05545  22368296.8674                   22368295.9964
 -14151407.36748 -11018316.43746  21505375.3834                   21505371.1564
 11  7 30  0 20 30.0000000  0  8G09G10G12G17G28G04G27G02
  -8285031.25447  -6447155.73445  22004022.2814                   22004021.6844
  -9980980.26247  -7769927.41045  22487881.7034                   22487880.7974
  -3947853.73446  -3068079.87143  24016703.5164                   24016702.6254
  -5064822.36348  -3936654.73846  21670580.2194                   21670577.8134
   1586951.05147   1243744.57844  22377541.3524                   22377539.8244
 -18429738.95348 -14350763.53947  19853978.5234                   19853977.0984
  -9437119.91448  -7345952.97745  22375393.3524                   22375392.3754
 -14191411.74248 -11049488.66446  21497762.7114                   21497759.3054
 11  7 30  0 21  0.0000000  0  8G09G10G12G17G28G04G27G02
  -8255682.03948  -6424286.23845  22009607.8054                   22009606.3054
 -10045225.42247  -7819988.53945  22475655.5164                   22475655.3524
  -4022978.97347  -3126618.96144  24002408.9064                   24002406.9734
  -5007507.08648  -3891993.48846  21681486.6644                   21681484.9184
   1679301.52747   1315705.93844  22395115.9774                   22395113.9454
 -18391041.57448 -14320609.74647  19861342.2664                   19861340.8364
  -9399370.16047  -7316537.61345  22382576.9144                   22382576.2544
 -14231065.79348 -11080387.90246  21490216.5394                   21490213.4844
 11  7 30  0 21 30.0000000  0  8G09G10G12G17G28G04G27G02
  -8225700.03948  -6400923.67645  22015313.0864                   22015311.8914
 -10109229.49247  -7869861.78145  22463476.2504                   22463475.5824
  -4098062.16047  -3185125.33244  23988120.9694                   23988119.0354
  -4950097.08248  -3847258.43746  21692412.1484                   21692409.8794
   1772015.07047   1387950.18445  22412758.4614                   22412757.0314
 -18351814.22748 -14290042.99247  19868807.4534                   19868805.8484
  -9361153.73847  -7286758.62145  22389849.5554                   22389848.3054
 -14270359.56248 -11111006.39146  21482739.3054                   21482735.8714
 11  7 30  0 22  0.0000000  0  8G09G10G12G17G28G04G27G02
  -8195089.73047  -6377071.50445  22021137.9454                   22021136.8404
 -10172992.85247  -7919547.47345  22451342.6644                   22451342.2194
  -4173105.11747  -3243600.34844  23973840.9924                   23973838.8594
  -4892596.03148  -3802452.44146  21703353.8914                   21703351.6134
   1865087.31347   1460473.94545  22430469.3754                   22430468.6884
 -18312061.76648 -14259067.05547  19876371.9384                   19876369.9844
  -9322475.58648  -7256619.82845  22397209.9304                   22397208.9264
 -14309296.11348 -11141346.53546  21475329.9614                   21475326.2034
 11  7 30  0 22 30.0000000  0  8G09G10G12G17G28G04G27G02
  -8163857.70748  -6352734.89545  22027081.1484                   22027079.9454
 -10236517.22747  -7969046.93445  22439253.8674                   22439253.6994
  -4248111.03147  -3302046.49244  23959566.8594                   23959565.0824
  -4835009.18747  -3757579.59046  21714312.1484                   21714309.5904
   1958511.98847   1533272.34845  22448246.7194                   22448246.8094
 -18271791.16048 -14227687.36747  19884034.8204                   19884033.4924
  -9283341.99247  -7226126.15645  22404656.6954                   22404655.1914
 -14347879.86348 -11171411.77746  21467987.2664                   21467983.6644
 11  7 30  0 23  0.0000000  0  8G09G10G12G17G28G04G27G02
  -8132003.00047  -6327913.06245  22033142.8364                   22033141.2624
 -10299797.42647  -8018356.12545  22427212.5084                   22427211.6844
  -4323075.91847  -3360460.66844  23945301.7814                   23945299.9104
  -4777334.24248  -3712638.11346  21725287.2504                   21725284.9884
   2052290.15247   1606346.15645  22466092.7274                   22466092.0474
 -18231002.09448 -14195903.68747  19891797.0554                   19891795.3794
  -9243752.44147  -7195277.18445  22412190.6724                   22412189.6334
 -14386108.25848 -11201200.09446  21460712.5944                   21460708.9924
 11  7 30  0 23 30.0000000  0  8G09G10G12G17G28G04G27G02
  -8099532.59847  -6302611.47745  22039321.8674                   22039320.6334
 -10362836.09847  -8067477.09045  22415216.3284                   22415216.1214
  -4398003.39547  -3418845.64844  23931042.4774                   23931042.2894
  -4719577.05148  -3667632.55946  21736278.3524                   21736275.8204
   2146415.39847   1679690.43845  22484004.3054                   22484002.7544
 -18189701.73848 -14163721.60247  19899656.0784                   19899654.2424
  -9203713.96948  -7164078.39845  22419809.2034                   22419808.0984
 -14423986.28948 -11230715.42246  21453504.7274                   21453501.0864
 11  7 30  0 24  0.0000000  0  8G09G10G12G17G28G04G27G02
  -8066438.96547  -6276824.27045  22045619.5784                   22045618.5434
 -10425620.99647  -8116400.34445  22403268.8524                   22403268.3754
  -4472883.13346  -3477193.39843  23916793.5784                   23916792.5124
  -4661728.62948  -3622555.89146  21747286.6564                   21747284.4264
   2240895.62547   1753311.35945  22501983.8284                   22501982.2384
 -18147883.16048 -14131135.70347  19907613.9534                   19907612.3094
  -9163219.09048  -7132523.98845  22427514.9924                   22427514.1684
 -14461504.91047 -11259950.68746  21446365.5784                   21446361.8674
 11  7 30  0 24 30.0000000  0  8G09G10G12G17G28G04G27G02
  -8032730.21147  -6250557.71545  22052033.8364                   22052033.0634
 -10488155.71547  -8165128.66045  22391369.4924                   22391368.1644
  -4547720.11347  -3535507.85944  23902553.5234                   23902550.6294
  -4603795.73047  -3577413.38746  21758310.4924                   21758308.8594
   2335722.84847   1827202.64844  22520029.1884                   22520027.0084
 -18105554.74648 -14098152.53147  19915668.5314                   19915666.8874
  -9122275.99648  -7100620.32045  22435305.9304                   22435305.7274
 -14498670.25848 -11288910.66446  21439293.2814                   21439289.4884
 11  7 30  0 25  0.0000000  0  8G09G10G12G17G28G04G27G02
  -7998401.75848  -6223808.31245  22058566.7034                   22058565.3244
 -10550431.15647  -8213654.94145  22379518.6094                   22379517.4144
  -4622506.19147  -3593782.70744  23888321.7814                   23888320.1684
  -4545772.79747  -3532200.71546  21769351.7814                   21769351.0554
   2430902.18847   1901368.32045  22538140.5784                   22538139.7384
 -18062712.36748 -14064768.86747  19923821.3834                   19923819.3874
  -9080880.11348  -7068363.80545  22443183.8054                   22443182.5944
 -14535475.64148 -11317590.16846  21432289.1484                   21432285.2344
 11  7 30  0 25 30.0000000  0  8G09G10G12G17G28G04G27G02
  -7963462.21147  -6196582.70345  22065214.9534                   22065213.4344
 -10612451.38347  -8261982.34845  22367716.2274                   22367715.1644
  -4697246.83247  -3652022.12144  23874099.4224                   23874098.0554
  -4487666.84448  -3486923.34846  21780408.9384                   21780408.1604
   2526425.14147   1975801.72344  22556318.4304                   22556317.0004
 -18019365.01248 -14030991.71547  19932069.9924                   19932067.9184
  -9039040.35247  -7035761.41845  22451145.6724                   22451144.4104
 -14571928.19148 -11345994.72746  21425352.4924                   21425348.7384
 11  7 30  0 26  0.0000000  0  8G09G10G12G17G28G04G27G02
  -7927913.62548  -6168882.52745  22071979.5634                   22071978.0864
 -10674213.68047  -8310108.76245  22355962.8594                   22355962.6024
  -4771940.69147  -3710225.08245  23859885.4694                   23859884.5234
  -4429478.45748  -3441581.76246  21791482.1334                   21791480.8594
   2622290.31647   2050501.78944  22574561.1334                   22574559.6334
 -17975514.74248 -13996822.68747  19940414.7974                   19940412.6334
  -8996758.50048  -7002814.55145  22459191.8984                   22459190.0084
 -14608027.50848 -11374124.04346  21418482.8674                   21418479.3674
 11  7 30  0 26 30.0000000  0  8G09G10G12G17G28G04G27G02
  -7891744.96147  -6140699.18445  22078862.3984                   22078861.5004
 -10735702.31247  -8358021.94945  22344262.4064                   22344261.8244
  -4846573.32847  -3768380.35244  23845684.0314                   23845681.7504
  -4371194.91848  -3396166.04346  21802573.7034                   21802571.1374
   2718509.59047   2125477.78544  22592870.7034                   22592869.7114
 -17931151.05548 -13962253.59047  19948856.8914                   19948854.6844
  -8954023.63348  -6969514.69545  22467323.8754                   22467323.4454
 -14643760.87148 -11401968.19946  21411682.8834                   21411679.7734
 11  7 30  0 27  0.0000000  0  8G09G10G12G17G28G04G27G02
  -7854965.27347  -6112039.71145  22085861.1484                   22085859.9104
 -10796921.69947  -8405725.31245  22332612.7274                   22332611.9104
  -4921150.95346  -3826492.74244  23831490.7504                   23831490.1334
  -4312824.23448  -3350682.42646  21813680.9384                   21813678.7114
   2815073.52047   2200722.34844  22611247.0314                   22611245.2974
 -17886283.49248 -13927291.85547  19957394.9224                   19957393.0124
  -8910844.97748  -6935869.00845  22475540.5634                   22475539.9884
 -14679135.65648 -11429532.94146  21404951.5164                   21404948.0704
 11  7 30  0 27 30.0000000  0  8G09G10G12G17G28G04G27G02
  -7817583.36747  -6082910.98045  22092975.0084                   22092973.9224
 -10857876.35547  -8453222.41045  22321013.2584                   22321012.5084
  -4995678.58646  -3884566.15245  23817309.3364                   23817308.2814
  -4254373.57048  -3305136.48046  21824803.9144                   21824801.6414
   2911973.82447   2276229.00045  22629686.5084                   22629684.7814
 -17840921.32448 -13891944.71947  19966026.9614                   19966024.7624
  -8867231.48447  -6901884.52045  22483840.0314                   22483838.9144
 -14714158.86748 -11456823.73046  21398286.3754                   21398283.0664
 11  7 30  0 28  0.0000000  0  8G09G10G12G17G28G04G27G02
  -7779593.89847  -6053308.83245  22100204.3364                   22100203.5944
 -10918556.32047  -8500505.44545  22309465.7974                   22309465.3674
  -5070147.62547  -3942593.93044  23803138.3054                   23803137.0824
  -4195836.38347  -3259523.09845  21835942.2814                   21835941.0314
   3009216.05947   2352002.11344  22648190.8204                   22648188.3674
 -17795059.60248 -13856208.31247  19974754.0474                   19974752.3204
  -8823178.15647  -6867557.28545  22492222.3914                   22492222.3674
 -14748823.35548 -11483834.99246  21391690.2894                   21391686.0434
 11  7 30  0 28 30.0000000  0  8G09G10G12G17G28G04G27G02
  -7740991.86747  -6023229.35545  22107550.3674                   22107549.0044
 -10978951.52047  -8547566.59045  22297973.2504                   22297972.1804
  -5144549.44546  -4000569.35244  23788980.0944                   23788978.4024
  -4137205.74247  -3213836.88346  21847100.0784                   21847097.8484
   3106806.32047   2428046.41845  22666761.4144                   22666759.5084
 -17748693.32048 -13820078.73847  19983577.2734                   19983575.4024
  -8778679.83247  -6832883.30545  22500690.6174                   22500689.6684
 -14783121.93448 -11510561.14146  21385163.7344                   21385159.4454
 11  7 30  0 29  0.0000000  0  8G09G10G12G17G28G04G27G02
  -7701779.35547  -5992674.17645  22115011.6804                   22115010.6174
 -11039059.30947  -8594403.78945  22286535.1094                   22286534.5234
  -5218882.37947  -4058491.09444  23774835.2274                   23774832.8054
  -4078481.80147  -3168077.98446  21858274.7274                   21858272.5594
   3204742.83647   2504360.51244  22685398.0474                   22685397.1524
 -17701824.92648 -13783557.92247  19992495.8594                   19992494.2464
  -8733738.35947  -6797864.01245  22509242.7584                   22509242.1604
 -14817054.50848 -11537002.08246  21378706.4614                   21378702.8984
 11  7 30  0 29 30.0000000  0  8G09G10G12G17G28G04G27G02
  -7661965.11748  -5961650.12145  22122588.7034                   22122587.3484
 -11098883.48447  -8641019.98445  22275151.0314                   22275150.4064
  -5293151.62947  -4116363.20744  23760702.3594                   23760700.2034
  -4019671.90247  -3122252.10246  21869465.6414                   21869463.7384
   3303016.86747   2580937.59044  22704099.0474                   22704098.8284
 -17654463.34448 -13746652.78946  20001508.5084                   20001506.8404
  -8688362.52347  -6762506.26645  22517877.7814                   22517876.8874
 -14850627.71148 -11563162.99646  21372317.7114                   21372314.0084
 11  7 30  0 30  0.0000000  0  8G09G10G12G17G28G04G27G02
  -7621548.98847  -5930157.04745  22130279.2344                   22130277.6374
 -11158419.04747  -8687411.29345  22263821.9844                   22263821.5234
  -5367353.88347  -4174183.11344  23746581.2344                   23746579.6524
  -3960774.21548  -3076357.82846  21880674.1484                   21880671.7584
   3401629.55947   2657778.57044  22722864.3364                   22722863.3714
 -17606608.87148 -13709363.59847  20010614.8204                   20010613.3324
  -8642552.35547  -6726810.05945  22526595.4064                   22526594.2934
 -14883839.55148 -11589042.33646  21365997.3594                   21365994.1644
 11  7 30  0 30 30.0000000  0  8G09G10G12G17G28G04G27G02
  -7580524.87547  -5898190.23045  22138086.0554                   22138084.6334
 -11217655.23447  -8733569.32845  22252549.7344                   22252548.4844
  -5441479.12547  -4231943.01644  23732476.0084                   23732473.6094
  -3901780.63747  -3030388.82846  21891899.9064                   21891898.0904
   3500587.39547   2734888.51244  22741695.5314                   22741693.2344
 -17558255.53548 -13671685.68446  20019816.5164                   20019814.5904
  -8596301.59047  -6690770.54745  22535396.5864                   22535395.3204
 -14916682.00848 -11614633.83646  21359747.7974                   21359744.5554
 11  7 30  0 31  0.0000000  0  8G09G10G12G17G28G04G27G02
  -7538902.67648  -5865757.36745  22146006.0634                   22146004.7854
 -11276597.15647  -8779498.07045  22241333.2664                   22241331.2934
  -5515533.66447  -4289647.80144  23718383.7974                   23718382.6884
  -3842699.87547  -2984351.89846  21903142.9384                   21903140.9614
   3599880.49647   2812259.69544  22760590.0164                   22760588.6914
 -17509413.58648 -13633627.02346  20029110.6644                   20029108.7704
  -8549620.44547  -6654395.65645  22544279.4924                   22544277.9574
 -14949163.32848 -11639943.93446  21353566.7424                   21353562.9734
 11  7 30  0 31 30.0000000  0  8G09G10G12G17G28G04G27G02
  -7496685.19947  -5832860.66445  22154039.7814                   22154039.0824
 -11335242.43747  -8825195.64145  22230172.7974                   22230171.3284
  -5589516.32446  -4347296.54344  23704305.5944                   23704304.0904
  -3783532.60947  -2938247.55546  21914401.7974                   21914400.4304
   3699507.39147   2889890.94944  22779548.9614                   22779547.6524
 -17460085.80548 -13595189.80147  20038497.5474                   20038495.8594
  -8502511.07447  -6617687.09045  22553244.4844                   22553243.1414
 -14981283.53948 -11664972.65246  21347454.6094                   21347450.6524
 11  7 30  0 32  0.0000000  0  8G09G10G12G17G28G04G27G02
  -7453874.01647  -5799501.31245  22162186.8284                   22162185.9024
 -11393588.07047  -8870659.73045  22219070.0164                   22219069.3674
  -5663425.23847  -4404887.89144  23690240.5864                   23690238.3094
  -3724278.73847  -2892075.72746  21925677.4454                   21925676.6214
   3799466.78547   2967781.34844  22798570.6254                   22798568.9844
 -17410274.05948 -13556375.46147  20047976.4144                   20047974.6134
  -8454975.41047  -6580646.33645  22562290.0784                   22562288.9264
 -15013042.51648 -11689719.88746  21341410.8054                   21341407.2704
 11  7 30  0 32 30.0000000  0  8G09G10G12G17G28G04G27G02
  -7410470.94947  -5765680.77045  22170445.9534                   22170445.2584
 -11451630.71547  -8915887.73445  22208025.3834                   22208024.4734
  -5737258.12147  -4462419.97344  23676191.3834                   23676189.6914
  -3664938.07448  -2845836.26246  21936969.7114                   21936968.5084
   3899757.31347   3045929.74644  22817654.7274                   22817654.0354
 -17359980.47348 -13517185.65647  20057546.6254                   20057545.2304
  -8407015.02347  -6543274.65645  22571416.6954                   22571415.4534
 -15044439.93048 -11714185.39546  21335436.0234                   21335432.5784
 11  7 30  0 33  0.0000000  0  8G09G10G12G17G28G04G27G02
  -7366474.83247  -5731398.10545  22178818.3524                   22178817.3444
 -11509364.42647  -8960875.00445  22197038.6024                   22197038.1684
  -5811010.25047  -4519889.11344  23662156.5004                   23662154.8244
  -3605507.34047  -2799526.63346  21948279.0634                   21948277.3284
   4000380.79347   3124337.58644  22836803.2814                   22836801.6684
 -17309203.71948 -13477619.36747  20067209.3834                   20067207.7194
  -8358628.71147  -6505571.06245  22580624.0084                   22580623.9384
 -15075472.26248 -11738366.40646  21329530.9614                   21329527.5864
 11  7 30  0 33 30.0000000  0  8G09G10G12G17G28G04G27G02
  -7321886.83247  -5696654.23845  22187303.0084                   22187302.2344
 -11566785.27047  -9005618.46945  22186111.9614                   22186110.8204
  -5884678.93046  -4577293.22344  23648137.3524                   23648136.0234
  -3545985.89148  -2753146.30146  21959605.4064                   21959603.5664
   4101336.60547   3203004.40244  22856014.3364                   22856013.3754
 -17257945.49648 -13437677.89847  20076963.2814                   20076961.9384
  -8309817.58247  -6467536.46145  22589912.7194                   22589912.2424
 -15106138.68448 -11762262.30946  21323695.2814                   21323691.8404
 11  7 30  0 34  0.0000000  0  8G09G10G12G17G28G04G27G02
  -7276713.68047  -5661454.39545  22195899.6884                   22195898.3164
 -11623894.96147  -9050119.48845  22175244.2664                   22175242.1524
  -5958266.92647  -4634634.46144  23634134.0554                   23634132.3324
  -3486378.69547  -2706699.16045  21970948.2734                   21970946.2664
   4202618.65247   3281925.40244  22875287.7664                   22875286.7854
 -17206212.70348 -13397366.64147  20086807.8524                   20086806.5904
  -8260588.46547  -6429176.14145  22599280.3444                   22599279.7894
 -15136444.08248 -11785876.89546  21317928.4534                   21317924.5314
 11  7 30  0 34 30.0000000  0  8G09G10G12G17G28G04G27G02
  -7230951.71547  -5625795.75045  22204607.6024                   22204606.7234
 -11680684.53148  -9094371.09045  22164437.7344                   22164436.3954
  -6031766.71147  -4691906.96545  23620148.1174                   23620146.3834
  -3426679.72348  -2660180.51645  21982309.1334                   21982306.2384
   4304231.23847   3361103.98444  22894624.1804                   22894623.0004
 -17154001.35248 -13356682.47347  20096743.2894                   20096741.9574
  -8210937.25447  -6390486.91845  22608728.7734                   22608728.0124
 -15166382.39148 -11809205.42646  21312231.2194                   21312227.9964
 11  7 30  0 35  0.0000000  0  8G09G10G12G17G28G04G27G02
  -7184605.89148  -5589682.14545  22213427.5554                   22213426.2304
 -11737154.06647  -9138373.30545  22153691.2344                   22153690.5864
  -6105179.25847  -4749111.50045  23606177.4064                   23606176.1174
  -3366891.93047  -2613592.66446  21993685.9844                   21993684.0004
   4406170.15647   3440536.83644  22914023.3754                   22914022.0204
 -17101317.00848 -13315629.74247  20106768.9454                   20106767.4534
  -8160869.02047  -6351472.75045  22618256.5634                   22618255.8404
 -15195956.53147 -11832250.18746  21306603.6884                   21306599.9144
 11  7 30  0 35 30.0000000  0  8G09G10G12G17G28G04G27G02
  -7137679.85248  -5553116.41845  22222356.8204                   22222356.0164
 -11793302.59447  -9182125.35945  22143007.0944                   22143005.6914
  -6178504.38347  -4806247.91445  23592224.3984                   23592222.8794
  -3307017.82447  -2566937.54746  22005080.3364                   22005077.8444
   4508431.95747   3520221.27744  22933483.1724                   22933482.3014
 -17048163.41048 -13274211.36347  20116883.5394                   20116882.3554
  -8110387.47347  -6312136.50445  22627862.9454                   22627862.0784
 -15225168.32848 -11855012.60246  21301044.7114                   21301041.3094
 11  7 30  0 36  0.0000000  0  8G09G10G12G17G28G04G27G02
  -7090172.10547  -5516097.42245  22231397.6414                   22231396.4064
 -11849123.55547  -9225622.17645  22132384.7664                   22132383.2664
  -6251736.35947  -4863311.73445  23578289.3134                   23578286.8054
  -3247053.16847  -2520211.86746  22016490.5634                   22016488.2424
   4611018.59847   3600158.84444  22953004.2424                   22953003.7664
 -16994539.35248 -13232426.38346  20127087.8674                   20127086.1414
  -8059490.92647  -6272476.89845  22637548.0474                   22637546.8914
 -15254013.91048 -11877489.66046  21295555.2664                   21295552.1054
 11  7 30  0 36 30.0000000  0  8G09G10G12G17G28G04G27G02
  -7042087.52347  -5478628.94945  22240547.7584                   22240546.5744
 -11904616.72747  -9268863.59445  22121824.6724                   22121823.5984
  -6324876.12947  -4920303.73844  23564371.0784                   23564369.1174
  -3187000.73447  -2473417.77346  22027917.9614                   22027916.3954
   4713926.34047   3680346.61344  22972587.2814                   22972585.6914
 -16940449.50048 -13190278.44947  20137380.9224                   20137379.3284
  -8008184.10947  -6232497.59445  22647311.7894                   22647310.8874
 -15282495.84448 -11899683.35246  21290135.6254                   21290132.4184
 11  7 30  0 37  0.0000000  0  8G09G10G12G17G28G04G27G02
  -6993428.28547  -5440712.68745  22249806.9774                   22249805.6054
 -11959778.71947  -9311846.92645  22111327.3364                   22111326.7624
  -6397921.29747  -4977221.98044  23550470.7034                   23550469.0474
  -3126860.50847  -2426555.26245  22039362.2424                   22039360.6054
   4817153.88347   3760783.61744  22992231.4454                   22992229.0704
 -16885895.94948 -13147769.19946  20147762.1334                   20147760.4224
  -7956469.08647  -6192200.21545  22657152.9304                   22657152.0554
 -15310614.19548 -11921593.74646  21284784.6884                   21284781.5434
 11  7 30  0 37 30.0000000  0  8G09G10G12G17G28G04G27G02
  -6944194.18447  -5402348.46545  22259176.2424                   22259174.5634
 -12014604.13747  -9354568.00845  22100894.7344                   22100893.2624
  -6470868.14847  -5034063.63344  23536589.3204                   23536587.4064
  -3066630.18447  -2379622.55146  22050823.8444                   22050822.4384
   4920701.83647   3841470.28544  23011935.5084                   23011934.0514
 -16830878.65248 -13104898.58246  20158231.5634                   20158230.5004
  -7904345.55947  -6151584.53145  22667071.8204                   22667071.3054
 -15338366.47348 -11943218.88346  21279503.6414                   21279499.7544
 11  7 30  0 38  0.0000000  0  8G09G10G12G17G28G04G27G02
  -6894389.30947  -5363539.50845  22268653.8134                   22268652.0634
 -12069091.77348  -9397025.86745  22090525.9844                   22090524.4534
  -6543716.35247  -5090828.41044  23522726.4614                   23522724.7624
  -3006311.16448  -2332620.73046  22062302.3984                   22062300.6254
   5024566.96547   3922404.08244  23031700.8444                   23031698.9344
 -16775401.84448 -13061669.90247  20168788.6094                   20168787.1844
  -7851817.13347  -6110653.32845  22677067.6804                   22677067.1644
 -15365754.27348 -11964560.00846  21274292.0554                   21274287.9414
 11  7 30  0 38 30.0000000  0  8G09G10G12G17G28G04G27G02
  -6844009.42647  -5324282.48045  22278240.5704                   22278239.1484
 -12123232.79747  -9439213.65245  22080223.0864                   22080221.5554
  -6616457.91047  -5147510.07844  23508884.6024                   23508882.1644
  -2945897.64148  -2285545.26646  22073798.7584                   22073796.4414
   5128753.98447   4003588.70744  23051526.6254                   23051525.4844
 -16719461.30948 -13018079.88347  20179433.4614                   20179432.2034
  -7798879.74247  -6069403.44545  22687141.4844                   22687140.7734
 -15392771.45348 -11985612.34446  21269150.8054                   21269146.7814
 11  7 30  0 39  0.0000000  0  8G09G10G12G17G28G04G27G02
  -6793058.25847  -5284580.29345  22287936.4304                   22287934.5554
 -12177025.35948  -9481129.89545  22069986.8984                   22069985.8524
  -6689091.74647  -5204107.85244  23495062.7734                   23495061.0044
  -2885390.59848  -2238396.94546  22085312.9144                   22085310.5434
   5233260.20747   4085022.06644  23071414.1484                   23071411.7774
 -16663060.76248 -12974131.41047  20190166.2894                   20190164.5594
  -7745536.64547  -6027837.41845  22697291.9774                   22697291.4064
 -15419419.41848 -12006376.98046  21264079.7034                   21264076.5554
 11  7 30  0 39 30.0000000  0  9G09G10G12G17G05G28G04G27G02
  -6741547.26247  -5244441.89545  22297738.6414                   22297737.1684
 -12230475.70747  -9522779.46945  22059815.7034                   22059814.6524
  -6761625.03547  -5260627.26244  23481259.6484                   23481258.3674
  -2824799.36748  -2191183.01646  22096843.1254                   22096840.6134
  -1697965.10956  -1314391.64553  24762467.3914                   24762468.9534
   5338074.62147   4166695.56344  23091359.0314                   23091357.7464
 -16606211.53148 -12929833.31647  20200984.3834                   20200982.9614
  -7691799.32447  -5985964.22745  22707517.9844                   22707517.4494
 -15445707.41048 -12026861.10246  21259077.4694                   21259073.6844
 11  7 30  0 40  0.0000000  0  9G09G10G12G17G05G28G04G27G02
  -6689477.48447  -5203868.07845  22307646.8674                   22307646.4064
 -12283579.64847  -9564159.12945  22049709.7664                   22049709.6804
  -6834054.46547  -5317065.72344  23467477.4614                   23467475.3324
  -2764122.71148  -2143902.54345  22108389.4064                   22108387.1024
  -1780962.09446  -1379064.38744  24746672.8134                   24746674.8164
   5443197.00847   4248609.01644  23111363.0164                   23111361.6524
 -16548914.72348 -12885186.46147  20211887.5164                   20211886.1294
  -7637668.48847  -5943784.38345  22717818.5634                   22717817.8284
 -15471634.00848 -12047063.62946  21254143.6254                   21254139.8594
 11  7 30  0 40 30.0000000  0  9G09G10G12G17G05G28G04G27G02
  -6636851.16847  -5162860.58645  22317661.1724                   22317660.1684
 -12336334.29347  -9605266.60245  22039671.0944                   22039670.4344
  -6906378.10547  -5373421.78144  23453714.3594                   23453711.6724
  -2703360.57448  -2096555.44146  22119952.1254                   22119950.0904
  -1864053.13746  -1443810.45344  24730861.7194                   24730863.6764
   5548626.02047   4330761.39844  23131425.7814                   23131424.6994
 -16491172.79348 -12840192.75447  20222875.6024                   20222874.3914
  -7583146.55947  -5901299.79745  22728193.6414                   22728192.5744
 -15497199.37548 -12066984.69146  21249278.6024                   21249275.2074
 11  7 30  0 41  0.0000000  0  9G09G10G12G17G05G28G04G27G02
  -6583670.46147  -5121421.11745  22327781.3834                   22327780.7384
 -12388736.54747  -9646099.48045  22029699.2034                   22029698.1054
  -6978594.47747  -5429694.23045  23439972.1724                   23439970.1294
  -2642512.67648  -2049141.51645  22131530.7194                   22131528.6724
  -1947235.58246  -1508627.72744  24715032.6414                   24715034.1294
   5654360.05147   4413151.46944  23151546.3524                   23151545.2384
 -16432987.91048 -12794853.89147  20233947.6804                   20233946.3134
  -7528235.48847  -5858511.99245  22738643.0004                   22738642.0664
 -15522403.56648 -12086624.31246  21244482.4844                   21244479.1254
 11  7 30  0 41 30.0000000  0  9G09G10G12G17G05G28G04G27G02
  -6529937.35947  -5079551.19145  22338006.4924                   22338005.6564
 -12440783.48047  -9686655.51645  22019795.4304                   22019793.8754
  -7050700.68047  -5485880.86345  23426250.6644                   23426249.1524
  -2581578.57847  -2001660.41846  22143126.1484                   22143124.3984
  -2030506.94146  -1573514.30544  24699185.8984                   24699187.8134
   5760397.76247   4495778.16444  23171725.0784                   23171722.4614
 -16374361.96948 -12749171.35247  20245103.8834                   20245102.4804
  -7472936.98447  -5815422.29745  22749165.8594                   22749164.9574
 -15547246.12948 -12105982.13746  21239755.3834                   21239751.6764
 11  7 30  0 42  0.0000000  0  9G09G10G12G17G05G28G04G27G02
  -6475654.98847  -5037253.28145  22348335.8524                   22348335.4414
 -12492472.47747  -9726932.60245  22009958.4924                   22009957.2704
  -7122695.56647  -5541980.72744  23412550.1334                   23412548.5664
  -2520559.00047  -1954112.70746  22154737.2734                   22154736.3324
  -2113865.63746  -1638468.91044  24683323.9304                   24683325.2194
   5866736.83647   4578639.71944  23191960.0394                   23191958.6644
 -16315297.91848 -12703147.42247  20256343.4144                   20256341.9534
  -7417253.74647  -5772032.79345  22759762.8984                   22759761.7194
 -15571727.67648 -12125058.64546  21235096.1564                   21235092.7504
 11  7 30  0 42 30.0000000  0  9G09G10G12G17G05G28G04G27G02
  -6420817.09447  -4994522.49645  22358771.4304                   22358771.1884
 -12543792.39547  -9766922.12545  22000192.9224                   22000191.7304
  -7194568.39847  -5597985.50445  23398873.6094                   23398871.4144
  -2459445.48848  -1906491.79346  22166367.3594                   22166366.3204
  -2197300.80146  -1703483.17644  24667445.9144                   24667446.8014
   5973384.37547   4661741.60944  23212254.7034                   23212253.8634
 -16255789.54348 -12656777.27347  20267667.6254                   20267666.2384
  -7361179.42647  -5728338.55945  22770432.7344                   22770432.2624
 -15595840.00048 -12143847.44546  21230507.9614                   21230504.7424
 11  7 30  0 43  0.0000000  0  9G09G10G12G17G05G28G04G27G02
  -6365421.28547  -4951356.97345  22369312.8054                   22369312.3284
 -12594735.36747  -9806617.91045  21990499.3364                   21990498.1804
  -7266311.94547  -5653889.53145  23385221.0004                   23385219.1024
  -2398232.91047  -1858793.68046  22178015.7504                   22178014.3284
  -2280805.09446  -1768551.32043  24651556.2424                   24651556.5744
   6080343.55547   4745086.36744  23232608.5704                   23232606.9024
 -16195834.53948 -12610059.10547  20279076.6334                   20279074.9844
  -7304711.39147  -5684337.53145  22781178.2034                   22781177.9804
 -15619578.50848 -12162344.96146  21225990.5314                   21225987.3674
 11  7 30  0 43 30.0000000  0  9G09G10G12G17G05G28G04G27G02
  -6309482.54347  -4907768.37545  22379957.5944                   22379957.0704
 -12645310.57048  -9846027.12545  21980874.7734                   21980873.6564
  -7337936.73047  -5709701.02045  23371591.1724                   23371589.6054
  -2336933.53147  -1811027.94946  22189681.0704                   22189679.3484
  -2364388.64146  -1833681.20343  24635649.7344                   24635650.7274
   6187600.75447   4828663.34444  23253019.2894                   23253017.0904
 -16135447.26248 -12563004.08647  20290567.8594                   20290566.3404
  -7247864.06647  -5640040.95345  22791996.0704                   22791995.6054
 -15642954.92648 -12180560.33646  21221542.3284                   21221538.7734
 11  7 30  0 44  0.0000000  0  9G09G10G12G17G05G28G04G27G02
  -6252998.70747  -4863755.02745  22390706.5234                   22390705.6334
 -12695511.00048  -9885144.32445  21971321.8674                   21971320.4104
  -7409436.33647  -5765414.98045  23357985.3524                   23357982.7664
  -2275542.26247  -1763190.63746  22201363.1564                   22201361.1054
  -2448044.58246  -1898867.45743  24619729.8054                   24619730.8364
   6295158.15247   4912474.22744  23273487.4064                   23273485.2074
 -16074625.69548 -12515610.67647  20302142.1564                   20302140.3054
  -7190635.38347  -5595447.20745  22802886.6484                   22802886.0084
 -15665965.48848 -12198490.62146  21217163.4924                   21217159.8634
 11  7 30  0 44 30.0000000  0  9G09G10G12G17G05G28G04G27G02
  -6195973.46548  -4819319.81645  22401558.0004                   22401557.0234
 -12745334.40647  -9923967.73445  21961841.3364                   21961839.7734
  -7480809.71947  -5821030.58645  23344403.6564                   23344401.4694
  -2214060.78948  -1715283.03146  22213063.0704                   22213060.8524
  -2531771.43445  -1964109.02343  24603797.5314                   24603797.2664
   6403013.59446   4996517.37144  23294010.9064                   23294009.1724
 -16013373.10548 -12467881.39147  20313797.6414                   20313796.1334
  -7133028.47347  -5550558.75445  22813849.4534                   22813848.7704
 -15688611.30548 -12216136.69146  21212854.4924                   21212850.3204
 11  7 30  0 45  0.0000000  0  9G09G10G12G17G05G28G04G27G02
  -6138404.63347  -4774461.02345  22412512.9694                   22412512.4184
 -12794773.47747  -9962491.66445  21952432.8594                   21952431.3674
  -7552049.96947  -5876542.42645  23330847.0314                   23330845.2464
  -2152484.40248  -1667301.48445  22224780.5554                   22224778.5984
  -2615562.39146  -2029400.49643  24587852.3914                   24587853.7894
   6511170.10246   5080795.03143  23314592.6334                   23314589.6844
 -15951687.57448 -12419814.75446  20325535.9454                   20325534.6954
  -7075041.14147  -5505373.84845  22824883.5474                   22824883.2274
 -15710887.75848 -12233494.94946  21208614.8834                   21208611.5274
 11  7 30  0 45 30.0000000  0  9G09G10G12G17G05G28G04G27G02
  -6080296.12547  -4729181.68745  22423570.7194                   22423569.6954
 -12843826.90247 -10000715.08645  21943098.0634                   21943096.5474
  -7623156.61347  -5931950.16445  23317315.4534                   23317314.2304
  -2090814.23447  -1619246.84445  22236515.3134                   22236513.5164
  -2699416.54346  -2094741.21544  24571895.8054                   24571897.2464
   6619624.19547   5165304.64144  23335230.8364                   23335229.5434
 -15889572.92648 -12371413.73846  20337356.1414                   20337354.7894
  -7016677.07847  -5459895.39545  22835990.1094                   22835988.9534
 -15732796.69148 -12250566.82046  21204445.9224                   21204442.5554
 11  7 30  0 46  0.0000000  0  9G09G10G12G17G05G28G04G27G02
  -6021648.43747  -4683482.23845  22434731.5004                   22434730.1994
 -12892489.91848 -10038634.27745  21933837.8054                   21933836.6684
  -7694125.24247  -5987250.35945  23303810.8834                   23303809.3164
  -2029048.02347  -1571117.36345  22248269.4384                   22248267.6414
  -2783329.51247  -2160127.78944  24555927.3364                   24555929.1454
   6728376.05147   5250046.29344  23355925.6414                   23355924.6134
 -15827029.21148 -12322678.37947  20349258.1644                   20349256.2734
  -6957936.34847  -5414123.43445  22847167.3134                   22847167.3204
 -15754335.87948 -12267350.59446  21200347.3054                   21200343.3524
 11  7 30  0 46 30.0000000  0  9G09G10G12G17G05G28G04G27G02
  -5962465.07047  -4637365.37545  22445993.1174                   22445992.5164
 -12940760.61348 -10076247.78145  21924652.5474                   21924650.8714
  -7764954.84847  -6042442.21545  23290331.9144                   23290330.7114
  -1967186.54347  -1522913.64846  22260041.6024                   22260040.3484
  -2867299.57447  -2225558.84044  24539948.8594                   24539949.6484
   6837423.68447   5335018.38344  23376675.8984                   23376675.1914
 -15764059.84048 -12273611.34846  20361240.8284                   20361238.8204
  -6898822.18047  -5368060.51245  22858416.3444                   22858416.7624
 -15775506.53948 -12283847.20346  21196318.3444                   21196314.7584
 11  7 30  0 47  0.0000000  0  9G09G10G12G17G05G28G04G27G02
  -5902748.18447  -4590832.77045  22457356.9144                   22457356.4614
 -12988635.37148 -10113552.74645  21915541.8594                   21915541.3014
  -7835642.97747  -6097523.82045  23276880.8054                   23276879.2584
  -1905229.03148  -1474635.10946  22271831.8594                   22271830.2074
  -2951323.71147  -2291032.02744  24523959.9064                   24523961.1524
   6946765.70347   5420219.86744  23397484.3524                   23397482.5474
 -15700666.74248 -12224214.12946  20373304.0554                   20373302.3094
  -6839336.40247  -5321708.01245  22869735.8984                   22869735.9924
 -15796308.31648 -12300056.37146  21192360.1884                   21192356.6414
 11  7 30  0 47 30.0000000  0  9G09G10G12G17G05G28G04G27G02
  -5842504.33248  -4543889.55945  22468821.5474                   22468820.4884
 -13036115.39147 -10150550.12945  21906507.1334                   21906505.8244
  -7906191.47347  -6152496.65245  23263455.5004                   23263453.8444
  -1843179.68448  -1426284.98846  22283639.2424                   22283638.1994
  -3035403.98447  -2356548.95344  24507959.0394                   24507960.7304
   7056396.11347   5505646.09044  23418346.5634                   23418345.0394
 -15636856.73048 -12174492.05147  20385446.5784                   20385445.1644
  -6779485.55547  -5275071.03545  22881125.6094                   22881125.0944
 -15816745.67648 -12315981.56646  21188470.9924                   21188467.3134
 11  7 30  0 48  0.0000000  0  9G09G10G12G17G05G28G04G27G02
  -7357152.87947  -5724135.21945  22180592.8914                   22180591.7504
 -14658618.30148 -11414838.07845  21597754.8204                   21597753.6414
  -9552019.38747  -7434959.95345  22950265.3834                   22950262.9964
  -3356454.60547  -2605460.28546  21995673.0004                   21995670.8634
  -4694959.84446  -3649709.19944  24192156.3284                   24192156.8204
   5590898.15647   4363699.57844  23139470.6334                   23139469.9104
 -17148048.31648 -13352043.93746  20097876.4144                   20097874.7464
  -8294688.59847  -6455748.75845  22592792.2274                   22592791.8914
 -17412238.04748 -13559222.35546  20884858.6094                   20884854.6094
 11  7 30  0 48 30.0000000  0  9G09G10G12G17G05G28G04G27G02
  -7295859.83247  -5676374.42645  22192257.0634                   22192255.4964
 -14705297.46948 -11451211.42645  21588872.5004                   21588870.9414
  -9622278.92647  -7489707.60945  22936894.8524                   22936893.2424
  -3294217.67248  -2556964.00446  22007516.1884                   22007514.0984
  -4779142.04346  -3715305.55143  24176136.4924                   24176137.4414
   5701103.63346   4449573.88744  23160441.4454                   23160440.8324
 -17083407.56648 -13301674.53546  20110177.3284                   20110175.5354
  -8234110.95747  -6408545.45745  22604319.8834                   22604319.9964
 -17431943.55148 -13574577.27746  20881108.7664                   20881105.6374
 11  7 30  0 49  0.0000000  0  9G09G10G12G17G05G28G04G27G02
  -7234046.79347  -5628208.47345  22204018.8754                   22204018.5204
 -14751572.50048 -11487269.85945  21580066.5394                   21580065.2734
  -9692391.29747  -7544340.57845  22923552.9844                   22923551.5554
  -3231887.28548  -2508394.89146  22019377.1644                   22019375.5554
  -4863371.62945  -3780938.78143  24160106.0474                   24160108.7854
   5811593.48047   4535669.78144  23181468.2504                   23181466.8524
 -17018355.90648 -13250984.93746  20122556.1644                   20122554.3714
  -8173174.14547  -6361062.27045  22615915.8054                   22615915.7074
 -17451284.03948 -13589647.77046  20877428.3284                   20877425.1334
 11  7 30  0 49 30.0000000  0  9G09G10G12G17G05G28G04G27G02
  -7171714.53547  -5579637.92645  22215880.7114                   22215879.9184
 -14797438.56248 -11523009.61745  21571338.3524                   21571336.9224
  -9762352.32447  -7598855.62145  22910240.0704                   22910238.1214
  -3169461.53148  -2459751.46945  22031256.2274                   22031254.9384
  -4947644.51646  -3846605.77343  24144071.9064                   24144071.9024
   5922368.02746   4621987.55944  23202547.5474                   23202546.5314
 -16952893.62148 -13199975.36746  20135013.0084                   20135011.3134
  -8111878.30547  -6313299.32845  22627580.7974                   22627579.7544
 -17470257.91448 -13604432.59446  20873817.8674                   20873814.4574
 11  7 30  0 50  0.0000000  0  9G09G10G12G17G05G28G04G27G02
  -7108872.42647  -5530670.08645  22227839.0704                   22227838.5824
 -14842899.66848 -11558433.83645  21562687.2344                   21562685.9964
  -9832166.36347  -7653256.14545  22896955.6804                   22896952.8674
  -3106946.48047  -2411038.46545  22043152.2424                   22043150.4694
  -5031964.66846  -3912309.61743  24128025.7274                   24128025.7584
   6033418.85246   4708520.59444  23223679.8134                   23223678.6454
 -16887029.82448 -13148652.92246  20147546.5944                   20147544.8284
  -8050232.55147  -6265263.70745  22639311.3524                   22639310.4534
 -17488871.64148 -13618936.78546  20870275.7894                   20870272.3204
 11  7 30  0 50 30.0000000  0  9G09G10G12G17G05G28G04G27G02
  -7045513.49247  -5481299.53545  22239895.9774                   22239896.0864
 -14887943.53947 -11593532.93045  21554115.7034                   21554114.4264
  -9901821.82447  -7707533.09845  22883699.5234                   22883698.1914
  -3044332.37147  -2362248.27045  22055067.3594                   22055065.2624
  -5116320.36746  -3978041.18044  24111973.1024                   24111973.3094
   6144753.71946   4795274.94143  23244866.4384                   23244865.2234
 -16820757.27348 -13097011.98446  20160158.0314                   20160155.9064
  -7988229.77747  -6216949.90645  22651108.9844                   22651109.4304
 -17507116.30548 -13633153.38746  20866804.1254                   20866800.5084
 11  7 30  0 51  0.0000000  0  9G09G10G12G17G05G28G04G27G02
  -6981643.77747  -5431530.96545  22252050.5004                   22252049.1524
 -14932570.45747 -11628307.10945  21545623.2664                   21545622.3014
  -9971319.87947  -7761687.39145  22870474.3594                   22870473.2584
  -2981622.41448  -2313383.38345  22067000.9844                   22066998.7544
  -5200712.06246  -4043800.81244  24095913.5784                   24095914.7704
   6256367.44946   4882246.60544  23266105.8284                   23266104.6724
 -16754082.05148 -13045057.27746  20172845.5784                   20172843.9884
  -7925875.81647  -6168362.46545  22662974.9614                   22662974.8674
 -17524995.55148 -13647085.26246  20863401.6024                   20863397.6644
 11  7 30  0 51 30.0000000  0  9G09G10G12G17G05G28G04G27G02
  -6917262.69947  -5381363.92645  22264301.3284                   22264301.0434
 -14976774.67648 -11662751.91845  21537211.6564                   21537210.0274
 -10040654.90247  -7815714.64145  22857280.6884                   22857278.4224
  -2918813.52348  -2264441.40245  22078953.3284                   22078951.2274
  -5285134.46146  -4109584.36344  24079848.7814                   24079849.4534
   6368261.54346   4969436.74644  23287399.0234                   23287397.0164
 -16687002.94548 -12992787.85546  20185610.1884                   20185608.7854
  -7863169.65247  -6119500.58245  22674908.1024                   22674907.9344
 -17542506.16848 -13660729.89146  20860069.7034                   20860065.4574
 11  7 30  0 52  0.0000000  0  9G09G10G12G17G05G28G04G27G02
  -6852371.32047  -5330799.23845  22276650.3984                   22276649.1024
 -15020551.62148 -11696863.80145  21528881.0704                   21528880.0744
 -10109823.03947  -7869611.87145  22844118.8054                   22844116.4414
  -2855903.35948  -2215420.50845  22090924.4694                   22090922.8444
  -5369582.93747  -4175388.23844  24063778.8674                   24063778.6414
   6480435.92646   5056845.30944  23308744.3594                   23308744.2194
 -16619520.75448 -12940204.33646  20198451.7584                   20198450.2544
  -7800111.85547  -6070364.68045  22686907.5784                   22686906.6724
 -17559646.67248 -13674086.11346  20856807.6644                   20856803.7704
 11  7 30  0 52 30.0000000  0  9G09G10G12G17G05G28G04G27G02
  -6786977.30947  -5279842.91845  22289094.1954                   22289093.3324
 -15063903.44547 -11730644.42645  21520631.0234                   21520630.1134
 -10178826.90647  -7923381.10945  22830988.0004                   22830986.1134
  -2792896.82847  -2166324.51245  22102914.2344                   22102912.0434
  -5454059.85247  -4241214.30143  24047702.7814                   24047703.5744
   6592884.18846   5144467.25044  23330142.3914                   23330142.1564
 -16551642.90648 -12887312.51646  20211368.5004                   20211366.8914
  -7736709.65647  -6020960.41045  22698972.5394                   22698972.1054
 -17576422.42248 -13687158.12546  20853615.4774                   20853611.6484
 11  7 30  0 53  0.0000000  0  9G09G10G12G17G05G28G04G27G02
  -6721076.17247  -5228491.41045  22301634.6804                   22301633.3204
 -15106819.91447 -11764085.78546  21512465.1804                   21512463.5004
 -10247656.83647  -7977014.81645  22817889.2344                   22817887.2584
  -2729785.83648  -2117147.12945  22114923.9384                   22114922.4804
  -5538555.50846  -4307054.92644  24031623.8284                   24031624.0824
   6705611.84046   5232306.91844  23351594.5314                   23351593.7734
 -16483364.41848 -12834108.50046  20224361.6954                   20224360.1884
  -7672958.06247  -5971283.89845  22711104.1724                   22711104.1604
 -17592826.00048 -13699940.12146  20850493.8284                   20850490.4184
 11  7 30  0 53 30.0000000  0  9G09G10G12G17G05G28G04G27G02
  -6654676.83647  -5176751.71145  22314270.3364                   22314268.9884
 -15149304.58248 -11797190.69145  21504380.2424                   21504378.8834
 -10316316.94947  -8030516.16845  22804823.9614                   22804822.0744
  -2666577.04348  -2067893.53145  22126952.2504                   22126950.3364
  -5623073.72347  -4372913.13744  24015540.2894                   24015541.0554
   6818610.54746   5320357.75844  23373097.2894                   23373096.7544
 -16414694.17248 -12780599.22746  20237428.7504                   20237427.7854
  -7608865.87547  -5921341.94545  22723300.7894                   22723300.0434
 -17608864.16448 -13712437.37946  20847442.0394                   20847438.3244
 11  7 30  0 54  0.0000000  0  9G09G10G12G17G05G28G04G27G02
  -6587782.25847  -5124626.10945  22326999.9924                   22326998.4224
 -15191354.83648 -11829957.09846  21496378.3524                   21496377.3554
 -10384805.09847  -8083883.53545  22791791.1414                   22791788.7464
  -2603270.08647  -2018563.44545  22138999.2734                   22138996.8484
  -5707611.92647  -4438786.92644  23999453.2274                   23999453.6054
   6931878.68846   5408618.58643  23394650.8054                   23394651.0904
 -16345634.55948 -12726786.55146  20250570.2504                   20250569.4694
  -7544435.59447  -5871136.56644  22735561.5704                   22735559.8674
 -17624537.32448 -13724650.22346  20844459.3134                   20844455.6844
 11  7 30  0 54 30.0000000  0  9G09G10G12G17G05G28G04G27G02
  -6520395.83247  -5072117.23445  22339822.8134                   22339821.8444
 -15232968.50848 -11862383.30546  21488459.5234                   21488458.5274
 -10453119.64847  -8137115.63345  22778791.2584                   22778789.8674
  -2539864.76647  -1969156.71945  22151064.2274                   22151062.4494
  -5792167.83246  -4504674.49244  23983362.3754                   23983363.0004
   7045413.76546   5497087.39343  23416256.7894                   23416255.7774
 -16276188.64148 -12672672.85946  20263785.7584                   20263784.3134
  -7479670.27747  -5820670.13344  22747885.7584                   22747884.8094
 -17639846.58648 -13736579.50846  20841546.0004                   20841542.5904
 11  7 30  0 55  0.0000000  0  9G09G10G12G17G05G28G04G27G02
  -6452516.30947  -5019224.14545  22352740.3054                   22352739.0664
 -15274138.57848 -11894463.84445  21480624.9144                   21480624.4184
 -10521253.63747  -8190207.01245  22765825.3054                   22765823.7624
  -2476357.39147  -1919670.46945  22163150.0634                   22163147.8634
  -5876734.78546  -4570570.69144  23967269.9224                   23967271.1024
   7159218.13346   5585766.03543  23437912.9534                   23437912.1254
 -16206354.45748 -12618256.62146  20277074.8204                   20277073.0984
  -7414567.89847  -5769941.06644  22760274.0944                   22760273.4384
 -17654787.39848 -13748221.68446  20838703.1884                   20838699.3754
 11  7 30  0 55 30.0000000  0  9G09G10G12G17G05G28G04G27G02
  -6384141.01247  -4965944.72345  22365751.2584                   22365750.7074
 -15314856.68447 -11926192.21145  21472876.7034                   21472875.5274
 -10589199.48047  -8243151.80145  22752895.9064                   22752892.9224
  -2412741.69947  -1870099.80945  22175255.0554                   22175253.3914
  -5961304.78546  -4636469.21144  23951175.7814                   23951177.7154
   7273295.81646   5674657.68443  23459621.0314                   23459620.4224
 -16136128.77348 -12563535.30946  20290438.2974                   20290436.6954
  -7349125.49647  -5718947.02044  22772727.2734                   22772726.7974
 -17669354.89548 -13759572.96946  20835931.0474                   20835927.2464
 11  7 30  0 56  0.0000000  0  9G09G10G12G17G05G28G04G27G02
  -6315285.55147  -4912291.16045  22378854.4774                   22378854.2194
 -15355133.08647 -11957576.39545  21465211.9614                   21465210.9844
 -10656967.75047  -8295958.23045  22740000.4064                   22739997.3674
  -2349030.30547  -1820454.58245  22187379.4924                   22187376.6994
  -6045888.00446  -4702378.06244  23935080.2034                   23935082.0554
   7387632.02046   5763750.77043  23481378.2504                   23481377.4774
 -16065527.23448 -12508521.13346  20303873.2814                   20303871.6564
  -7283358.38347  -5667699.98445  22785242.7194                   22785242.5784
 -17683562.38348 -13770643.71946  20833227.3054                   20833223.2854
 11  7 30  0 56 30.0000000  0  9G09G10G12G17G05G28G04G27G02
  -6245940.70747  -4858256.26644  22392049.8444                   22392049.1844
 -15394953.07847 -11988604.91046  21457635.0784                   21457633.5394
 -10724543.85247  -8348614.91845  22727140.7584                   22727138.6884
  -2285210.78948  -1770725.12145  22199523.9064                   22199521.5204
  -6130469.76646  -4768285.76244  23918985.2424                   23918987.1954
   7502237.05947   5853053.34044  23503187.6254                   23503186.0004
 -15994540.12148 -12453206.50846  20317381.9304                   20317380.4454
  -7217256.97747  -5616192.43744  22797821.7814                   22797820.9844
 -17697398.13348 -13781424.80946  20830594.7504                   20830590.7194
 11  7 30  0 57  0.0000000  0  9G09G10G12G17G05G28G04G27G02
  -6176120.53147  -4803850.97345  22405336.1564                   22405335.5044
 -15434325.00847 -12019284.30145  21450142.5784                   21450140.6804
 -10791936.94547  -8401128.97745  22714316.1884                   22714314.6254
  -2221294.11747  -1720919.94945  22211687.1414                   22211684.2194
  -6215058.67246  -4834199.03144  23902888.5394                   23902888.9064
   7617097.86347   5942555.21144  23525044.9224                   23525043.0084
 -15923180.77748 -12397601.82846  20330960.8524                   20330959.2344
  -7150834.77347  -5564434.93045  22810461.6644                   22810460.9224
 -17710873.50848 -13791925.08246  20828030.3284                   20828026.1334
 11  7 30  0 57 30.0000000  0  9G09G10G12G17G05G28G04G27G02
  -6105828.62147  -4749078.10245  22418712.4454                   22418711.0434
 -15473247.04747 -12049613.12545  21442735.8204                   21442734.0704
 -10859145.28547  -8453499.06645  22701526.6484                   22701525.8164
  -2157280.42648  -1671039.16045  22223868.3754                   22223865.5664
  -6299652.50447  -4900116.17244  23886791.3754                   23886790.8834
   7732211.78147   6032254.34044  23546950.7194                   23546948.8954
 -15851452.58248 -12341709.73046  20344610.4534                   20344609.0474
  -7084094.92647  -5512429.88344  22823161.6484                   22823160.9774
 -17723989.56248 -13802145.35946  20825534.2194                   20825530.7894
 11  7 30  0 58  0.0000000  0  9G09G10G12G17G05G28G04G27G02
  -6035066.63747  -4693938.93444  22432178.6564                   22432177.3794
 -15511715.22348 -12079588.30946  21435415.6094                   21435414.2504
 -10926165.21547  -8505722.35245  22688774.0004                   22688772.3874
  -2093168.42247  -1621081.78945  22236068.3914                   22236066.0904
  -6384247.46147  -4966034.18444  23870693.1954                   23870693.2504
   7847578.16847   6122150.14544  23568903.7194                   23568903.7464
 -15779356.65248 -12285531.09047  20358329.8834                   20358328.4104
  -7017038.80547  -5460178.41444  22835921.3834                   22835921.3134
 -17736745.41048 -13812084.97746  20823107.2974                   20823103.4454
 11  7 30  0 58 30.0000000  0  9G09G10G12G17G05G28G04G27G02
  -5963828.09047  -4638428.40245  22445734.6024                   22445733.3714
 -15549717.93447 -12109200.77746  21428183.7114                   21428182.1254
 -10992985.35947  -8557789.95745  22676058.4844                   22676055.8674
  -2028948.07848  -1571039.99245  22248289.0634                   22248287.1884
  -6468831.77747  -5031943.93744  23854597.0394                   23854596.7544
   7963204.60946   6212248.60243  23590906.5004                   23590906.5634
 -15706886.04348 -12229060.48447  20372120.1174                   20372118.8594
  -6949659.53947  -5407675.15244  22848743.2734                   22848744.0274
 -17749132.05148 -13821736.88746  20820749.9614                   20820745.8524
 11  7 30  0 59  0.0000000  0  9G09G10G12G17G05G28G04G27G02
  -5892115.82847  -4582548.76245  22459381.1334                   22459380.5004
 -15587252.18747 -12138448.21146  21421041.5164                   21421039.6684
 -11059603.27747  -8609700.00445  22663381.4224                   22663378.4844
  -1964619.63747  -1520913.93046  22260530.3524                   22260528.9884
  -6553402.66047  -5097843.21144  23838503.5234                   23838503.3284
   8079089.35246   6302548.29344  23612959.7424                   23612958.9184
 -15634043.39148 -12172299.97746  20385982.1644                   20385981.0204
  -6881959.53547  -5354921.93744  22861626.5634                   22861626.0474
 -17761149.88348 -13831101.40646  20818462.9304                   20818458.8014
 11  7 30  0 59 30.0000000  0  9G09G10G12G17G05G28G04G27G02
  -5819940.68447  -4526308.43445  22473115.9144                   22473113.8404
 -15624323.09847 -12167334.59446  21413986.9064                   21413985.7464
 -11126023.79747  -8661456.25445  22650741.4224                   22650738.7074
  -1900190.23448  -1470709.20745  22272791.1174                   22272789.6294
  -6637965.16847  -5163735.95344  23822410.9614                   23822411.6454
   8195222.87547   6393041.87944  23635058.8674                   23635058.8134
 -15560838.53548 -12115257.23446  20399912.5004                   20399911.0004
  -6813948.75847  -5301926.60944  22874568.3054                   22874568.4454
 -17772806.83648 -13840184.72746  20816244.7734                   20816240.9304
 11  7 30  1  0  0.0000000  0  9G09G10G12G17G05G28G04G27G02
  -5747304.27047  -4469708.64845  22486937.9534                   22486937.3634
 -15660926.18447 -12195856.43746  21407021.2894                   21407020.7344
 -11192243.05947  -8713055.64845  22638140.6254                   22638138.3204
  -1835657.82047  -1420424.23045  22285071.0164                   22285069.6914
  -6722514.89546  -5229618.74644  23806321.6804                   23806322.0434
   8311604.67646   6483728.93043  23657205.4844                   23657204.9384
 -15487272.60248 -12057933.14546  20413911.6254                   20413910.1094
  -6745628.31247  -5248689.95344  22887569.2584                   22887569.7544
 -17784101.78948 -13848985.97346  20814095.0004                   20814091.4734
 11  7 30  1  0 30.0000000  0  9G09G10G12G17G05G28G04G27G02
  -5674209.64547  -4412751.84444  22500846.9694                   22500846.6134
 -15697059.35947 -12224012.12946  21400146.0164                   21400144.6134
 -11258259.23047  -8764496.78145  22625578.5704                   22625576.1454
  -1771022.41848  -1370059.00845  22297370.1174                   22297368.9224
  -6807049.69947  -5295489.90644  23790235.4924                   23790236.2624
   8428232.62146   6574607.72743  23679397.2814                   23679398.8524
 -15413348.32848 -12000329.80947  20427978.7894                   20427977.4104
  -6677001.08647  -5195214.25444  22900628.6254                   22900628.5864
 -17795035.76248 -13857505.94946  20812014.2974                   20812010.5164
 11  7 30  1  1  0.0000000  0  9G09G10G12G17G05G28G04G27G02
  -5600659.52047  -4355440.09045  22514843.8524                   22514842.8444
 -15732720.10247 -12251799.68746  21393359.5164                   21393358.4414
 -11324069.69947  -8815777.63345  22613054.7664                   22613052.3484
  -1706283.43048  -1319613.06645  22309690.5234                   22309688.3954
  -6891566.71546  -5361347.20344  23774152.3914                   23774153.2384
   8545105.35246   6665677.34043  23701638.2814                   23701639.7854
 -15339068.02748 -11942449.06246  20442114.2734                   20442113.0784
  -6608069.41447  -5141501.32044  22913745.8754                   22913746.0554
 -17805608.65648 -13865744.55146  20810002.6724                   20809998.9654
 11  7 30  1  1 30.0000000  0  9G09G10G12G17G05G28G04G27G02
  -5526651.49647  -4297771.52344  22528927.0004                   22528925.2584
 -15767899.99647 -12279212.55946  21386664.9694                   21386663.9414
 -11389666.57047  -8866892.06645  22600572.3444                   22600569.7074
  -1641434.81648  -1269081.70745  22322030.6254                   22322028.2344
  -6976057.59047  -5427184.11344  23758074.1804                   23758074.9534
   8662226.19146   6756940.23843  23723925.7504                   23723926.9884
 -15264428.37148 -11884288.29747  20456317.4454                   20456316.4614
  -6538830.23047  -5087548.75845  22926922.3594                   22926922.6914
 -17815815.43048 -13873697.86346  20808060.2194                   20808056.3794
 11  7 30  1  2  0.0000000  0  9G09G10G12G17G05G28G04G27G02
  -5452188.02347  -4239748.09445  22543096.3594                   22543095.9184
 -15802595.80148 -12306248.21946  21380062.3444                   21380062.0664
 -11455046.76247  -8917837.64545  22588129.9534                   22588127.9534
  -1576475.87948  -1218464.37945  22334391.8914                   22334389.9804
  -7060518.87547  -5492997.98844  23742001.8754                   23742002.0634
   8779593.92246   6848395.55143  23746260.2034                   23746260.8204
 -15189431.32448 -11825849.03947  20470589.0314                   20470587.7814
  -6469285.51647  -5033358.12144  22940156.1334                   22940156.2304
 -17825656.02748 -13881365.84046  20806187.3134                   20806183.8954
 11  7 30  1  2 30.0000000  0  9G09G10G12G17G05G28G04G27G02
  -5377273.03547  -4181372.82444  22557352.0554                   22557351.6564
 -15836806.33647 -12332905.74646  21373552.4454                   21373551.6254
 -11520208.87947  -8968613.30545  22575730.2664                   22575728.3674
  -1511407.04747  -1167761.39845  22346774.3364                   22346772.7854
  -7144948.87147  -5558787.49244  23725935.7274                   23725935.9414
   8897205.28146   6940040.71543  23768641.2894                   23768642.1764
 -15114080.38748 -11767134.03546  20484927.7194                   20484926.2734
  -6399438.83247  -4978932.19945  22953447.0004                   22953447.5234
 -17835131.82448 -13888749.55546  20804384.3524                   20804380.3364
 11  7 30  1  3  0.0000000  0  9G09G10G12G17G05G28G04G27G02
  -5301916.46147  -4122653.46945  22571692.1564                   22571692.2344
 -15870535.89147 -12359188.48046  21367133.7734                   21367132.5864
 -11585157.46547  -9019222.55945  22563371.3364                   22563369.1994
  -1446234.94147  -1116977.95345  22359175.5234                   22359174.7034
  -7229351.87947  -5624555.99244  23709873.8054                   23709874.1334
   9015051.81346   7031869.13743  23791066.4144                   23791067.0904
 -15038384.81248 -11708150.48446  20499331.9224                   20499330.8014
  -6329299.67247  -4924278.35944  22966793.8134                   22966795.1724
 -17844250.20748 -13895854.77746  20802649.2194                   20802645.3874
 11  7 30  1  3 30.0000000  0  9G09G10G12G17G05G28G04G27G02
  -5226115.91047  -4063588.16845  22586116.9454                   22586115.8754
 -15903776.53148 -12385090.24246  21360809.0704                   21360806.7704
 -11649884.52047  -9069659.19145  22551053.8594                   22551052.3914
  -1380953.75048  -1066109.50445  22371598.4774                   22371597.1374
  -7313719.42247  -5690296.82844  23693819.4144                   23693819.2584
   9133137.03546   7123883.55543  23813537.4534                   23813538.5474
 -14962341.51648 -11648895.98446  20513803.0164                   20513801.1954
  -6258864.96947  -4869394.23844  22980197.7894                   22980197.4344
 -17853005.93748 -13902677.41046  20800983.3674                   20800979.4104
 11  7 30  1  4  0.0000000  0  9G09G10G12G17G05G28G04G27G02
  -5149881.85247  -4004185.05145  22600623.4224                   22600623.1724
 -15936533.16447 -12410614.87946  21354574.8134                   21354573.0864
 -11714395.20347  -9119927.22745  22538777.7664                   22538776.3364
  -1315570.63748  -1015161.64546  22384041.1644                   22384039.3634
  -7398056.55947  -5756013.97344  23677770.3364                   23677770.7894
   9251451.65246   7216076.69543  23836052.1024                   23836052.6884
 -14885960.68448 -11589378.47746  20528337.4534                   20528335.8984
  -6188144.78147  -4814287.64144  22993655.4924                   22993654.7734
 -17861406.99248 -13909223.67246  20799384.6024                   20799380.8324
 11  7 30  1  4 30.0000000  0  9G09G10G12G17G05G28G04G27G02
  -5073211.91047  -3944442.29345  22615214.1094                   22615213.2074
 -15968797.67247 -12435756.02746  21348435.0394                   21348433.4064
 -11778681.52747  -9170020.42645  22526545.3834                   22526542.4024
  -1250079.42248   -964129.55545  22396503.2274                   22396501.5664
  -7482355.14847  -5821701.09444  23661728.6094                   23661728.8634
   9369999.05546   7308451.24643  23858611.4454                   23858611.5044
 -14809238.92248 -11529595.28946  20542937.2424                   20542935.1994
  -6117136.07047  -4758956.22344  23007168.2664                   23007167.7584
 -17869448.62148 -13915489.85946  20797853.8984                   20797850.2974
 11  7 30  1  5  0.0000000  0  9G09G10G12G17G05G28G04G27G02
  -4996111.09047  -3884363.78945  22629885.9614                   22629884.7774
 -16000569.40248 -12460513.19546  21342389.3444                   21342387.7734
 -11842743.03147  -9219938.45745  22514353.9614                   22514352.8014
  -1184481.60248   -913014.38745  22408986.1954                   22408984.7584
  -7566613.97347  -5887357.23444  23645695.8594                   23645694.8204
   9488775.60946   7401004.33243  23881214.0554                   23881214.0824
 -14732180.65648 -11469549.90646  20557600.9064                   20557599.4884
  -6045843.45747  -4703403.57844  23020734.5394                   23020734.8204
 -17877132.58248 -13921477.33646  20796391.9384                   20796388.5314
 11  7 30  1  5 30.0000000  0  9G09G10G12G17G05G28G04G27G02
  -4918576.77047  -3823947.47345  22644639.7734                   22644639.7624
 -16031840.38348 -12484880.15246  21336438.1954                   21336437.4384
 -11906571.46147  -9269674.86345  22502207.6564                   22502206.2774
  -1118771.15247   -861811.45745  22421490.1334                   22421488.7624
  -7650824.53947  -5952975.77344  23629669.7664                   23629669.5864
   9607785.18446   7493739.03543  23903859.8834                   23903860.7704
 -14654782.58648 -11409239.72746  20572329.4304                   20572327.5864
  -5974263.80547  -4647627.28944  23034355.3834                   23034356.0664
 -17884454.21148 -13927182.48046  20794998.5234                   20794994.9144
 11  7 30  1  6  0.0000000  0  9G09G10G12G17G05G28G04G27G02
  -4840614.34047  -3763197.59445  22659475.6024                   22659474.7734
 -16062610.74647 -12508857.03946  21330582.5634                   21330582.2704
 -11970166.91447  -9319229.72345  22490106.3914                   22490104.2274
  -1052950.34047   -810522.52745  22434014.9384                   22434014.4494
  -7734986.73047  -6018556.59444  23613654.3204                   23613654.8404
   9727023.24246   7586651.68443  23926549.7504                   23926550.9844
 -14577049.81648 -11348668.75446  20587121.5004                   20587119.5944
  -5902402.33647  -4591631.39545  23048030.6564                   23048030.9454
 -17891416.44148 -13932607.57846  20793673.6564                   20793669.8094
 11  7 30  1  6 30.0000000  0  9G09G10G12G17G05G28G04G27G02
  -4762228.36747  -3702117.65645  22674391.7664                   22674391.4494
 -16092879.30948 -12532442.89846  21324822.7814                   21324821.8594
 -12033527.88747  -9368601.87945  22478049.2034                   22478046.8324
   -987019.77048   -759148.06245  22446561.6484                   22446560.8914
  -7819098.90647  -6084098.47344  23597648.6334                   23597648.2074
   9846486.40646   7679739.79343  23949283.5394                   23949285.2074
 -14498985.78548 -11287839.64846  20601976.3594                   20601974.4804
  -5830262.68447  -4535418.72345  23061758.5004                   23061758.9844
 -17898020.82848 -13937753.82446  20792417.1724                   20792413.1254
 11  7 30  1  7  0.0000000  0  9G09G10G12G17G05G28G04G27G02
  -4683427.38747  -3640714.35544  22689386.9534                   22689386.3204
 -16122648.84848 -12555639.90646  21319158.1724                   21319156.5784
 -12096657.35947  -9417793.67645  22466035.9224                   22466033.6564
   -920984.14548   -707691.74245  22459127.9454                   22459126.4534
  -7903163.48047  -6149603.25844  23581650.6254                   23581650.6914
   9966167.60946   7772997.80943  23972058.5634                   23972059.3364
 -14420598.28548 -11226758.49646  20616893.0784                   20616891.1764
  -5757852.85247  -4478995.52044  23075537.9534                   23075537.5234
 -17904273.25048 -13942625.83246  20791227.2194                   20791223.7114
 11  7 30  1  7 30.0000000  0  9G09G10G12G17G05G28G04G27G02
  -4604205.91447  -3578983.39545  22704462.1024                   22704462.4024
 -16151908.32048 -12578439.47346  21313590.3754                   21313588.8674
 -12159544.19147  -9466796.36745  22454069.2734                   22454067.4654
   -854834.69948   -656146.75045  22471715.5704                   22471714.6684
  -7987169.16047  -6215062.14544  23565665.5164                   23565664.8834
  10086073.39146   7866430.78143  23994876.8754                   23994877.1684
 -14341881.32848 -11165420.62146  20631872.3674                   20631870.3524
  -5685166.68747  -4422357.00044  23089369.1024                   23089369.0474
 -17910165.77348 -13947217.39546  20790105.7274                   20790102.3484
 11  7 30  1  8  0.0000000  0  9G09G10G12G17G05G28G04G27G02
  -4524567.19147  -3516927.31245  22719617.6884                   22719617.2074
 -16180655.43448 -12600839.78946  21308119.2274                   21308118.1644
 -12222186.16447  -9515608.26245  22442148.2504                   22442146.0594
   -788571.07047   -604512.78145  22484325.2504                   22484323.8714
  -8071113.11747  -6280472.93745  23549691.3834                   23549691.2814
  10206201.78547   7960037.25444  24017737.0944                   24017736.3404
 -14262837.37148 -11103827.94546  20646914.2034                   20646912.0514
  -5612206.96947  -4365505.31244  23103253.2274                   23103252.9844
 -17915698.78148 -13951528.80546  20789053.2974                   20789049.4184
 11  7 30  1  8 30.0000000  0  9G09G10G12G17G05G28G04G27G02
  -4444514.42647  -3454548.58244  22734850.9224                   22734850.6254
 -16208888.25447 -12622839.34846  21302746.9694                   21302745.7894
 -12284580.82047  -9564227.46145  22430275.0164                   22430273.1054
   -722193.27747   -552789.84045  22496956.3984                   22496955.5084
  -8154993.11747  -6345833.91444  23533729.3984                   23533729.1914
  10326550.53146   8053815.45343  24040637.5784                   24040637.4024
 -14183469.07048 -11041982.53146  20662017.1954                   20662015.3714
  -5538976.52047  -4308442.69544  23117188.6094                   23117188.2344
 -17920873.37148 -13955560.94146  20788068.1414                   20788064.6294
 11  7 30  1  9  0.0000000  0  9G09G10G12G17G05G28G04G27G02
  -4364055.69147  -3391853.52345  22750161.9844                   22750161.7734
 -16236609.16848 -12644440.00846  21297472.3364                   21297471.5124
 -12346730.77347  -9612655.95745  22418448.3284                   22418445.8984
   -655705.37547   -500981.09445  22509608.1254                   22509606.7304
  -8238810.88747  -6411146.38345  23517779.3134                   23517779.4534
  10447112.87946   8147760.06643  24063580.3204                   24063580.4224
 -14103783.52048 -10979889.90646  20677181.1564                   20677178.9304
  -5465482.68047  -4251174.82444  23131174.1954                   23131174.4024
 -17925694.60248 -13959317.73046  20787150.9064                   20787146.9694
 11  7 30  1  9 30.0000000  0  9G09G10G12G17G05G28G04G27G02
  -4283186.19947  -3328838.38745  22765550.8834                   22765550.2734
 -16263807.62948 -12665633.58646  21292296.1334                   21292295.4184
 -12408625.60947  -9660885.68445  22406670.4144                   22406667.5744
   -589098.71947   -449079.82445  22522283.3524                   22522281.9534
  -8322555.63347  -6476401.93745  23501843.7734                   23501843.0514
  10567894.91446   8241875.91043  24086564.5234                   24086564.0164
 -14023775.08648 -10917545.68446  20692406.0704                   20692404.3164
  -5391720.06247  -4193697.53544  23145210.4064                   23145210.8984
 -17930155.04748 -13962793.39846  20786302.0164                   20786297.8484
 11  7 30  1 10  0.0000000  0  9G09G10G12G17G05G28G04G27G02
  -4201919.36347  -3265513.62944  22781015.5474                   22781015.6764
 -16290491.81648 -12686426.41846  21287218.2114                   21287217.3364
 -12470273.03947  -9708922.62945  22394938.7974                   22394936.1214
   -522383.62547   -397094.06245  22534979.1724                   22534977.9264
  -8406234.96947  -6541606.53945  23485919.8984                   23485919.5274
  10688883.94946   8336153.05543  24109588.2664                   24109587.4494
 -13943456.58648 -10854959.84446  20707690.1564                   20707688.4694
  -5317701.78947  -4136021.01644  23159295.4844                   23159295.5514
 -17934265.66448 -13965996.46546  20785519.8594                   20785515.7854
 11  7 30  1 10 30.0000000  0  9G09G10G12G17G05G28G04G27G02
  -4120255.51647  -3201879.52045  22796555.7584                   22796555.7114
 -16316656.65248 -12706814.57046  21282238.9694                   21282237.9964
 -12531667.65647  -9756762.60945  22383256.1804                   22383253.2384
   -455556.57047   -345021.05145  22547696.0944                   22547694.4454
  -8489843.22347  -6606755.73845  23470009.4224                   23470009.2074
  10810081.23846   8430592.48043  24132650.9454                   24132650.5394
 -13862827.78548 -10792132.21946  20723033.1094                   20723031.9144
  -5243427.56247  -4078145.07044  23173429.8914                   23173429.1954
 -17938024.14548 -13968925.14846  20784804.6094                   20784800.6644
 11  7 30  1 11  0.0000000  0  9G09G10G12G17G05G28G04G27G02
  -4038196.16847  -3137937.21945  22812170.9614                   22812171.2624
 -16342298.09448 -12726794.88746  21277359.4224                   21277358.3324
 -12592805.01647  -9804402.08245  22371621.7114                   22371619.4264
   -388615.22347   -292858.98845  22560434.7034                   22560432.6294
  -8573375.60247  -6671845.85245  23454113.4224                   23454113.7304
  10931486.60246   8525194.05143  24155753.4304                   24155752.6414
 -13781889.18048 -10729063.18446  20738435.5394                   20738434.3054
  -5168898.16447  -4020070.26244  23187612.0474                   23187612.1764
 -17941429.22748 -13971578.45346  20784156.5084                   20784152.2234
 11  7 30  1 11 30.0000000  0  9G09G10G12G17G05G28G04G27G02
  -3955746.08647  -3073690.45745  22827860.8984                   22827861.0864
 -16367415.40648 -12746366.78546  21272580.4064                   21272578.4924
 -12653684.34047  -9851840.49645  22360036.8204                   22360034.5514
   -321560.78947   -240608.80545  22573194.2664                   22573192.4344
  -8656830.80147  -6736875.79744  23438232.1024                   23438232.5394
  11053096.25046   8619954.76643  24178894.5704                   24178894.5124
 -13700644.74648 -10665755.84046  20753895.8134                   20753894.4734
  -5094117.87547  -3961799.97344  23201842.5864                   23201842.5904
 -17944483.10948 -13973958.09046  20783575.3984                   20783571.0594
 11  7 30  1 12  0.0000000  0  9G09G10G12G17G05G28G04G27G02
  -3872908.59447  -3009141.80945  22843624.2194                   22843623.8054
 -16392006.67248 -12765528.78145  21267900.3364                   21267898.7344
 -12714303.25047  -9899076.01245  22348501.6564                   22348499.3134
   -254393.02747   -188270.30545  22585975.8134                   22585974.5594
  -8740206.12947  -6801843.50444  23422366.3364                   23422366.5124
  11174907.96946   8714872.94543  24202075.3594                   24202075.4454
 -13619097.15248 -10602212.27746  20769413.6484                   20769412.4064
  -5019089.62547  -3903336.45744  23216120.3914                   23216120.3524
 -17947186.81648 -13976064.85546  20783061.2504                   20783056.9884
 11  7 30  1 12 30.0000000  0  9G09G10G12G17G05G28G04G27G02
  -3789679.91447  -2944288.34445  22859462.5004                   22859462.1334
 -16416062.27747 -12784273.38745  21263322.9144                   21263321.4144
 -12774652.23447  -9946101.17645  22337017.6724                   22337015.5234
   -187104.37547   -135837.62545  22598781.0234                   22598779.2854
  -8823491.80147  -6866741.35244  23406517.6254                   23406518.1724
  11296926.80146   8809952.54743  24225294.8134                   24225294.7774
 -13537241.74248 -10538428.85546  20784990.2664                   20784989.1954
  -4943808.87547  -3844676.21544  23230444.9774                   23230445.9614
 -17949533.68048 -13977893.56646  20782614.4304                   20782610.3554
 11  7 30  1 13  0.0000000  0  9G09G10G12G17G05G28G04G27G02
  -3706069.35247  -2879137.30545  22875373.0084                   22875372.5984
 -16439586.11348 -12802603.62146  21258846.2344                   21258845.2194
 -12834734.55147  -9992918.56245  22325584.3284                   22325582.1094
   -119700.42647    -83315.09445  22611607.2734                   22611605.2664
  -8906690.69546  -6931571.60244  23390685.0234                   23390685.4774
  11419144.78146   8905187.33643  24248552.1884                   24248551.7154
 -13455086.64548 -10474411.91446  20800624.3524                   20800622.5394
  -4868284.36747  -3785826.02744  23244817.2274                   23244817.2624
 -17951530.50048 -13979449.52046  20782234.7274                   20782230.4694
 11  7 30  1 13 30.0000000  0  9G09G10G12G17G05G28G04G27G02
  -3622077.30547  -2813689.00845  22891356.2344                   22891355.3674
 -16462573.24648 -12820515.65646  21254472.1804                   21254470.4574
 -12894545.21947 -10039524.28545  22314202.8754                   22314200.4344
    -52177.90247    -30700.17245  22624456.1484                   22624454.8524
  -8989797.55547  -6996330.08644  23374870.9534                   23374870.8554
  11541562.75846   9000577.91443  24271846.6884                   24271847.0044
 -13372631.87948 -10410161.45746  20816315.0474                   20816313.7114
  -4792515.98847  -3726785.78944  23259235.6024                   23259235.0904
 -17953174.58248 -13980730.60546  20781921.5864                   20781917.4614
 11  7 30  1 14  0.0000000  0  9G09G10G12G17G05G28G04G27G02
  -3537706.79347  -2747945.80145  22907411.2114                   22907410.7544
 -16485021.65648 -12838007.90246  21250200.5474                   21250198.6134
 -12954081.42647 -10085916.13345  22302873.1644                   22302871.0984
     15464.20347     22007.93045  22637328.1094                   22637326.6454
  -9072808.91847  -7061014.20744  23359074.5004                   23359074.1644
  11664179.14146   9096123.14543  24295179.2344                   24295180.2274
 -13289879.41448 -10345679.02346  20832062.2974                   20832060.3484
  -4716506.02747  -3667557.30945  23273700.3284                   23273699.6884
 -17954466.55548 -13981737.32447  20781675.7894                   20781671.5044
 11  7 30  1 14 30.0000000  0  9G09G10G12G17G05G28G04G27G02
  -3452958.58247  -2681908.27045  22923538.2034                   22923538.1524
 -16506926.35547 -12855076.47345  21246031.9694                   21246030.5164
 -13013338.00047 -10132090.04745  22291596.6644                   22291595.3954
     83228.76647     74811.46545  22650222.9224                   22650221.6884
  -9155719.47347  -7125619.77044  23343296.7034                   23343296.4654
  11786994.01246   9191823.01643  24318548.7344                   24318551.2154
 -13206829.12948 -10280964.52746  20847866.2194                   20847864.2974
  -4640254.71947  -3608140.76645  23288209.9694                   23288210.5084
 -17955404.68448 -13982468.32447  20781497.1644                   20781493.1454
 11  7 30  1 15  0.0000000  0  9G09G10G12G17G05G28G04G27G02
  -3367842.70347  -2615584.27345  22939735.4844                   22939735.3094
 -16528292.22747 -12871725.18046  21241965.7974                   21241964.4774
 -13072319.27747 -10178049.46945  22280373.2344                   22280371.2384
    151109.09047    127705.18845  22663140.8284                   22663138.8204
  -9238533.22747  -7190149.91444  23327537.7664                   23327537.4924
  11909998.66746   9287670.73143  24341957.8364                   24341958.3794
 -13123490.17648 -10216025.09446  20863724.8594                   20863723.5314
  -4563771.66847  -3548543.66045  23302764.7274                   23302765.1294
 -17955996.51248 -13982929.47346  20781384.6414                   20781380.5044
 11  7 30  1 15 30.0000000  0  9G09G10G12G17G05G28G04G27G02
  -3282362.13347  -2548976.09045  22956001.8834                   22956001.8634
 -16549116.83648 -12887952.12146  21238003.3834                   21238001.2234
 -13131022.49647 -10223792.23046  22269202.7894                   22269200.6844
    219106.27747    180689.97745  22676080.5554                   22676078.1524
  -9321247.07447  -7254602.19944  23311797.8754                   23311798.1094
  12033191.25846   9383664.94943  24365399.2114                   24365400.7234
 -13039864.95748 -10150862.59846  20879638.2584                   20879636.6954
  -4487059.25447  -3488767.83644  23317362.5084                   23317362.8054
 -17956242.31248 -13983121.00046  20781338.0394                   20781333.8834
 11  7 30  1 16  0.0000000  0  9G09G10G12G17G05G28G04G27G02
  -3196517.96947  -2482084.57845  22972337.5704                   22972337.5944
 -16569395.48848 -12903753.64546  21234144.7424                   21234142.6954
 -13189442.62547 -10269314.39145  22258085.4224                   22258083.8444
    287223.27047    233768.12545  22689042.5164                   22689040.3364
  -9403855.45347  -7318972.29745  23296078.1884                   23296078.1174
  12156572.01645   9479805.80542  24388878.4224                   24388879.6254
 -12955953.02348 -10085476.68446  20895606.2034                   20895604.6484
  -4410117.52347  -3428813.32044  23332003.6954                   23332003.9924
 -17956140.23048 -13983041.44946  20781356.9224                   20781353.1214
 11  7 30  1 16 30.0000000  0  9G09G10G12G17G05G28G04G27G02
  -3110316.35547  -2414914.57045  22988740.8914                   22988741.0274
 -16589129.39548 -12919130.69546  21230388.6954                   21230387.4024
 -13247580.13747 -10314616.32846  22247022.4844                   22247020.1054
    355457.46147    286937.59445  22702027.6334                   22702025.4024
  -9486358.78147  -7383260.53545  23280378.3054                   23280378.7894
  12280136.10546   9576089.47342  24412391.6334                   24412393.4064
 -12871760.32448 -10019871.98046  20911627.2424                   20911626.1174
  -4332952.46147  -3368684.77044  23346687.4924                   23346687.8834
 -17955694.09448 -13982693.79747  20781442.2034                   20781438.0164
 11  7 30  1 17  0.0000000  0  8G09G10G12G17G05G04G27G02
  -3023756.34447  -2347465.28544  23005213.1724                   23005213.1644
 -16608312.23848 -12934078.34446  21226739.0004                   21226737.5514
 -13305428.52047 -10359692.97345  22236013.8914                   22236011.8134
    423813.52047    340202.03945  22715035.1804                   22715033.7894
  -9568750.03947  -7447461.44145  23264699.2974                   23264699.4304
 -12787284.67648  -9954046.80946  20927702.3444                   20927700.8714
  -4255562.35947  -3308380.85244  23361415.0864                   23361415.3204
 -17954900.38748 -13982075.31247  20781593.3524                   20781589.2114
 11  7 30  1 17 30.0000000  0  8G09G10G12G17G05G04G27G02
  -2936838.52347  -2279737.16844  23021753.0314                   23021752.8714
 -16626939.17648 -12948592.81246  21223194.4774                   21223193.1644
 -13362982.30147 -10404540.05145  22225061.5004                   22225059.6334
    492294.67247    393563.95745  22728065.9384                   22728064.8054
  -9651023.15247  -7511570.27045  23249043.6484                   23249043.9774
 -12702525.71548  -9888000.86746  20943831.3444                   20943830.4454
  -4177947.09447  -3247901.49244  23376184.7734                   23376184.5434
 -17953756.73048 -13981184.16047  20781810.7034                   20781806.6844
 11  7 30  1 18  0.0000000  0  8G09G10G12G17G05G04G27G02
  -2849567.21547  -2211733.60245  23038360.2274                   23038359.7854
 -16645009.03148 -12962673.18746  21219755.8054                   21219754.3834
 -13420239.73048 -10449156.23045  22214166.1954                   22214164.2544
    560900.69547    447023.18045  22741121.2504                   22741119.5824
  -9733175.83647  -7575585.25845  23233410.5234                   23233410.5744
 -12617486.62548  -9821736.65246  20960013.8674                   20960012.6294
  -4100110.35247  -3187249.56244  23390996.7034                   23390996.8834
 -17952264.75048 -13980021.57446  20782094.5704                   20782090.6884
 11  7 30  1 18 30.0000000  0  8G09G10G12G17G05G04G27G02
  -2761943.82447  -2143455.69944  23055034.3524                   23055033.9494
 -16662518.49648 -12976316.89546  21216423.8444                   21216422.7304
 -13477196.67647 -10493538.23845  22203327.9614                   22203325.8714
    629633.77347    500581.40645  22754201.0394                   22754198.6374
  -9815203.98447  -7639503.21145  23217800.6884                   23217800.8094
 -12532168.27048  -9755254.83246  20976249.2734                   20976248.0704
  -4022053.32047  -3126425.98044  23405850.6804                   23405851.3364
 -17950424.10248 -13978587.30547  20782444.9064                   20782440.7234
 11  7 30  1 19  0.0000000  0  8G09G10G12G17G05G04G27G02
  -2673974.99647  -2074908.59845  23071774.4304                   23071774.2234
 -16679468.74248 -12989524.84045  21213198.0394                   21213196.1484
 -13533853.87547 -10537686.68045  22192545.7274                   22192544.3714
    698491.04347    554236.37945  22767304.0704                   22767301.8484
  -9897107.85547  -7703324.32845  23202214.9534                   23202215.1764
 -12446576.10248  -9688559.63346  20992536.9694                   20992535.9534
  -3943781.84047  -3065435.29744  23420745.2664                   23420745.5164
 -17948238.02348 -13976883.85947  20782861.0554                   20782857.1374
 11  7 30  1 19 30.0000000  0  8G09G10G12G17G05G04G27G02
  -2585665.49647  -2006096.07045  23088578.8134                   23088578.8204
 -16695859.01248 -13002296.44146  21210079.8134                   21210077.9494
 -13590210.18747 -10581600.66445  22181822.0234                   22181820.0514
    767471.68447    607987.50845  22780430.6564                   22780427.9384
  -9978885.93447  -7767047.41845  23186653.5234                   23186652.6564
 -12360713.96148  -9621654.07446  21008876.2194                   21008874.8524
  -3865299.89547  -3004280.58644  23435679.5784                   23435679.4924
 -17945708.95348 -13974913.12947  20783341.9454                   20783338.0354
 11  7 30  1 20  0.0000000  0  8G09G10G12G17G05G04G27G02
  -2497015.59447  -1937018.27745  23105448.5004                   23105448.5234
 -16711684.71148 -13014628.14146  21207068.2034                   21207065.7464
 -13646259.70747 -10625275.59445  22171155.7584                   22171154.1134
    836579.18047    661837.47345  22793580.6954                   22793579.3634
 -10060532.08247  -7830667.71945  23171116.0314                   23171115.5864
 -12274581.24248  -9554537.67246  21025266.7274                   21025265.4774
  -3786607.10247  -2942961.59044  23450653.9534                   23450654.4454
 -17942834.39148 -13972673.19947  20783888.8444                   20783884.8204
 11  7 30  1 20 30.0000000  0  8G09G10G12G17G05G04G27G02
  -2408031.53547  -1867680.10545  23122381.5314                   23122381.7384
 -16726946.68748 -13026520.55146  21204163.3594                   21204161.5474
 -13702003.64147 -10668712.40245  22160548.2974                   22160545.7704
    905811.25047    715784.53945  22806755.5634                   22806754.0354
 -10142046.64547  -7894185.47745  23155604.4924                   23155604.4694
 -12188183.10948  -9487214.46546  21041707.6094                   21041706.2664
  -3707709.35247  -2881482.87944  23465667.7894                   23465668.1374
 -17939618.08648 -13970166.98047  20784500.6024                   20784497.1604
 11  7 30  1 21  0.0000000  0  8G09G10G12G17G05G04G27G02
  -2318716.42247  -1798083.96944  23139377.9064                   23139378.2814
 -16741642.98448 -13037972.17246  21201367.1644                   21201365.2384
 -13757438.78547 -10711908.59846  22149999.5004                   22149997.1914
    975168.45747    769829.10245  22819954.0634                   22819952.4964
 -10223426.39847  -7957598.19145  23140118.2274                   23140117.6484
 -12101521.80548  -9419686.17646  21058198.8134                   21058197.6994
  -3628609.25047  -2819846.52344  23480720.6334                   23480720.9694
 -17936060.88348 -13967395.12947  20785177.8834                   20785173.8364
 11  7 30  1 21 30.0000000  0  8G09G10G12G17G05G04G27G02
  -2229072.10947  -1728231.32844  23156435.9064                   23156436.7274
 -16755770.34048 -13048980.46546  21198678.6564                   21198676.7074
 -13812560.93747 -10754860.89546  22139509.7424                   22139507.6484
   1044652.88747    823972.80945  22833177.1484                   22833174.9804
 -10304666.88347  -8020902.39545  23124658.3754                   23124657.8054
 -12014598.27048  -9351953.56646  21074740.0234                   21074738.6054
  -3549307.76247  -2758053.21944  23495811.1174                   23495811.6804
 -17932161.73448 -13964356.82447  20785919.8754                   20785915.6454
 11  7 30  1 22  0.0000000  0  8G09G10G12G17G05G04G27G02
  -2139105.60247  -1658127.64545  23173556.9774                   23173557.6454
 -16769330.13748 -13059546.52346  21196097.9774                   21196096.1684
 -13867371.14147 -10797570.13345  22129079.8364                   22129077.6374
   1114261.56647    878213.27345  22846422.7034                   22846419.8524
 -10385768.32047  -8084098.24645  23109225.7034                   23109224.6094
 -11927418.14548  -9284021.01246  21091330.1094                   21091328.4574
  -3469811.21547  -2696107.92644  23510939.0704                   23510939.7114
 -17927924.97348 -13961055.43747  20786726.3204                   20786722.4344
 11  7 30  1 22 30.0000000  0  8G09G10G12G17G05G04G27G02
  -2048823.14147  -1587777.71945  23190736.9144                   23190737.0664
 -16782323.34448 -13069671.05546  21193625.7274                   21193624.1414
 -13921869.72347 -10840036.54745  22118709.0004                   22118706.5744
   1183992.23047    932548.85245  22859691.7274                   22859689.2114
 -10466730.78947  -8147185.79745  23093818.7034                   23093818.0004
 -11839986.73448  -9215892.66046  21107967.9144                   21107965.8444
  -3390124.91447  -2634014.78544  23526102.1254                   23526103.4144
 -17923353.94948 -13957493.59446  20787595.8754                   20787591.6174
 11  7 30  1 23  0.0000000  0  8G09G10G12G17G05G04G27G02
  -1958218.26247  -1517176.58245  23207978.4224                   23207978.5474
 -16794738.71548 -13079345.35246  21191263.1724                   21191260.9614
 -13976044.39847 -10882250.56645  22108399.7194                   22108396.9304
   1253855.06347    986987.40245  22872986.4774                   22872984.5984
 -10547541.52747  -8210155.12545  23078441.5394                   23078440.8524
 -11752296.37148  -9147562.51646  21124654.6884                   21124652.9454
  -3310242.22747  -2571768.62144  23541303.9844                   23541304.1214
 -17918440.18048 -13953664.68447  20788530.7894                   20788526.7704
 11  7 30  1 23 30.0000000  0  8G09G10G12G17G05G04G27G02
  -1867296.58647  -1446328.57045  23225280.5314                   23225280.5594
 -16806576.93048 -13088569.90646  21189009.8134                   21189008.1334
 -14029895.20747 -10924212.21145  22098152.6564                   22098150.6024
   1323848.14847   1041527.44145  22886305.8594                   22886303.5434
 -10628200.33247  -8273006.04745  23063092.0004                   23063091.4024
 -11664352.28148  -9079034.67246  21141389.9384                   21141388.1684
  -3230168.19947  -2509373.34044  23556541.3204                   23556541.7464
 -17913186.40648 -13949570.82446  20789530.7114                   20789526.2234
 11  7 30  1 24  0.0000000  0  8G09G10G12G17G05G04G27G02
  -1776067.87947  -1375241.33645  23242640.7114                   23242642.0044
 -16817842.83248 -13097348.50446  21186866.4694                   21186864.5084
 -14083426.00047 -10965924.50045  22087966.1414                   22087963.6294
   1393965.70747   1096164.47745  22899649.2734                   22899647.4064
 -10708710.22747  -8335740.94545  23047771.5084                   23047770.7424
 -11576162.76648  -9010315.58646  21158171.6414                   21158169.9414
  -3149912.09447  -2446836.16044  23571813.9384                   23571814.8364
 -17907599.85548 -13945217.66046  20790593.7584                   20790589.9654
 11  7 30  1 24 30.0000000  0  8G09G10G12G17G05G04G27G02
  -3259938.97747  -2531504.59845  22960269.7344                   22960270.1844
 -18403941.23448 -14333269.30946  20885042.1954                   20885040.1644
 -15712042.04347 -12234975.94545  21778050.8594                   21778048.2774
   -111195.82047    -76688.67645  22613226.6174                   22613225.4774
 -12364477.52047  -9625949.13345  22732689.1804                   22732688.9384
 -13063133.66048 -10168994.21546  20875210.5864                   20875208.8834
  -4644880.17647  -3611746.43844  23287330.8834                   23287331.7814
 -19477087.53548 -15168195.06247  20491930.3754                   20491926.1134
 11  7 30  1 25  0.0000000  0  8G09G10G12G17G05G04G27G02
  -3168094.86347  -2459937.81344  22977747.0004                   22977747.1414
 -18414045.24648 -14341142.54746  20883119.4534                   20883117.9734
 -15764912.53547 -12276173.71545  21767989.7034                   21767986.4574
    -40815.62547    -21846.99245  22626619.5864                   22626618.6294
 -12444669.28947  -9688436.12545  22717428.6024                   22717428.9924
 -12974448.64148 -10099889.02746  20892086.4694                   20892085.4414
  -4564255.96146  -3548922.44944  23302673.2034                   23302674.3794
 -19470826.01648 -15163315.95347  20493121.6884                   20493118.0394
 11  7 30  1 25 30.0000000  0  8G09G10G12G17G05G04G27G02
  -3075948.30547  -2388135.35945  22995282.0634                   22995282.5824
 -18423566.18048 -14348561.43746  20881307.6644                   20881306.2814
 -15817449.87947 -12317111.89545  21757992.1724                   21757989.5314
     29696.07447     33097.17245  22640037.3674                   22640036.0164
 -12524697.64147  -9750795.77745  22702200.1334                   22702199.7624
 -12885519.77048 -10030593.82846  20909009.0784                   20909007.9024
  -4483452.18446  -3485958.56644  23318049.7504                   23318051.1054
 -19464228.73848 -15158175.21147  20494377.1174                   20494373.1174
 11  7 30  1 26  0.0000000  0  8G09G10G12G17G05G04G27G02
  -2983500.37147  -2316098.06645  23012874.0944                   23012874.5434
 -18432500.06648 -14355522.88746  20879607.8674                   20879606.6094
 -15869648.89547 -12357786.43746  21748058.9614                   21748056.3794
    100342.32047     88146.19145  22653480.4844                   22653479.3014
 -12604557.53947  -9813024.17245  22687003.4774                   22687002.5044
 -12796346.57848  -9961108.23446  20925977.9694                   20925977.0044
  -4402469.19946  -3422855.01244  23333460.1484                   23333461.4574
 -19457294.12548 -15152771.59847  20495696.6564                   20495692.9574
 11  7 30  1 26 30.0000000  0  8G09G10G12G17G05G04G27G02
  -2890763.26647  -2243835.45345  23030521.8134                   23030522.0124
 -18440854.02348 -14362032.44946  20878017.8984                   20878016.7304
 -15921516.03547 -12398202.37546  21738189.1174                   21738187.1334
    171114.81647    143293.56645  22666947.9304                   22666945.7894
 -12684254.93447  -9875125.94545  22671837.6334                   22671837.5004
 -12706940.58648  -9891441.25046  20942991.5634                   20942990.2854
  -4321318.39147  -3359620.69944  23348903.0084                   23348903.4804
 -19450031.70748 -15147112.54347  20497078.6954                   20497075.0474
 11  7 30  1 27  0.0000000  0  8G09G10G12G17G05G04G27G02
  -2797735.18047  -2171346.10245  23048224.5784                   23048225.3914
 -18448621.31648 -14368084.87146  20876539.9924                   20876538.7304
 -15973043.36747 -12438353.52746  21728383.2584                   21728381.8634
    242019.32847    198543.80545  22680441.2274                   22680438.0234
 -12763781.33647  -9937094.47745  22656704.0314                   22656703.2894
 -12617298.66848  -9821590.42246  20960049.8594                   20960048.6954
  -4239997.23047  -3296253.64144  23364378.2344                   23364378.4574
 -19442436.97348 -15141194.55547  20498523.9224                   20498520.4414
 11  7 30  1 27 30.0000000  0  8G09G10G12G17G05G04G27G02
  -2704422.45347  -2098634.94544  23065980.7584                   23065981.6414
 -18455803.58648 -14373681.42646  20875173.1414                   20875171.4224
 -16024231.22747 -12478240.15246  21718643.1174                   21718640.1804
    313053.36347    253894.95345  22693958.5474                   22693956.0204
 -12843136.97347  -9998929.94145  22641603.3674                   22641602.3364
 -12527426.23448  -9751559.97746  20977151.9614                   20977150.7384
  -4158511.82446  -3232758.59044  23379884.0234                   23379885.4654
 -19434514.08648 -15135020.85546  20500031.6644                   20500027.7734
 11  7 30  1 28  0.0000000  0  8G09G10G12G17G05G04G27G02
  -2610830.37547  -2025706.14144  23083791.0394                   23083791.8714
 -18462400.74648 -14378822.04746  20873917.6414                   20873915.9884
 -16075079.17247 -12517861.91446  21708967.0944                   21708964.2464
    384215.80547    309346.16445  22707499.4614                   22707499.2074
 -12922320.62147 -10060631.40645  22626535.2194                   22626534.5944
 -12437327.25848  -9681353.00046  20994297.6254                   20994296.2774
  -4076866.46547  -3169138.91044  23395420.8754                   23395421.9384
 -19426265.19548 -15128593.13747  20501601.5474                   20501597.3874
 11  7 30  1 28 30.0000000  0  8G09G10G12G17G05G04G27G02
  -2516960.32047  -1952560.72344  23101653.8834                   23101654.9384
 -18468409.68448 -14383504.31646  20872774.1414                   20872772.6524
 -16125582.94947 -12557215.50445  21699356.1724                   21699353.2114
    455508.87547    364899.19945  22721066.3674                   22721066.0704
 -13001327.40247 -10122195.05945  22611500.1804                   22611499.0784
 -12347002.32848  -9610969.96546  21011485.7894                   21011484.1844
  -3995062.32447  -3105395.50044  23410988.2344                   23410988.8484
 -19417689.76648 -15121910.97747  20503233.2424                   20503229.5944
 11  7 30  1 29  0.0000000  0  8G09G10G12G17G05G04G27G02
  -2422812.69947  -1879199.00844  23119569.5554                   23119570.8094
 -18473825.88348 -14387724.70746  20871743.3364                   20871742.3524
 -16175736.75447 -12596296.35546  21689811.6414                   21689809.9414
    526936.21947    420556.84845  22734658.1254                   22734657.0044
 -13080151.20747 -10183616.10245  22596500.6024                   22596500.0084
 -12256450.62148  -9540410.20746  21028717.0944                   21028715.2034
  -3913099.09047  -3041528.12544  23426585.0314                   23426585.6954
 -19408785.43048 -15114972.53547  20504927.7504                   20504923.9184
 11  7 30  1 29 30.0000000  0  8G09G10G12G17G05G04G27G02
  -2328394.42647  -1805626.38744  23137537.1564                   23137537.4344
 -18478651.24248 -14391484.71146  20870825.3834                   20870823.6724
 -16225541.30147 -12635105.06646  21680334.9224                   21680332.7424
    598495.07447    476317.01245  22748274.8754                   22748274.6954
 -13158792.43047 -10244894.89845  22581535.6724                   22581535.2974
 -12165677.56248  -9469677.96946  21045990.5234                   21045989.5084
  -3830982.79347  -2977541.48044  23442211.2034                   23442211.9614
 -19399556.35248 -15107781.04347  20506683.7664                   20506679.7074
 11  7 30  1 30  0.0000000  0  8G09G10G12G17G05G04G27G02
  -2233706.26647  -1731843.46944  23155555.7974                   23155555.4774
 -18482881.76248 -14394781.19946  20870020.2034                   20870018.5204
 -16274991.44147 -12673637.64546  21670925.0704                   21670923.1024
    670188.69547    532182.15645  22761918.3594                   22761918.2504
 -13237245.70747 -10306027.25845  22566606.2584                   22566605.4614
 -12074682.87148  -9398773.03946  21063306.1174                   21063305.0824
  -3748713.46146  -2913435.59844  23457866.2584                   23457867.8444
 -19390000.78548 -15100335.14547  20508502.2734                   20508498.3794
 11  7 30  1 30 30.0000000  0  8G09G10G12G17G05G04G27G02
  -2138749.19547  -1657851.03144  23173624.8914                   23173626.4224
 -18486513.62148 -14397611.21546  20869328.9694                   20869327.9104
 -16324082.59447 -12711890.46146  21661582.9454                   21661581.0004
    742019.70347    588154.36345  22775588.4384                   22775586.7734
 -13315505.46947 -10367008.81245  22551714.0234                   22551713.3444
 -11983466.34048  -9327695.24246  21080664.4924                   21080662.9844
  -3666291.44147  -2849210.71944  23473550.8524                   23473551.8244
 -19380117.33248 -15092633.75047  20510383.0784                   20510379.1484
 11  7 30  1 31  0.0000000  0  8G09G10G12G17G05G04G27G02
  -2043529.06647  -1583653.59444  23191745.5394                   23191745.9574
 -18489547.75848 -14399975.46546  20868751.3834                   20868750.6724
 -16372814.75847 -12749863.55146  21652309.3834                   21652306.5204
    813986.45747    644232.33245  22789282.2664                   22789280.8634
 -13393571.16447 -10427839.14145  22536858.4224                   22536857.8754
 -11892032.71548  -9256448.28546  21098063.4694                   21098062.4184
  -3583721.74646  -2784870.78144  23489263.9694                   23489264.6134
 -19369908.97348 -15084679.18447  20512325.3364                   20512321.7344
 11  7 30  1 31 30.0000000  0  8G09G10G12G17G05G04G27G02
  -1948052.89847  -1509256.63744  23209913.8754                   23209914.5234
 -18491986.36348 -14401875.65646  20868287.4924                   20868286.5124
 -16421188.52047 -12787557.38746  21643104.2034                   21643101.7974
    886085.89547    700413.68745  22803003.3054                   22803001.1134
 -13471443.37147 -10488518.69945  22522039.4144                   22522038.8714
 -11800387.68048  -9185036.59446  21115503.1724                   21115501.9844
  -3501010.88346  -2720420.83244  23505002.5784                   23505003.6804
 -19359380.21548 -15076474.95747  20514329.0084                   20514325.3794
 11  7 30  1 32  0.0000000  0  9G09G10G12G17G05G25G04G27G02
  -1852316.57847  -1434656.98844  23228131.8444                   23228132.7194
 -18493820.77748 -14403305.04346  20867938.2274                   20867937.4734
 -16469194.08647 -12824964.31646  21633968.8984                   21633966.5864
    958326.14147    756704.76245  22816750.2034                   22816748.9534
 -13549111.69947 -10549039.40245  22507260.1094                   22507259.5394
  -4847476.86756  -3768499.55953  24562255.1564                   24562257.1214
 -11708526.10248  -9113456.14846  21132983.5784                   21132982.4574
  -3418154.23446  -2655857.29744  23520769.9064                   23520770.4384
 -19348524.81248 -15068016.19947  20516395.1024                   20516391.1254
 11  7 30  1 32 30.0000000  0  9G09G10G12G17G05G25G04G27G02
  -1756329.69147  -1359862.06644  23246398.3054                   23246398.1454
 -18495056.04348 -14404267.57846  20867703.2814                   20867702.0824
 -16516835.21147 -12862087.25046  21624903.0164                   21624901.8834
   1030701.34447    813101.00845  22830522.5554                   22830520.4264
 -13626579.57047 -10609403.89845  22492518.8834                   22492517.4454
  -4929440.39846  -3832367.19943  24546657.8834                   24546659.6454
 -11616456.41048  -9041713.54746  21150503.8984                   21150502.9024
  -3335160.82046  -2591187.19544  23536562.8444                   23536564.4924
 -19337349.76648 -15059308.37947  20518521.5164                   20518517.6254
 11  7 30  1 33  0.0000000  0  9G09G10G12G17G05G25G04G27G02
  -1660101.23447  -1284878.91844  23264709.6724                   23264709.5354
 -18495696.67248 -14404766.76246  20867581.3524                   20867580.0434
 -16564115.20347 -12898928.78546  21615906.4694                   21615904.3754
   1103206.34046    869598.41045  22844318.3054                   22844318.2774
 -13703849.38347 -10669614.06645  22477814.0944                   22477813.3404
  -5011307.47346  -3896159.68443  24531078.5234                   24531080.6134
 -11524186.51248  -8969814.92246  21168062.5234                   21168060.8444
  -3252038.93046  -2526416.95744  23552380.8754                   23552382.3834
 -19325861.60548 -15050356.56247  20520707.6254                   20520703.7934
 11  7 30  1 33 30.0000000  0  9G09G10G12G17G05G25G04G27G02
  -1563629.03947  -1209705.84044  23283067.8754                   23283068.2814
 -18495735.25048 -14404796.79746  20867573.8754                   20867572.8204
 -16611025.52347 -12935482.27346  21606979.5234                   21606977.5514
   1175847.69547    926202.06245  22858141.7814                   22858141.9344
 -13780912.53947 -10729663.21145  22463149.2814                   22463148.6994
  -5093069.89146  -3959870.61343  24515520.4614                   24515521.8594
 -11431712.84848  -8897757.52746  21185660.1884                   21185658.4454
  -3168785.71546  -2461544.41444  23568223.9144                   23568224.8324
 -19314055.32448 -15041156.84847  20522954.2194                   20522950.2504
 11  7 30  1 34  0.0000000  0  9G09G10G12G17G05G25G04G27G02
  -1466915.73847  -1134344.89844  23301472.2814                   23301472.1174
 -18495169.94548 -14404356.28546  20867681.2814                   20867680.3134
 -16657563.19947 -12971745.39146  21598123.7974                   21598121.5394
   1248626.50046    982912.80945  22871990.8754                   22871990.7774
 -13857765.34847 -10789548.44145  22448525.3444                   22448524.3674
  -5174724.53147  -4023497.56343  24499982.5394                   24499981.9774
 -11339036.84448  -8825542.46946  21203295.7274                   21203294.4064
  -3085403.23447  -2396571.14544  23584090.8594                   23584091.4064
 -19301931.30148 -15031709.55947  20525261.1174                   20525257.2624
 11  7 30  1 34 30.0000000  0  9G09G10G12G17G05G25G04G27G02
  -1369963.05547  -1058797.42644  23319921.2894                   23319921.8954
 -18493997.89848 -14403442.98046  20867904.4534                   20867903.3364
 -16703724.02747 -13007714.86746  21589339.3284                   21589337.2504
   1321544.84447   1039732.27345  22885867.3594                   22885866.3404
 -13934402.93747 -10849265.96945  22433941.4304                   22433940.8324
  -5256267.06647  -4087037.15643  24484465.7114                   24484465.1644
 -11246158.98048  -8753170.13346  21220969.6024                   21220968.6564
  -3001892.32447  -2331497.77744  23599982.6564                   23599983.6994
 -19289488.55948 -15022013.90647  20527629.2274                   20527625.5474
 11  7 30  1 35  0.0000000  0  9G09G10G12G17G05G25G04G27G02
  -1272773.12547   -983065.09444  23338416.2274                   23338417.1604
 -18492216.95748 -14402055.22346  20868243.3984                   20868241.8794
 -16749504.14847 -13043387.68446  21580627.5554                   21580625.8634
   1394604.82447   1096662.11745  22899770.7814                   22899769.5984
 -14010821.07047 -10908812.48845  22419399.2664                   22419398.6724
  -5337693.73047  -4150486.48843  24468970.5084                   24468970.2544
 -11153080.06648  -8680641.13346  21238681.9614                   21238680.5554
  -2918254.41447  -2266325.46943  23615897.7194                   23615899.0474
 -19276726.61348 -15012069.52347  20530057.6094                   20530053.7464
 11  7 30  1 35 30.0000000  0  9G09G10G12G17G05G25G04G27G02
  -1175349.83247   -907150.92244  23356955.1174                   23356955.4454
 -18489826.16048 -14400192.23046  20868698.4144                   20868697.1914
 -16794901.51647 -13078762.25046  21571989.0784                   21571986.6954
   1467806.56647   1153702.41045  22913700.6724                   22913699.1454
 -14087017.44547 -10968186.21945  22404899.9224                   22404898.2584
  -5419002.64546  -4213843.98443  24453497.5634                   24453497.6954
 -11059802.93048  -8607957.67246  21256431.6174                   21256430.1764
  -2834492.89147  -2201056.82044  23631837.6724                   23631839.3404
 -19263647.36748 -15001877.89847  20532546.4304                   20532542.4614
 11  7 30  1 36  0.0000000  0  9G09G10G12G17G05G25G04G27G02
  -1077698.64547   -831059.15244  23375537.2894                   23375537.1884
 -18486826.62148 -14397854.91846  20869268.8674                   20869267.9614
 -16839915.93048 -13113838.41846  21563423.2974                   21563420.5824
   1541148.50847   1210851.95345  22927657.0784                   22927656.0434
 -14162991.07447 -11027386.37945  22390442.1174                   22390441.3014
  -5500193.39146  -4277109.45343  24438047.5164                   24438048.1724
 -10966331.66448  -8535122.93046  21274218.9774                   21274217.1914
  -2750612.64847  -2135695.67644  23647799.5784                   23647800.1174
 -19250253.44548 -14991441.07047  20535095.0004                   20535090.9614
 11  7 30  1 36 30.0000000  0  9G09G10G12G17G05G25G04G27G02
   -979822.44546   -754792.04744  23394161.6564                   23394162.5004
 -18483216.71948 -14395041.98046  20869955.9694                   20869954.9064
 -16884544.14847 -13148613.65646  21554931.0474                   21554928.0394
   1614631.42247   1268111.33645  22941640.5234                   22941639.5594
 -14238738.35947 -11086410.17646  22376027.7274                   22376026.9574
  -5581262.86747  -4340280.46943  24422620.7504                   24422620.5434
 -10872668.17648  -8462138.40646  21292042.7114                   21292040.9344
  -2666615.85247  -2070243.72744  23663784.1884                   23663784.4344
 -19236545.41848 -14980759.48047  20537703.9064                   20537700.1374
 11  7 30  1 37  0.0000000  0  9G09G10G12G17G05G25G04G27G02
   -881726.59847   -678353.82844  23412829.4534                   23412829.8914
 -18478997.05948 -14391753.91846  20870758.9774                   20870757.7384
 -16928786.03547 -13183087.85546  21546511.7734                   21546509.6214
   1688254.05947   1325479.59445  22955649.9694                   22955649.5044
 -14314258.24247 -11145256.77745  22361656.7734                   22361655.6024
  -5662210.52746  -4403356.53543  24407216.3284                   24407216.8954
 -10778816.07448  -8389006.91046  21309901.9384                   21309900.7854
  -2582507.22746  -2004704.61743  23679789.5554                   23679789.4384
 -19222526.25448 -14969835.43747  20540371.5784                   20540367.5594
 11  7 30  1 37 30.0000000  0  9G09G10G12G17G05G25G04G27G02
   -783411.33247   -601744.60944  23431538.6804                   23431538.9104
 -18474164.12147 -14387987.97346  20871678.5784                   20871676.7344
 -16972635.74247 -13217256.45746  21538167.7424                   21538165.4304
   1762020.05547   1382959.57445  22969687.8284                   22969686.8594
 -14389544.71547 -11203921.49646  22347330.7274                   22347329.4184
  -5743030.69546  -4466333.28543  24391836.4614                   24391837.1724
 -10684774.83247  -8315728.03146  21327796.9224                   21327796.4224
  -2498286.46547  -1939078.14844  23695815.6414                   23695816.9304
 -19208193.56648 -14958667.10247  20543098.7194                   20543095.2624
 11  7 30  1 38  0.0000000  0  9G09G10G12G17G05G25G04G27G02
   -684884.62947   -524970.61744  23450288.4144                   23450287.9884
 -18468721.03148 -14383746.59046  20872714.3524                   20872712.7234
 -17016095.44948 -13251121.15246  21529897.2114                   21529895.4924
   1835925.11347   1440547.91045  22983751.3834                   22983750.4734
 -14464599.55947 -11262405.73445  22333047.8524                   22333046.7814
  -5823725.38346  -4529212.23843  24376481.1094                   24376481.7584
 -10590550.81647  -8242306.74246  21345727.2664                   21345726.1844
  -2413960.72347  -1873369.87144  23711862.0474                   23711863.7934
 -19193552.85248 -14947258.76247  20545884.8524                   20545881.2774
 11  7 30  1 38 30.0000000  0  9G09G10G12G17G05G25G04G27G02
   -586143.41847   -448029.49644  23469078.2584                   23469078.6644
 -18462660.27348 -14379023.89846  20873867.7584                   20873866.2034
 -17059156.42648 -13284675.14846  21521703.0164                   21521700.9264
   1909976.82847   1498250.53145  22997842.6724                   22997841.9884
 -14539413.03947 -11320701.89146  22318811.2664                   22318810.6054
  -5904285.55946  -4591986.41443  24361150.6564                   24361152.5744
 -10496139.75447  -8168739.69946  21363693.2424                   21363692.6414
  -2329526.27346  -1807576.91044  23727930.2974                   23727931.3284
 -19178598.93748 -14935606.35547  20548730.6254                   20548726.7974
 11  7 30  1 39  0.0000000  0  9G09G10G12G17G05G25G04G27G02
   -487186.57446   -370920.36344  23487908.6564                   23487908.9534
 -18455976.69148 -14373815.89546  20875139.7504                   20875138.3054
 -17101811.15648 -13317912.59846  21513586.1724                   21513584.0864
   1984179.96947   1556071.13745  23011963.9384                   23011962.9884
 -14613977.66047 -11378804.12145  22304621.5704                   22304620.9694
  -5984704.04747  -4654650.14844  24345848.2894                   24345850.3204
 -10401539.39548  -8095025.14846  21381694.7504                   21381694.5514
  -2244981.43846  -1741697.89144  23744018.6414                   23744019.4924
 -19163327.86748 -14923706.81246  20551636.7584                   20551632.9574
 11  7 30  1 39 30.0000000  0  9G09G10G12G17G05G25G04G27G02
   -388022.63346   -293649.82044  23506778.6334                   23506779.7304
 -18448674.19948 -14368125.62146  20876528.9384                   20876526.9924
 -17144062.43448 -13350835.65646  21505545.7034                   21505543.9384
   2058530.33647   1614006.46545  23026111.9144                   23026110.9414
 -14688295.52747 -11436714.07845  22290479.4774                   22290478.7974
  -6064983.48047  -4717205.56243  24330571.8754                   24330573.1054
 -10306756.70748  -8021168.52046  21399731.5164                   21399731.0234
  -2160333.86746  -1675738.86744  23760126.4144                   23760127.6054
 -19147745.69148 -14911564.85247  20554601.8834                   20554598.0434
 11  7 30  1 40  0.0000000  0  9G09G10G12G17G05G25G04G27G02
   -288657.56347   -216222.55944  23525687.6724                   23525687.7234
 -18440754.49248 -14361954.40246  20878036.1884                   20878034.5164
 -17185910.63748 -13383444.64846  21497582.7424                   21497579.6804
   2133025.66047   1672054.75445  23040287.3754                   23040286.8714
 -14762366.40647 -11494431.57845  22276383.9304                   22276383.2934
  -6145123.84847  -4779652.59444  24315321.3054                   24315322.5784
 -10211796.55148  -7947173.60545  21417802.2584                   21417801.1484
  -2075588.94546  -1609703.95743  23776252.6174                   23776253.8914
 -19131856.12548 -14899183.36746  20557625.6804                   20557621.8524
 11  7 30  1 40 30.0000000  0  9G09G10G12G17G05G25G04G27G02
   -189093.28146   -138640.05944  23544634.0704                   23544634.5904
 -18432215.31648 -14355300.48046  20879661.4224                   20879659.2154
 -17227351.47748 -13415736.19946  21489696.3674                   21489693.5234
   2207667.60947   1730217.29745  23054490.8754                   23054490.7114
 -14836185.65247 -11551953.01645  22262337.2814                   22262335.9264
  -6225121.09447  -4841988.14144  24300098.8204                   24300099.4224
 -10116659.46148  -7873040.82445  21435906.0784                   21435905.0984
  -1990748.11746  -1543594.30943  23792397.5784                   23792398.2814
 -19115658.43448 -14886561.77747  20560707.6484                   20560704.1214
 11  7 30  1 41  0.0000000  0  9G09G10G12G17G05G25G04G27G02
    -89336.98446    -60907.95744  23563616.3674                   23563617.6844
 -18423059.48848 -14348166.05146  20881403.3364                   20881401.4144
 -17268387.29348 -13447712.16046  21481887.6644                   21481885.3594
   2282453.46547   1788491.97745  23068722.6254                   23068722.3634
 -14909754.11347 -11609279.02345  22248337.6094                   22248336.4804
  -6304976.42247  -4904213.07044  24284902.5084                   24284904.0474
 -10021351.31248  -7798774.75846  21454043.0474                   21454041.7464
  -1905817.68446  -1477414.88143  23808559.6804                   23808560.8754
 -19099157.53948 -14873703.92646  20563847.9384                   20563844.0634
 11  7 30  1 41 30.0000000  0  9G09G10G12G17G05G25G04G27G02
     10612.09446     16974.33644  23582636.6954                   23582637.4774
 -18413282.36348 -14340547.48846  20883264.1564                   20883261.8054
 -17309010.86747 -13479366.88346  21474157.2344                   21474155.4064
   2357387.57047   1846882.17644  23082982.3914                   23082981.3444
 -14983064.77347 -11666404.15645  22234386.3674                   22234385.7704
  -6384683.11347  -4966322.13744  24269735.2894                   24269736.3244
  -9925870.15248  -7724373.85946  21472211.9844                   21472210.7584
  -1820796.36346  -1411164.60943  23824737.8134                   23824740.3324
 -19082350.36348 -14860607.41047  20567045.6644                   20567042.5634
 11  7 30  1 42  0.0000000  0  9G09G10G12G17G05G25G04G27G02
    110752.74646     95005.95344  23601692.2504                   23601693.0274
 -18402881.03148 -14332442.53946  20885243.4064                   20885241.2974
 -17349217.40648 -13510696.63746  21466506.1644                   21466504.6914
   2432472.96946   1905390.26245  23097270.3914                   23097269.4964
 -15056112.46147 -11723324.37145  22220486.1954                   22220485.3404
  -6464236.31347  -5028311.59844  24254596.5004                   24254597.8874
  -9830215.79748  -7649838.02346  21490414.7974                   21490413.2814
  -1735684.66846  -1344843.91844  23840934.9144                   23840937.0744
 -19065235.84848 -14847271.42247  20570302.9224                   20570298.4304
 11  7 30  1 42 30.0000000  0  9G09G10G12G17G05G25G04G27G02
    211079.54347    173182.59844  23620784.4384                   23620784.7234
 -18391856.26648 -14323851.80146  20887341.1954                   20887338.7344
 -17389006.83648 -13541701.37146  21458934.5864                   21458932.7114
   2507708.07447   1964015.02744  23111587.0634                   23111585.9304
 -15128896.02747 -11780038.77746  22206635.6414                   22206634.8554
  -6543635.35946  -5090180.96544  24239486.5314                   24239488.0594
  -9734391.94548  -7575170.09446  21508649.1724                   21508648.2154
  -1650487.07046  -1278456.32043  23857147.1954                   23857149.5824
 -19047816.46948 -14833697.87547  20573617.7114                   20573613.7274
 11  7 30  1 43  0.0000000  0  9G09G10G12G17G05G25G04G27G02
    311593.77046    251505.28544  23639912.0394                   23639912.2624
 -18380203.19548 -14314771.45346  20889558.6804                   20889556.3164
 -17428372.54748 -13572375.93446  21451443.3594                   21451440.9694
   2583097.61747   2022760.11744  23125933.3984                   23125931.7504
 -15201408.40247 -11836541.86346  22192837.1254                   22192836.0634
  -6622873.40246  -5151924.82444  24224407.5394                   24224409.9064
  -9638396.55948  -7500368.52046  21526916.6024                   21526915.9414
  -1565202.27746  -1212000.73443  23873376.7664                   23873378.9654
 -19030089.00048 -14819884.26646  20576990.7504                   20576987.2234
 11  7 30  1 43 30.0000000  0  9G09G10G12G17G05G25G04G27G02
    412285.93746    329966.62144  23659072.5084                   23659073.1644
 -18367927.24648 -14305205.76246  20891894.5164                   20891892.3794
 -17467317.84848 -13602722.90246  21444032.3674                   21444030.0704
   2658636.58247   2081621.62144  23140307.6644                   23140306.1764
 -15273652.33247 -11892835.77346  22179089.5784                   22179088.2774
  -6701953.69546  -5213545.74643  24209359.3754                   24209361.6134
  -9542237.54348  -7425439.41846  21545215.1254                   21545214.0634
  -1479838.85246  -1145483.86343  23889621.2344                   23889621.8594
 -19012060.47348 -14805836.05946  20580422.0234                   20580417.4844
 11  7 30  1 44  0.0000000  0  9G09G10G12G17G05G25G04G27G02
    513149.65247    408561.64544  23678266.2114                   23678266.7344
 -18355030.29348 -14295156.16046  20894348.7584                   20894347.1174
 -17505842.97748 -13632742.46946  21436701.1334                   21436698.9654
   2734322.37147   2140597.54345  23154710.8444                   23154708.8054
 -15345627.81247 -11948920.50046  22165392.9924                   22165392.1174
  -6780876.48046  -5275043.93444  24194340.9844                   24194342.7624
  -9445919.78548  -7350386.63346  21563543.8204                   21563542.8834
  -1394402.47746  -1078910.18043  23905879.4844                   23905880.3284
 -18993734.93448 -14791556.40647  20583909.2974                   20583905.0474
 11  7 30  1 44 30.0000000  0  9G09G10G12G17G05G25G04G27G02
    614189.80547    487294.16044  23697493.4694                   23697494.5204
 -18341503.48848 -14284615.77746  20896922.9454                   20896920.8914
 -17543937.81648 -13662426.75046  21429451.8204                   21429449.5664
   2810163.80147   2199694.74245  23169143.3754                   23169141.2774
 -15417323.42647 -12004787.14546  22151749.7424                   22151749.1764
  -6859630.92646  -5336411.01244  24179354.1484                   24179356.2854
  -9349437.13748  -7275205.35546  21581904.0704                   21581902.7734
  -1308887.68846  -1012275.34843  23922152.8054                   23922153.4774
 -18975104.79348 -14777039.40247  20587454.2504                   20587449.8524
 11  7 30  1 45  0.0000000  0  9G09G10G12G17G05G25G04G27G02
    715394.90247    566155.20744  23716752.5864                   23716753.5784
 -18327354.42248 -14273590.50846  20899615.2114                   20899613.3524
 -17581607.91447 -13691780.06646  21422283.4304                   21422281.5904
   2886153.36347   2258907.37145  23183603.5864                   23183602.4804
 -15488744.48847 -12060439.85546  22138158.7894                   22138157.8914
  -6938222.52746  -5397651.17643  24164399.0004                   24164400.5664
  -9252799.63348  -7199903.41046  21600293.1884                   21600292.0554
  -1223305.05946   -945587.68043  23938437.9224                   23938439.0824
 -18956179.30948 -14762292.27347  20591055.5164                   20591051.5434
 11  7 30  1 45 30.0000000  0  9G09G10G12G17G05G25G04G27G02
    816766.75447    645146.18743  23736043.1724                   23736044.1954
 -18312577.16448 -14262075.74646  20902426.9534                   20902425.2974
 -17618845.51648 -13720796.36746  21415197.7974                   21415195.4734
   2962296.71547   2318239.84445  23198092.3444                   23198092.9574
 -15559883.36747 -12115872.69546  22124621.5944                   22124620.6134
  -7016643.37146  -5458758.27043  24149476.0554                   24149477.8324
  -9156003.99248  -7124478.25046  21618712.7974                   21618711.9184
  -1137652.30546   -878845.37943  23954737.5314                   23954738.7464
 -18936954.21948 -14747311.67246  20594714.1334                   20594710.2274
 11  7 30  1 46  0.0000000  0  9G09G10G12G17G05G25G04G27G02
    918300.27347    724263.09844  23755364.6414                   23755365.1764
 -18297173.58248 -14250072.93746  20905358.1644                   20905356.4304
 -17655650.73048 -13749475.75046  21408193.8204                   21408191.6134
   3038592.33247   2377690.96945  23212611.0864                   23212611.1724
 -15630738.59447 -12171084.50046  22111138.3914                   22111136.8954
  -7094892.88746  -5519731.89843  24134585.4534                   24134586.5824
  -9059054.26248  -7048933.02745  21637161.9064                   21637160.6644
  -1051934.18046   -812052.11343  23971049.0784                   23971050.9184
 -18917432.78548 -14732100.15247  20598429.0474                   20598424.8164
 11  7 30  1 46 30.0000000  0  9G09G10G12G17G05G25G04G27G02
   1019990.62547    803502.25844  23774715.3914                   23774716.0314
 -18281144.12948 -14237582.43746  20908408.7734                   20908407.3094
 -17692022.05948 -13777817.03546  21401272.6254                   21401270.5514
   3115039.48446   2437260.18744  23227157.5314                   23227158.7974
 -15701308.31247 -12226073.82446  22097709.2814                   22097708.2664
  -7172969.77746  -5580570.98443  24119727.7344                   24119728.4884
  -8961954.01248  -6973270.50045  21655639.1334                   21655637.8484
   -966154.65246   -745211.00443  23987371.6804                   23987373.2934
 -18897617.00448 -14716659.27747  20602199.6564                   20602195.6094
 11  7 30  1 47  0.0000000  0  9G09G10G12G17G05G25G04G27G02
   1121835.75847    882862.01644  23794096.7734                   23794096.5124
 -18264487.00848 -14224602.85546  20911578.6254                   20911576.5394
 -17727956.41048 -13805817.82446  21394434.7114                   21394431.9104
   3191640.09846   2496949.00044  23241734.4064                   23241735.4694
 -15771588.41847 -12280837.48446  22084335.3914                   22084334.2584
  -7250869.88347  -5641272.34443  24104904.0084                   24104904.5474
  -8864703.66448  -6897491.03545  21674145.2894                   21674143.6524
   -880314.90646   -678322.94543  24003706.7194                   24003708.1054
 -18877506.78948 -14700988.96947  20606026.3284                   20606022.6724
 11  7 30  1 47 30.0000000  0  9G09G10G12G17G05G25G04G27G02
   1223832.69947    962340.08643  23813505.0084                   23813505.4104
 -18247201.18048 -14211133.36346  20914867.7344                   20914866.0704
 -17763450.75848 -13833475.75446  21387680.1334                   21387678.2464
   3268395.37946   2556758.31244  23256341.2344                   23256340.7274
 -15841575.63747 -12335372.92246  22071017.3914                   22071015.9774
  -7328590.19547  -5701833.59043  24090114.7034                   24090115.7464
  -8767304.48448  -6821595.59845  21692680.1644                   21692678.1724
   -794417.18046   -611389.74643  24020053.0784                   24020054.2584
 -18857102.34048 -14685089.38347  20609909.1254                   20609905.2734
 11  7 30  1 48  0.0000000  0  9G09G10G12G17G05G25G04G27G02
   1325981.24647   1041936.28544  23832944.0084                   23832943.6024
 -18229283.19148 -14197171.27346  20918277.3524                   20918275.7344
 -17798499.35948 -13860786.34046  21381010.4774                   21381008.6724
   3345308.41847   2616690.55144  23270977.4064                   23270976.4924
 -15911264.06247 -12389675.53146  22057755.6804                   22057754.6994
  -7406124.97747  -5762250.27344  24075360.0784                   24075360.6174
  -8669755.73048  -6745583.59845  21711242.8444                   21711241.0394
   -708461.33246   -544411.23843  24036409.8364                   24036410.9774
 -18836402.00448 -14668959.23847  20613848.2734                   20613844.3284
 11  7 30  1 48 30.0000000  0  9G09G10G12G17G05G25G04G27G02
   1428268.22347   1121640.35544  23852408.6414                   23852409.6334
 -18210742.33647 -14182723.84046  20921805.7734                   20921804.3164
 -17833110.00448 -13887755.66446  21374424.5474                   21374422.4774
   3422370.45347   2676738.84045  23285642.0554                   23285640.4344
 -15980660.18747 -12443750.38346  22044549.8204                   22044548.7234
  -7483481.14847  -5822527.80944  24060639.8754                   24060641.2664
  -8572068.64148  -6669463.82045  21729832.1804                   21729830.7704
   -622459.58646   -477396.99243  24052776.2114                   24052777.1914
 -18815416.33248 -14652606.75447  20617842.2974                   20617837.9964
 11  7 30  1 49  0.0000000  0  9G09G10G12G17G05G25G04G27G02
   1530693.43747   1201452.11344  23871899.9534                   23871900.3204
 -18191575.40647 -14167788.57046  20925453.1644                   20925451.6844
 -17867277.37148 -13914379.57446  21367922.6564                   21367920.2544
   3499584.82847   2736905.84045  23300335.9844                   23300333.1954
 -16049758.30547 -12497593.01646  22031401.0554                   22031400.2934
  -7560653.25447  -5882661.89844  24045954.6644                   24045955.6484
  -8474242.55548  -6593235.73845  21748447.2424                   21748445.9534
   -536411.89846   -410346.91443  24069150.0234                   24069152.0204
 -18794143.46148 -14636030.49247  20621890.0864                   20621885.6914
 11  7 30  1 49 30.0000000  0  9G09G10G12G17G05G25G04G27G02
   1633260.44147   1281374.37144  23891417.6254                   23891418.9884
 -18171775.06248 -14152359.71146  20929221.0944                   20929219.3554
 -17900992.56248 -13940651.13346  21361506.9144                   21361504.4774
   3576958.82847   2797197.21544  23315059.0554                   23315056.5394
 -16118548.66847 -12551195.85246  22018310.4694                   22018309.3404
  -7637631.52347  -5942644.96543  24031305.4144                   24031305.9184
  -8376272.17648  -6516895.19545  21767090.9774                   21767089.4024
   -450313.85545   -343257.66043  24085533.7974                   24085535.6374
 -18772577.45748 -14619225.80547  20625993.8364                   20625990.0664
 11  7 30  1 50  0.0000000  0  9G09G10G12G17G05G25G04G27G02
   1735963.72347   1361402.78944  23910960.8524                   23910962.4024
 -18151343.01247 -14136438.61746  20933109.0554                   20933107.2154
 -17934254.86348 -13966569.80546  21355177.3134                   21355174.6564
   3654490.78947   2857611.72345  23329813.2274                   23329811.2894
 -16187030.28947 -12604558.09446  22005279.3914                   22005277.5864
  -7714415.52347  -6002476.63343  24016693.4454                   24016694.3834
  -8278161.67648  -6440445.46945  21785760.7424                   21785759.6374
   -364170.31345   -276132.94943  24101926.3524                   24101928.5004
 -18750721.40248 -14602195.09447  20630152.9534                   20630149.0594
 11  7 30  1 50 30.0000000  0  9G09G10G12G17G05G25G04G27G02
   1838800.31247   1441535.09843  23930531.1334                   23930531.1994
 -18130278.56248 -14120024.75046  20937117.5864                   20937116.1764
 -17967061.98048 -13992133.77746  21348934.5394                   21348931.8094
   3732182.23847   2918150.48844  23344597.1024                   23344595.6024
 -16255199.76247 -12657677.10946  21992306.7974                   21992305.7854
  -7791002.07847  -6062154.45744  24002119.9534                   24002121.0354
  -8179912.71948  -6363887.85946  21804457.0234                   21804455.9494
   -277983.52345   -208974.52743  24118328.0784                   24118329.1884
 -18728575.94548 -14584938.88347  20634367.1484                   20634363.0704
 11  7 30  1 51  0.0000000  0  9G09G10G12G17G05G25G04G27G02
   1941759.84847   1521763.19944  23950123.4534                   23950123.8444
 -18108589.03148 -14103123.80546  20941244.8284                   20941243.2074
 -17999419.29348 -14017347.25446  21342776.9224                   21342774.4384
   3810025.66047   2978807.70745  23359410.2504                   23359409.3054
 -16323061.87147 -12710556.62146  21979393.2584                   21979391.6334
  -7867395.93047  -6121682.11344  23987582.8204                   23987584.4384
  -8081534.45748  -6287229.48446  21823177.7194                   21823176.8954
   -191763.53946   -141790.24643  24134734.9144                   24134736.8714
 -18706149.64548 -14567463.82047  20638634.7274                   20638630.7584
 11  7 30  1 51 30.0000000  0  9G09G10G12G17G05G25G04G27G02
   2044841.81247   1602086.74244  23969738.9304                   23969739.3284
 -18086270.95747 -14085733.07846  20945492.0004                   20945491.1644
 -18031321.19148 -14042205.86746  21336706.2194                   21336703.8674
   3888024.95347   3039586.36745  23374253.4144                   23374252.1954
 -16390610.56247 -12763191.90646  21966538.9844                   21966537.3324
  -7943591.23047  -6181055.06644  23973084.1644                   23973085.5084
  -7983025.59848  -6210469.35546  21841923.5164                   21841922.9654
   -105509.88746    -74579.69143  24151148.0944                   24151149.9384
 -18683440.06648 -14549768.03546  20642956.2274                   20642952.3714
 11  7 30  1 52  0.0000000  0  9G09G10G12G17G05G25G04G27G02
   2148052.27046   1682510.38744  23989378.8444                   23989380.6724
 -18063314.88748 -14067845.21546  20949860.4924                   20949858.5514
 -18062756.14548 -14066700.61746  21330724.1724                   21330721.9734
   3966190.26647   3100494.40644  23389127.4924                   23389126.3954
 -16457833.33247 -12815573.22746  21953746.9064                   21953745.8484
  -8019575.85947  -6240263.89844  23958625.0554                   23958625.4104
  -7884378.64148  -6133601.61746  21860695.6094                   21860694.6724
    -19215.83246     -7337.66043  24167569.5164                   24167570.7034
 -18660439.19548 -14531845.25446  20647332.9064                   20647329.4064
 11  7 30  1 52 30.0000000  0  9G09G10G12G17G05G25G04G27G02
   2251381.05146   1763026.22344  24009042.1094                   24009043.8874
 -18039727.49648 -14049465.40646  20954348.9454                   20954347.0864
 -18093728.35248 -14090834.79346  21324830.5084                   21324828.0904
   4044514.75047   3161526.43445  23404032.3054                   23404030.8054
 -16524734.41847 -12867703.89146  21941015.7194                   21941014.5354
  -8095354.16847  -6299311.93744  23944204.4774                   23944205.2624
  -7785602.47348  -6056633.18445  21879492.2114                   21879490.8674
     67108.76646     59928.20343  24183996.8674                   24183998.2464
 -18637154.95348 -14513701.68046  20651763.6484                   20651759.7974
 11  7 30  1 53  0.0000000  0  9G09G10G12G17G05G25G04G27G02
   2354827.52746   1843633.76644  24028726.5634                   24028728.2974
 -18015505.64848 -14030591.22346  20958958.2974                   20958956.3484
 -18124233.75448 -14114605.21146  21319025.3364                   21319022.7974
   4123001.57847   3222684.98444  23418968.3284                   23418966.3634
 -16591308.19947 -12919579.51646  21928347.4384                   21928346.1094
  -8170920.67647  -6358194.91844  23929824.3754                   23929825.8794
  -7686696.06348  -5979563.27745  21898313.0084                   21898311.9964
    153464.17246    127218.00844  24200429.4144                   24200432.3204
 -18613585.74248 -14495336.05947  20656249.1484                   20656245.1094
 11  7 30  1 53 30.0000000  0  9G09G10G12G17G05G25G04G27G02
   2458380.87546   1924324.60944  24048432.5944                   24048433.9414
 -17990656.86748 -14011228.52346  20963687.0704                   20963684.9734
 -18154277.05548 -14138015.55546  21313308.1724                   21313306.1684
   4201644.16047   3283964.89844  23433932.6254                   23433930.1094
 -16657559.10547 -12971203.55146  21915740.0864                   21915738.9104
  -8246279.98847  -6416916.44944  23915483.9844                   23915485.5514
  -7587668.68848  -5902399.10545  21917157.7034                   21917156.4804
    239840.15246    194523.88744  24216867.4144                   24216868.8284
 -18589739.90648 -14476754.87547  20660786.5704                   20660782.5354
 11  7 30  1 54  0.0000000  0  9G09G10G12G17G05G25G04G27G02
   2562038.98446   2005097.09044  24068158.5084                   24068160.4884
 -17965180.08248 -13991376.45746  20968534.9454                   20968533.1564
 -18183855.32848 -14161063.54346  21307679.9774                   21307676.9844
   4280443.98447   3345367.33644  23448927.7734                   23448924.7114
 -16723483.29347 -13022572.98446  21903195.1254                   21903194.1094
  -8321428.27747  -6475473.57444  23901183.5164                   23901184.4024
  -7488521.02748  -5825141.19945  21936024.4454                   21936023.4574
    326235.43046    261844.78143  24233307.1254                   24233308.7544
 -18565617.37948 -14457958.09847  20665376.8914                   20665372.7894
 11  7 30  1 54 30.0000000  0  9G09G10G12G17G05G25G04G27G02
   2665801.46946   2085950.87544  24087903.5004                   24087905.2234
 -17939072.19548 -13971032.63346  20973503.1724                   20973501.1414
 -18212963.29748 -14183745.05946  21302140.6954                   21302138.5664
   4359404.15246   3406894.71944  23463953.1564                   23463950.9304
 -16789074.86347 -13073683.25446  21890713.3134                   21890712.0944
  -8396360.16047  -6533862.05144  23886924.8204                   23886926.2464
  -7389252.32848  -5747788.97345  21954915.0084                   21954913.8554
    412649.94946    329180.66043  24249750.6174                   24249752.9574
 -18541216.48848 -14438944.40647  20670020.3674                   20670016.6094
 11  7 30  1 55  0.0000000  0  9G09G10G12G17G05G25G04G27G02
   2769662.97346   2166881.83644  24107667.2664                   24107668.9184
 -17912334.98047 -13950198.41046  20978590.8834                   20978589.6414
 -18241600.61348 -14206059.83246  21296690.8674                   21296688.1604
   4438523.48846   3468546.16444  23479008.7734                   23479008.2774
 -16854333.29747 -13124533.93046  21878295.2344                   21878294.3984
  -8471074.71147  -6592081.19544  23872707.0164                   23872707.6564
  -7289866.33247  -5670345.34045  21973827.3134                   21973825.7424
    499079.06246    396527.89843  24266198.5084                   24266200.7464
 -18516540.34047 -14419716.23046  20674716.1024                   20674712.0864
 11  7 30  1 55 30.0000000  0  9G09G10G12G17G05G25G04G27G02
   2873619.90247   2247887.15644  24127451.2664                   24127451.7034
 -17884968.81248 -13928874.11346  20983798.5784                   20983796.9184
 -18269766.17248 -14228007.01246  21291331.2584                   21291328.5234
   4517802.07047   3530321.66044  23494095.5234                   23494095.7934
 -16919255.77347 -13175122.81646  21865940.3674                   21865939.5234
  -8545569.59447  -6650129.16844  23858531.1174                   23858531.9184
  -7190365.14848  -5592811.94545  21992761.6954                   21992760.5434
    585519.80146    463884.23843  24282647.0314                   24282649.3094
 -18491589.94948 -14400274.36747  20679463.7344                   20679459.8364
 11  7 30  1 56  0.0000000  0  9G09G10G12G17G05G25G04G27G02
   2977676.77747   2328970.34844  24147252.3984                   24147253.8594
 -17856966.05148 -13907053.76246  20989127.3444                   20989125.9534
 -18297449.71948 -14249578.59046  21286063.1724                   21286060.9024
   4597247.97347   3592227.56245  23509214.2974                   23509214.7584
 -16983831.62547 -13225441.60246  21853652.4384                   21853650.8954
  -8619834.27747  -6707997.73844  23844399.0234                   23844399.7234
  -7090742.66447  -5515184.03945  22011719.4064                   22011718.1134
    671977.53946    531253.81643  24299100.0234                   24299102.1914
 -18466358.88748 -14380613.79747  20684265.0554                   20684261.1884
 11  7 30  1 56 30.0000000  0  9G09G10G12G17G05G25G04G27G02
   3081821.23847   2410121.80144  24167070.4384                   24167071.3834
 -17828335.87548 -13884744.52746  20994575.5314                   20994573.7934
 -18324658.08648 -14270779.90246  21280885.9844                   21280882.9104
   4676852.96147   3654257.41845  23524362.7114                   23524363.5394
 -17048067.45348 -13275495.44546  21841428.5634                   21841427.3324
  -8693875.09047  -6765691.87144  23830309.5394                   23830310.7664
  -6991009.89148  -5437470.18445  22030697.7034                   22030696.8284
    758440.52346    598627.53143  24315553.5864                   24315555.3834
 -18440857.21948 -14360742.36747  20689117.9534                   20689113.9694
 11  7 30  1 57  0.0000000  0  9G09G10G12G17G05G25G04G27G02
   3186050.15247   2491339.07044  24186904.1024                   24186905.7974
 -17799078.41048 -13861946.48446  21000143.0704                   21000141.2854
 -18351389.17248 -14291609.30946  21275799.0314                   21275796.5354
   4756617.36347   3716411.49245  23539541.1024                   23539542.2664
 -17111960.10547 -13325281.87946  21829270.3754                   21829268.9494
  -8767689.19547  -6823209.35244  23816263.4454                   23816264.6174
  -6891168.35948  -5359671.59045  22049697.1884                   22049695.8094
    844906.02046    666003.13343  24332008.0164                   24332008.8484
 -18415085.89548 -14340660.82447  20694022.0164                   20694018.1684
 11  7 30  1 57 30.0000000  0  9G09G10G12G17G05G25G04G27G02
   3290359.30547   2572618.86343  24206754.1414                   24206754.8364
 -17769194.52048 -13838660.31646  21005829.6024                   21005828.1094
 -18377641.60948 -14312065.73846  21270802.9774                   21270800.3244
   4836540.71947   3778689.44145  23554750.1334                   23554750.9144
 -17175507.51248 -13374799.28946  21817177.5314                   21817175.9774
  -8841274.78147  -6880548.70744  23802259.8914                   23802261.8874
  -6791220.57048  -5281790.21545  22068716.3754                   22068715.5044
    931370.37546    733377.82443  24348460.6954                   24348462.9694
 -18389046.54748 -14320370.42247  20698977.0554                   20698973.1884
 11  7 30  1 58  0.0000000  0  9G09G10G12G17G05G25G04G27G02
   3394747.44947   2653960.21543  24226618.6024                   24226619.5634
 -17738681.97348 -13814884.29346  21011635.9064                   21011634.2934
 -18403411.74648 -14332146.35946  21265899.3054                   21265896.7504
   4916625.66447   3841093.28545  23569990.2034                   23569989.9924
 -17238704.85248 -13424043.92246  21805151.5004                   21805149.8524
  -8914627.04747  -6937706.25044  23788301.5474                   23788302.9774
  -6691166.63748  -5203826.12145  22087756.0554                   22087754.6994
   1017833.21946    800751.39543  24364914.6884                   24364916.2974
 -18362738.88748 -14299870.93747  20703983.6414                   20703979.6844
 11  7 30  1 58 30.0000000  0  9G09G10G12G17G05G25G04G27G02
   3499208.99247   2735358.74244  24246496.8444                   24246497.0744
 -17707543.97748 -13790620.90646  21017561.2734                   21017560.0124
 -18428699.75048 -14351851.28946  21261087.3754                   21261084.6454
   4996870.05547   3903621.37944  23585259.7344                   23585259.0554
 -17301551.93047 -13473015.62146  21793191.6644                   21793190.8094
  -8987745.97747  -6994682.03544  23774387.6414                   23774387.8164
  -6591010.79748  -5125782.63745  22106815.3754                   22106814.2974
   1104289.29746    868119.67642  24381366.1094                   24381368.9064
 -18336166.39148 -14279165.09847  20709039.6644                   20709035.8244
 11  7 30  1 59  0.0000000  0  9G09G10G12G17G05G25G04G27G02
   3603750.02047   2816819.19143  24266390.2664                   24266390.7774
 -17675771.22748 -13765862.90646  21023607.3054                   21023605.6524
 -18453494.44548 -14371171.82446  21256368.9384                   21256366.3484
   5077283.78146   3966281.44544  23600560.7894                   23600560.2424
 -17364036.68748 -13521704.99246  21781301.4224                   21781300.0124
  -9060619.18047  -7051466.34844  23760520.6174                   23760521.3484
  -6490745.09448  -5047653.53545  22125895.3444                   22125892.9734
   1190745.56245    935488.09443  24397818.4224                   24397820.5204
 -18309320.49248 -14258246.19947  20714148.8204                   20714144.5434
 11  7 30  1 59 30.0000000  0  9G09G10G12G17G05G25G04G27G02
   3708366.32047   2898338.34043  24286298.3984                   24286298.6454
 -17643364.77748 -13740611.12146  21029774.2344                   21029772.5474
 -18477794.68048 -14390107.06646  21251744.2194                   21251742.1414
   5157865.96946   4029072.77044  23615895.4384                   23615893.3954
 -17426157.46947 -13570110.75046  21769480.2034                   21769478.9654
  -9133245.06647  -7108057.89144  23746699.9304                   23746701.3054
  -6390372.53948  -4969441.16445  22144995.0004                   22144994.0004
   1277198.39546   1002853.84443  24414269.7344                   24414271.6214
 -18282203.40648 -14237116.00447  20719308.7894                   20719304.8914
 11  7 30  2  0  0.0000000  0  9G09G10G12G17G05G25G04G27G02
   3813051.37947   2979911.06643  24306218.5394                   24306220.0984
 -17610328.22348 -13714868.32446  21036061.0314                   21036059.1024
 -18501602.00848 -14408658.22746  21247214.3594                   21247212.1994
   5238614.01247   4091993.29344  23631262.8524                   23631260.2584
 -17487914.73847 -13618233.25046  21757727.9694                   21757726.6764
  -9205624.32447  -7164457.23444  23732926.1334                   23732928.3324
  -6289898.20747  -4891149.48045  22164114.5004                   22164113.9654
   1363641.75045   1070212.23443  24430718.8594                   24430721.4574
 -18254819.27748 -14215777.72347  20724520.2584                   20724515.8874
 11  7 30  2  0 30.0000000  0  9G09G10G12G17G05G25G04G27G02
   3917796.89547   3061530.89543  24326150.9064                   24326152.7034
 -17576667.01248 -13688638.79746  21042466.0474                   21042464.6134
 -18524919.14548 -14426827.41446  21242777.0474                   21242774.5044
   5319523.52347   4155039.66045  23646658.8444                   23646657.6134
 -17549310.68047 -13666074.19146  21746045.0474                   21746043.2934
  -9277759.06647  -7220666.05544  23719199.8524                   23719201.5744
  -6189328.76247  -4812783.68045  22183252.5554                   22183251.9264
   1450068.15246   1137557.38743  24447166.1804                   24447169.3524
 -18227174.19148 -14194236.09047  20729780.7194                   20729776.7544
 11  7 30  2  1  0.0000000  0  9G09G10G12G17G05G25G04G27G02
   4022608.63746   3143202.29743  24346096.6484                   24346098.4844
 -17542372.12548 -13661915.50846  21048992.2584                   21048990.8594
 -18547734.82048 -14444605.87146  21238435.7274                   21238433.0704
   5400604.17247   4218219.37145  23662088.1804                   23662086.6374
 -17610333.16448 -13713624.12946  21734432.6724                   21734430.9734
  -9349637.23447  -7276674.94944  23705521.7664                   23705522.8794
  -6088656.44148  -4734337.73445  22202409.7584                   22202409.2854
   1536484.12546   1204894.42243  24463610.5784                   24463613.3634
 -18199259.94548 -14172484.72347  20735092.4304                   20735088.2304
 11  7 30  2  1 30.0000000  0  9G09G10G12G17G05G25G04G27G02
   2552061.97746   1997321.70743  24066261.0784                   24066261.8914
 -19082867.91048 -14862301.82046  20755845.2814                   20755844.2774
 -20145473.46948 -15689597.02046  20934396.0004                   20934394.0004
   3906434.01647   3053930.92644  23377756.5084                   23377756.1804
 -19246406.78547 -14988486.64546  21423098.4304                   21423096.6174
 -10996683.73447  -8560087.75445  23392099.4304                   23392100.3834
  -7563305.00047  -5883414.54345  21921794.0004                   21921793.5204
     47464.84446     44619.50843  24180259.9614                   24180262.9534
 -19746502.40648 -15378128.19547  20440661.9774                   20440657.5274
 11  7 30  2  2  0.0000000  0  9G09G10G12G17G05G25G04G27G02
   2656982.97746   2079078.22743  24086226.2274                   24086228.4304
 -19047320.89848 -14834602.83246  20762609.7504                   20762609.0394
 -20167295.03548 -15706600.82446  20930243.5864                   20930241.2234
   3987843.70347   3117367.05544  23393248.1804                   23393247.9774
 -19306688.57848 -15035459.42646  21411626.9614                   21411625.3284
 -11068054.92247  -8615701.60944  23378517.5084                   23378518.6054
  -7462446.62147  -5804823.58645  21940986.5944                   21940985.6094
    133838.07446    111923.28543  24196696.7194                   24196698.5984
 -19718068.07848 -15355971.57047  20446072.6804                   20446068.4454
 11  7 30  2  2 30.0000000  0  9G09G10G12G17G05G25G04G27G02
   2761954.05146   2160873.80144  24106202.5394                   24106203.6884
 -19011147.89848 -14806416.05946  20769493.2274                   20769492.1884
 -20188616.20348 -15723214.72346  20926186.2814                   20926184.3524
   4069419.06346   3180932.29345  23408770.8834                   23408771.2194
 -19366595.53947 -15082140.12146  21400227.1174                   21400225.5274
 -11139168.16447  -8671114.48844  23364985.0394                   23364986.6024
  -7361497.24247  -5726161.74245  21960196.8284                   21960195.2504
    220186.30146    179207.48843  24213127.6884                   24213130.3134
 -19689374.68748 -15333613.09047  20451533.1954                   20451528.5944
 11  7 30  2  3  0.0000000  0  9G09G10G12G17G05G25G04G27G02
   2866975.00446   2242708.22744  24126187.1024                   24126188.6294
 -18974346.44148 -14777739.60246  20776496.2114                   20776495.2934
 -20209432.00848 -15739434.82446  20922225.2424                   20922222.6334
   4151163.38746   3244629.15244  23424326.6024                   23424326.5704
 -19426121.79348 -15128524.16846  21388899.6884                   21388898.0664
 -11210017.53147  -8726321.73844  23351503.1954                   23351503.7814
  -7260455.52347  -5647427.93745  21979424.1484                   21979423.0204
    306510.18046    246472.78143  24229554.2664                   24229556.6644
 -19660420.25048 -15311051.18447  20457042.9384                   20457038.7304
 11  7 30  2  3 30.0000000  0  9G09G10G12G17G05G25G04G27G02
   2972041.92246   2324578.48043  24146180.7734                   24146183.1954
 -18936917.58648 -14748574.25446  20783618.5234                   20783617.5704
 -20229741.28548 -15755260.22746  20918360.5314                   20918357.7544
   4233076.48046   3308457.52744  23439913.3754                   23439914.2934
 -19485265.46948 -15174610.10246  21377644.6024                   21377642.8284
 -11280601.16847  -8781321.94544  23338071.3054                   23338072.5274
  -7159323.93747  -5568624.12545  21998669.3204                   21998668.1094
    392806.40646    313716.50443  24245976.4144                   24245979.1804
 -19631206.70748 -15288287.38347  20462601.9844                   20462598.1844
 11  7 30  2  4  0.0000000  0  9G09G10G12G17G05G25G04G27G02
   3077144.82846   2406476.76644  24166180.8284                   24166183.1484
 -18898868.77348 -14718925.82446  20790859.4064                   20790857.9384
 -20249548.94548 -15770694.76246  20914591.1484                   20914588.2734
   4315151.68846   3372412.23844  23455532.2894                   23455532.3244
 -19544030.65247 -15220401.10946  21366461.7814                   21366460.4454
 -11350923.06647  -8836118.18745  23324689.6564                   23324690.3754
  -7058110.70347  -5489756.68445  22017929.1414                   22017928.4184
    479065.44546    380931.26643  24262390.5314                   24262393.3054
 -19601741.98848 -15265327.84847  20468209.0474                   20468204.8484
 11  7 30  2  4 30.0000000  0  9G09G10G12G17G05G25G04G27G02
   3182283.05946   2488402.53544  24186188.6254                   24186190.3054
 -18860198.02747 -14688792.76246  20798217.7664                   20798216.9454
 -20268851.09048 -15785735.38746  20910917.7974                   20910915.5704
   4397391.89846   3436495.51244  23471182.7974                   23471181.4964
 -19602412.24648 -15265893.21546  21355352.3984                   21355350.7934
 -11420977.98447  -8890706.40244  23311358.3284                   23311359.5314
  -6956815.18747  -5410825.15245  22037205.4224                   22037204.1644
    565287.10946    448116.95743  24278798.4534                   24278801.1914
 -19572024.61348 -15242171.44547  20473864.1334                   20473860.2114
 11  7 30  2  5  0.0000000  0  9G09G10G12G17G05G25G04G27G02
   3287455.87146   2570355.27344  24206201.8364                   24206204.3014
 -18820903.87547 -14658173.94146  20805695.5474                   20805693.9884
 -20287643.39148 -15800378.73046  20907342.1254                   20907339.3714
   4479800.06647   3500709.66844  23486864.7664                   23486862.6174
 -19660405.76248 -15311082.91446  21344316.6334                   21344315.0784
 -11490761.07847  -8945082.81245  23298079.6644                   23298080.6994
  -6855436.72747  -5331828.97345  22056496.7344                   22056495.5984
    651470.96547    515273.13743  24295198.5784                   24295201.0824
 -19542053.53548 -15218817.35547  20479567.4844                   20479563.1174
 11  7 30  2  5 30.0000000  0  9G09G10G12G17G05G25G04G27G02
   3392654.27347   2652327.96944  24226220.8674                   24226222.4454
 -18780992.33247 -14627074.02746  20813289.9774                   20813288.9694
 -20305929.66048 -15814627.76646  20903862.1804                   20903859.4344
   4562371.04747   3565050.65644  23502577.8054                   23502575.2344
 -19718013.47348 -15355971.99246  21333353.6564                   21333352.5474
 -11560275.03547  -8999249.51244  23284850.9694                   23284852.4224
  -6753982.50447  -5252773.76245  22075802.5944                   22075801.1484
    737609.13746    582393.72343  24311590.0634                   24311593.2704
 -19511835.14848 -15195270.55147  20485317.5634                   20485313.5704
 11  7 30  2  6  0.0000000  0  9G09G10G12G17G05G25G04G27G02
   3497880.60246   2734322.43844  24246244.9534                   24246246.6414
 -18740458.18447 -14595488.97346  20821003.9614                   20821002.4694
 -20323702.28148 -15828476.55946  20900480.1024                   20900477.6294
   4645110.58247   3629523.03544  23518322.0004                   23518320.1374
 -19775227.24248 -15400554.10546  21322466.8134                   21322464.9734
 -11629511.51247  -9053199.98844  23271675.5314                   23271676.6804
  -6652448.42647  -5173656.30145  22095124.2194                   22095122.9734
    823704.80546    649481.15643  24327974.3284                   24327976.2974
 -19481365.19148 -15171527.72347  20491115.7034                   20491111.6334
 11  7 30  2  6 30.0000000  0  9G09G10G12G17G05G25G04G27G02
   3603132.25046   2816336.63344  24266273.6174                   24266275.1524
 -18699301.92647 -14563419.14846  20828835.6954                   20828833.6414
 -20340959.19548 -15841923.48446  20897196.4064                   20897193.9024
   4728019.70746   3694127.52344  23534099.6254                   23534097.3134
 -19832044.17248 -15444826.99646  21311654.8054                   21311653.1724
 -11698467.40647  -9106931.83244  23258553.1334                   23258554.2974
  -6550835.85247  -5094477.66445  22114459.7734                   22114458.2544
    909755.71546    716533.75443  24344348.1254                   24344351.5594
 -19450644.28948 -15147589.34847  20496961.8364                   20496957.7034
 11  7 30  2  7  0.0000000  0  9G09G10G12G17G05G25G04G27G02
   3708406.37146   2898368.32844  24286306.4534                   24286308.6294
 -18657523.85548 -14530864.79746  20836785.5864                   20836784.1684
 -20357698.41448 -15854967.02746  20894011.0474                   20894008.6054
   4811098.67647   3758864.42244  23549909.0004                   23549906.4574
 -19888461.51648 -15488788.52746  21300918.8204                   21300917.4574
 -11767139.84847  -9160442.81244  23245486.0004                   23245486.2274
  -6449146.21947  -5015238.99645  22133810.8204                   22133809.5314
    995759.46546    783549.56343  24360714.7194                   24360716.7344
 -19419673.49648 -15123456.25047  20502855.4384                   20502850.8484
 11  7 30  2  7 30.0000000  0  9G09G10G12G17G05G25G04G27G02
   3813703.04746   2980417.57044  24306344.1564                   24306345.7664
 -18615121.34047 -14497823.85946  20844854.8444                   20844852.3794
 -20373914.52048 -15867602.94546  20890925.0864                   20890923.0434
   4894351.26246   3823736.55944  23565750.5554                   23565750.2344
 -19944473.37148 -15532434.08246  21290259.9924                   21290258.6764
 -11835522.73847  -9213728.18744  23232473.4064                   23232474.5204
  -6347377.65247  -4935938.84445  22153176.4534                   22153175.4184
   1081716.78946    850529.23443  24377072.2974                   24377073.9104
 -19388450.50848 -15099126.64147  20508797.0634                   20508792.5314
 11  7 30  2  8  0.0000000  0  9G09G10G12G17G05G25G04G27G02
   3919012.33246   3062476.66444  24326383.7584                   24326385.8594
 -18572102.01248 -14464302.28146  20853041.2664                   20853038.2664
 -20389613.42248 -15879835.84046  20887937.7344                   20887935.6764
   4977770.81646   3888738.84044  23581624.4694                   23581624.2544
 -20000083.98048 -15575766.98446  21279677.9694                   21279675.8324
 -11903620.24247  -9266791.14144  23219514.4694                   23219515.9734
  -6245538.47747  -4856583.66445  22172556.1954                   22172555.2584
   1167618.48446    917465.55143  24393418.6644                   24393421.6884
 -19356983.20348 -15074606.66047  20514784.8754                   20514781.3484
 11  7 30  2  8 30.0000000  0  8G09G10G12G17G05G25G04G02
   4024330.87546   3144542.98043  24346425.2734                   24346427.0234
 -18528467.03947 -14430300.98446  20861344.9304                   20861341.6804
 -20404793.62148 -15891664.55546  20885049.0704                   20885046.7344
   5061357.65246   3953871.45344  23597530.3054                   23597530.3634
 -20055290.65648 -15618785.13746  21269172.0944                   21269170.5984
 -11971429.82847  -9319629.75844  23206610.8674                   23206612.2664
  -6143630.66447  -4777174.97745  22191949.0004                   22191948.2424
 -19325273.07848 -15049897.46147  20520819.0784                   20520815.1334
 11  7 30  2  9  0.0000000  0  8G09G10G12G17G05G25G04G02
   4129662.46146   3226619.45743  24366469.2504                   24366470.7704
 -18484210.27347 -14395815.18446  20869766.3364                   20869763.7704
 -20419446.34048 -15903082.24246  20882260.6644                   20882258.3984
   5145119.05946   4019140.08644  23613470.1644                   23613468.9964
 -20110084.46148 -15661481.56646  21258745.0864                   21258743.8874
 -12038941.93747  -9372236.58644  23193763.7504                   23193764.8754
  -6041649.04747  -4697708.78545  22211355.9534                   22211354.6524
 -19293314.43048 -15024994.60547  20526901.0084                   20526896.6994
 11  7 30  2  9 30.0000000  0  8G09G10G12G17G05G25G04G02
   4235005.73446   3308705.04343  24386516.0084                   24386516.7974
 -18439330.37548 -14360843.80946  20878306.8524                   20878304.3484
 -20433567.64148 -15914085.84846  20879573.5084                   20879571.1214
   5229057.29746   4084546.50844  23629443.5394                   23629441.4694
 -20164460.70348 -15703852.62946  21248397.8914                   21248396.2464
 -12106151.85947  -9424607.92644  23180973.8674                   23180974.8874
  -5939593.09447  -4618184.66845  22230776.2274                   22230774.9104
 -19261106.23848 -14999897.30147  20533030.1804                   20533025.9144
 11  7 30  2 10  0.0000000  0  8G09G10G12G17G05G25G04G02
   4340352.67646   3390793.52343  24406562.1414                   24406563.7854
 -18393833.08647 -14325391.35246  20886964.6954                   20886961.9104
 -20447161.06248 -15924678.11746  20876986.6254                   20876984.2734
   5313167.71546   4150087.09444  23645449.0634                   23645447.0004
 -20218421.81248 -15745900.20346  21238128.7974                   21238127.8204
 -12173061.67247  -9476745.42644  23168241.7034                   23168242.4574
  -5837469.05948  -4538607.52045  22250209.7664                   22250208.5824
 -19228654.39848 -14974610.14546  20539205.0784                   20539200.9654
 11  7 30  2 10 30.0000000  0  8G09G10G12G17G05G25G04G02
   4445699.00046   3472881.45343  24426609.1024                   24426611.3754
 -18347720.54348 -14289459.50046  20895739.3444                   20895736.6724
 -20460226.46148 -15934858.94146  20874500.5864                   20874497.8014
   5397449.57446   4215761.27044  23661487.5784                   23661484.0634
 -20271966.28148 -15787623.12546  21227940.0944                   21227938.1454
 -12239670.01247  -9528648.02045  23155566.4454                   23155567.2194
  -5735279.90648  -4458979.62145  22269655.8834                   22269654.3484
 -19195961.08248 -14949134.83247  20545426.6024                   20545422.2074
 11  7 30  2 11  0.0000000  0  8G09G10G12G17G05G25G04G02
   4551047.57446   3554971.19143  24446656.0784                   24446658.1884
 -18300987.87947 -14253044.41846  20904632.6484                   20904630.0864
 -20472755.86748 -15944622.10246  20872115.9924                   20872113.6024
   5481908.87946   4281573.69544  23677559.9384                   23677556.5554
 -20325085.61748 -15829014.77746  21217831.6484                   21217830.2114
 -12305968.16847  -9580308.88745  23142950.1564                   23142950.6884
  -5633020.97347  -4379297.35945  22289115.2114                   22289113.8284
 -19163021.73048 -14923467.80546  20551694.6024                   20551690.1604
 11  7 30  2 11 30.0000000  0  8G09G10G12G17G05G25G04G02
   4656385.71546   3637052.76643  24466701.2424                   24466703.7704
 -18253645.58647 -14216154.30146  20913641.4924                   20913638.9344
 -20484757.56647 -15953974.07046  20869832.0634                   20869829.8594
   5566536.38746   4347517.19544  23693663.2734                   23693660.1484
 -20377787.28548 -15870080.97346  21207802.6254                   21207801.0234
 -12371963.16847  -9631733.55145  23130391.5314                   23130392.6334
  -5530703.79347  -4299569.71145  22308585.2034                   22308583.9224
 -19129847.41448 -14897617.68447  20558007.8594                   20558003.4534
 11  7 30  2 12  0.0000000  0  8G09G10G12G17G05G25G04G02
   4761717.32446   3719129.33242  24486745.8754                   24486747.5664
 -18205687.64848 -14178784.46946  20922767.5394                   20922765.1374
 -20496223.16448 -15962908.29746  20867650.6884                   20867648.1804
   5651339.24246   4413597.33244  23709801.1024                   23709798.1054
 -20430061.78548 -15910814.31646  21197855.1564                   21197853.6994
 -12437645.33647  -9682914.43745  23117893.1884                   23117894.4024
  -5428322.56247  -4219792.14845  22328067.8594                   22328066.5784
 -19096431.96948 -14871579.66847  20564366.5474                   20564362.2854
 11  7 30  2 12 30.0000000  0  8G09G10G12G17G05G25G04G02
   4867039.24645   3801198.16042  24506787.5084                   24506789.4494
 -18157115.09048 -14140935.71546  20932010.4064                   20932008.8134
 -20507150.66048 -15971423.22346  20865570.8204                   20865568.4734
   5736317.89846   4479814.40644  23725972.2194                   23725968.5824
 -20481906.52748 -15951212.77346  21187989.5084                   21187988.0234
 -12503011.94547  -9733849.42245  23105454.3594                   23105455.2894
  -5325879.04347  -4139966.03545  22347561.4614                   22347561.4964
 -19062776.49248 -14845354.62946  20570770.8524                   20570766.4654
 11  7 30  2 13  0.0000000  0  8G09G10G12G17G05G25G04G02
   4972340.05146   3883250.71143  24526826.3984                   24526827.4734
 -18107936.84448 -14102615.00046  20941368.6414                   20941366.8714
 -20517547.39847 -15979524.56646  20863592.5864                   20863589.9064
   5821464.29746   4546162.22344  23742175.0944                   23742172.7814
 -20533327.57448 -15991281.09046  21178204.5084                   21178202.6844
 -12568068.57047  -9784542.88345  23093074.0704                   23093075.4144
  -5223382.98047  -4060098.97745  22367066.2194                   22367065.6024
 -19028890.55948 -14818950.00046  20577219.0944                   20577214.6644
 11  7 30  2 13 30.0000000  0  8G09G10G12G17G05G25G04G02
   5077619.35246   3965286.43443  24546861.1644                   24546862.0124
 -18058151.55948 -14063821.25846  20950842.3284                   20950840.4064
 -20527409.20348 -15987209.06646  20861715.7274                   20861712.9534
   5906781.52046   4612643.19944  23758409.9304                   23758408.2154
 -20584319.64548 -16031015.12946  21168500.7894                   21168499.2194
 -12632809.90647  -9834990.66445  23080754.1334                   23080755.7114
  -5120832.84447  -3980189.79345  22386580.8834                   22386580.7234
 -18994772.20348 -14792364.26246  20583711.3204                   20583707.1954
 11  7 30  2 14  0.0000000  0  8G09G10G12G17G05G25G04G02
   5182875.79746   4047304.42243  24566889.7344                   24566892.0314
 -18007758.85548 -14024554.20346  20960431.9304                   20960429.4384
 -20536732.54348 -15994474.00446  20859941.8754                   20859938.9144
   5992271.39546   4679258.68844  23774678.4924                   23774677.1254
 -20634878.75848 -16070411.80146  21158879.9384                   21158878.4384
 -12697231.56247  -9885189.33245  23068495.0944                   23068496.2934
  -5018228.81647  -3900238.65245  22406106.0864                   22406105.9494
 -18960421.40648 -14765597.39546  20590248.0864                   20590243.6994
 11  7 30  2 14 30.0000000  0  8G09G10G12G17G05G25G04G02
   5288109.60246   4129304.67244  24586914.6644                   24586917.7034
 -17956756.67248 -13984812.23846  20970137.3284                   20970134.6884
 -20545513.21948 -16001316.07046  20858270.8754                   20858268.7424
   6077937.30947   4746011.37144  23790980.7504                   23790979.3444
 -20684999.27048 -16109466.71146  21149342.2034                   21149340.8054
 -12761327.68747  -9935134.35245  23056298.4304                   23056299.2544
  -4915569.11747  -3820244.11345  22425641.3284                   22425640.7384
 -18925835.89148 -14738647.63746  20596829.5004                   20596824.7974
 11  7 30  2 15  0.0000000  0  8G09G10G12G17G05G25G04G02
   5393309.34846   4211278.45344  24606933.6884                   24606936.5784
 -17905154.57448 -13944602.79746  20979956.6254                   20979954.5044
 -20553758.15648 -16007740.68746  20856701.6724                   20856699.6524
   6163771.15647   4812894.87944  23807313.8914                   23807314.4454
 -20734687.39848 -16148184.69946  21139886.5634                   21139884.9844
 -12825104.09847  -9984830.24245  23044162.1254                   23044163.3754
  -4812863.44947  -3740213.74245  22445186.1954                   22445184.9344
 -18891024.96148 -14711522.23046  20603454.3364                   20603449.5944
 11  7 30  2 15 30.0000000  0  8G09G10G12G17G05G25G04G02
   5498473.10546   4293224.16844  24626946.1414                   24626948.4304
 -17852951.99647 -13903925.44146  20989890.1414                   20989888.1994
 -20561464.39548 -16013745.53546  20855235.4384                   20855233.1054
   6249774.30946   4879910.34044  23823678.9144                   23823680.4694
 -20783939.12148 -16186562.62546  21130514.4064                   21130512.7584
 -12888556.71947 -10034273.80545  23032086.6414                   23032089.2934
  -4710112.08647  -3660147.76645  22464738.8754                   22464737.2504
 -18855988.65648 -14684221.21546  20610121.1644                   20610116.5164
 11  7 30  2 16  0.0000000  0  8G09G10G12G17G05G25G04G02
   5603606.37547   4375146.12944  24646952.2504                   24646953.9924
 -17800141.85947 -13862774.68046  20999940.3204                   20999937.8674
 -20568622.32048 -16019323.11346  20853873.2664                   20853870.8954
   6335955.69147   4947064.66844  23840078.8204                   23840080.4534
 -20832743.78548 -16224592.19546  21121227.1804                   21121225.4964
 -12951674.49647 -10083456.44545  23020076.1094                   23020077.4184
  -4607307.98447  -3580040.66444  22484301.4844                   22484299.3284
 -18820719.79748 -14656738.97346  20616832.7344                   20616828.1414
 11  7 30  2 16 30.0000000  0  8G09G10G12G17G05G25G04G02
   5708702.96546   4457039.51644  24666951.6254                   24666953.2114
 -17746728.32448 -13821153.73446  21010104.1804                   21010102.1644
 -20575233.27048 -16024474.49646  20852615.3444                   20852612.4184
   6422312.43046   5014355.66844  23856512.0474                   23856513.3054
 -20881102.34848 -16262274.16446  21112025.1484                   21112023.5704
 -13014457.75447 -10132378.43745  23008128.9384                   23008129.8014
  -4504455.60547  -3499895.95344  22503873.6484                   22503872.2424
 -18785222.37948 -14629078.63347  20623587.4064                   20623583.1254
 11  7 30  2 17  0.0000000  0  8G09G10G12G17G05G25G04G02
   5813754.47747   4538897.78943  24686942.3834                   24686944.5084
 -17692718.09848 -13779067.83646  21020382.1644                   21020380.3484
 -20581301.73448 -16029203.15246  20851460.4614                   20851457.7704
   6508839.48046   5081779.34444  23872978.1094                   23872978.5904
 -20929017.68748 -16299610.75446  21102906.8674                   21102905.2114
 -13076909.26247 -10181041.94545  22996245.0474                   22996245.1644
  -4401561.71947  -3419718.92245  22523453.8914                   22523451.9144
 -18749502.99248 -14601245.34046  20630384.5864                   20630380.1604
 11  7 30  2 17 30.0000000  0  8G09G10G12G17G05G25G04G02
   5918761.85246   4620721.63744  24706924.6254                   24706927.3094
 -17638108.74248 -13736515.07046  21030773.4774                   21030771.8244
 -20586822.74248 -16033505.21946  20850409.8054                   20850407.2384
   6595540.65246   5149338.71144  23889475.5554                   23889476.5744
 -20976483.46548 -16336597.03946  21093874.4924                   21093872.9184
 -13139022.63347 -10229441.95345  22984425.0554                   22984426.1484
  -4298624.14547  -3339507.82845  22543042.3444                   22543041.0514
 -18713558.73048 -14573236.82047  20637224.5944                   20637219.8834
 11  7 30  2 18  0.0000000  0  8G09G10G12G17G05G25G04G02
   6023718.46146   4702505.95343  24726897.1644                   24726900.0004
 -17582904.80948 -13693499.02046  21041278.7894                   21041277.6414
 -20591798.23048 -16037382.20346  20849463.0394                   20849460.8444
   6682412.66446   5217031.19144  23906006.9924                   23906006.7304
 -21023501.29748 -16373234.27746  21084927.5474                   21084925.5944
 -13200798.64847 -10277579.07845  22972669.3364                   22972670.7464
  -4195647.60947  -3259266.42245  22562638.2974                   22562637.2544
 -18677394.43748 -14545056.83646  20644106.7974                   20644102.0944
 11  7 30  2 18 30.0000000  0  8G09G10G12G17G05G25G04G02
   6128629.58646   4784254.78544  24746861.6024                   24746863.5044
 -17527099.66447 -13650014.49246  21051898.0394                   21051896.8014
 -20596218.86348 -16040826.84046  20848621.8364                   20848619.2544
   6769463.99246   5284863.42243  23922572.7584                   23922571.2814
 -21070060.52048 -16409514.15246  21076067.3834                   21076065.8244
 -13262226.56247 -10325444.94145  22960980.1024                   22960981.4384
  -4092625.39547  -3178989.36345  22582242.6094                   22582241.2974
 -18641003.51648 -14516700.26247  20651031.4144                   20651027.1994
 11  7 30  2 19  0.0000000  0  8G09G10G12G17G05G25G04G02
   6233480.90646   4865957.06643  24766812.8364                   24766815.8634
 -17470705.84448 -13606071.24646  21062629.2274                   21062627.6764
 -20600094.61748 -16043846.88746  20847884.4614                   20847881.5514
   6856683.43846   5352826.64143  23939170.0314                   23939167.8554
 -21116170.43448 -16445443.91446  21067292.8134                   21067291.4384
 -13323315.01647 -10373046.30945  22949355.2504                   22949356.1214
  -3989570.02047  -3098686.48044  22601853.6334                   22601852.6454
 -18604397.43748 -14488176.02746  20657997.3134                   20657992.8874
 11  7 30  2 19 30.0000000  0  8G09G10G12G17G05G25G04G02
   6338275.22345   4947614.91043  24786754.6414                   24786757.8714
 -17413719.17647 -13561666.03946  21073473.4224                   21073472.2504
 -20603418.66848 -16046437.03946  20847251.7344                   20847249.2854
   6944076.97746   5420925.50443  23955800.6884                   23955797.8984
 -21161822.77048 -16481017.12946  21058605.5234                   21058603.8634
 -13384055.59447 -10420376.61345  22937796.6094                   22937797.7074
  -3886477.42247  -3018354.57045  22621471.0084                   22621470.0744
 -18567571.95348 -14459480.83647  20665004.6954                   20665000.3594
 11  7 30  2 20  0.0000000  0  8G09G10G12G17G05G25G04G02
   6443015.98845   5029231.03942  24806686.8134                   24806689.8954
 -17356134.29747 -13516794.69946  21084431.7584                   21084430.3014
 -20606182.96548 -16048591.02346  20846725.6414                   20846723.4264
   7031651.22746   5489165.16443  23972465.3984                   23972462.6414
 -21207008.95348 -16516227.10946  21050006.6414                   21050004.5744
 -13444439.26647 -10467428.78945  22926306.1644                   22926306.5744
  -3783342.29747  -2937989.54744  22641097.4064                   22641095.0824
 -18530521.73448 -14430610.53946  20672054.9924                   20672050.8364
 11  7 30  2 20 30.0000000  0  8G09G10G12G17G05G25G04G02
   6547693.82045   5110798.07443  24826605.9304                   24826609.3524
 -17297959.22347 -13471463.45746  21095501.8524                   21095500.7424
 -20608393.04748 -16050313.15246  20846304.7814                   20846302.4924
   7119399.89846   5557540.73844  23989164.0704                   23989161.1804
 -21251733.52348 -16551077.39546  21041496.0234                   21041494.1484
 -13504469.91447 -10514205.90645  22914882.7274                   22914882.8794
  -3680172.28147  -2857597.35544  22660729.9694                   22660727.7734
 -18493254.62548 -14401571.21546  20679146.9534                   20679142.9264
 11  7 30  2 21  0.0000000  0  8G09G10G12G17G05G25G04G02
   6652300.17646   5192309.43043  24846512.2504                   24846515.1484
 -17239201.01647 -13425677.84446  21106683.2194                   21106681.7704
 -20610053.44548 -16051606.96146  20845989.3754                   20845986.9964
   7207317.76646   5626048.16044  24005893.8524                   24005891.9614
 -21295999.36748 -16585570.22346  21033072.3914                   21033070.6414
 -13564150.35947 -10560710.12145  22903525.8444                   22903526.9774
  -3576974.68047  -2777183.65644  22680367.9454                   22680365.5514
 -18455776.91048 -14372367.80146  20686278.7504                   20686274.6024
 11  7 30  2 21 30.0000000  0  8G09G10G12G17G05G25G04G02
   6756842.96546   5273771.26243  24866405.9144                   24866408.7894
 -17179850.21147 -13379430.45746  21117977.8284                   21117976.2384
 -20611152.14148 -16052463.07046  20845779.9774                   20845777.6024
   7295415.66046   5694695.84844  24022657.4224                   24022657.0164
 -21339793.62548 -16619695.58646  21024738.4224                   21024736.4144
 -13623467.19147 -10606930.98845  22892238.1884                   22892240.0984
  -3473739.71947  -2696740.84445  22700013.0784                   22700012.0664
 -18418079.03148 -14342992.81246  20693452.5864                   20693448.5004
 11  7 30  2 22  0.0000000  0  7G10G12G17G05G25G04G02
 -17119904.17247 -13332719.24246  21129384.7734                   21129383.3164
 -20611683.75848 -16052877.30946  20845679.0164                   20845676.5124
   7383697.84446   5763487.11344  24039457.7894                   24039456.3714
 -21383110.27348 -16653448.79346  21016495.7194                   21016493.1914
 -13682413.78547 -10652863.35545  22881021.2504                   22881022.6914
  -3370464.41047  -2616266.59845  22719665.0394                   22719664.8874
 -18380158.16848 -14313444.07846  20700668.5084                   20700664.4694
 11  7 30  2 22 30.0000000  0  7G10G12G17G05G25G04G02
 -17059378.87947 -13285556.66446  21140902.4614                   21140901.5274
 -20611661.43448 -16052859.90246  20845683.0474                   20845680.6214
   7472150.30146   5832411.10944  24056289.4614                   24056288.0784
 -21425961.18448 -16686839.07446  21008341.2504                   21008339.4414
 -13741001.71147 -10698516.23845  22869872.4534                   22869872.9964
  -3267164.65647  -2535773.26645  22739322.2274                   22739322.5634
 -18342029.28948 -14283733.25046  20707924.2114                   20707919.8284
 11  7 30  2 23  0.0000000  0  7G10G12G17G05G25G04G02
 -16998269.31247 -13237938.80546  21152531.0634                   21152529.7774
 -20611078.25048 -16052405.46946  20845793.8284                   20845791.5274
   7560779.40646   5901472.69544  24073155.3674                   24073154.3054
 -21468338.26648 -16719860.15246  21000277.3674                   21000275.3594
 -13799222.43747 -10743883.00845  22858792.6884                   22858793.7704
  -3163835.52347  -2455257.03945  22758985.2504                   22758985.7934
 -18303687.80548 -14253856.75846  20715220.0784                   20715216.4304
 11  7 30  2 23 30.0000000  0  7G10G12G17G05G25G04G02
 -16936571.66047 -13189862.71546  21164272.3054                   21164270.0984
 -20609927.60948 -16051508.86746  20846012.7974                   20846010.9104
   7649590.87946   5970676.44544  24090055.9534                   24090054.8204
 -21510233.46148 -16752505.72746  20992304.9694                   20992302.9574
 -13857067.46947 -10788957.01245  22847785.0944                   22847786.4384
  -3060472.58647  -2374714.50045  22778654.4774                   22778654.0944
 -18265128.73048 -14223810.71146  20722557.8364                   20722554.0204
 11  7 30  2 24  0.0000000  0  7G10G12G17G05G25G04G02
 -16874290.75847 -13141332.12146  21176123.4534                   21176121.7624
 -20608211.69148 -16050171.77746  20846339.7814                   20846336.8954
   7738581.24247   6040019.53944  24106989.4454                   24106989.5434
 -21551648.34448 -16784777.03546  20984424.0084                   20984421.9454
 -13914537.65247 -10833738.94945  22836848.8984                   22836849.5314
  -2957080.41047  -2294149.17644  22798329.8444                   22798328.1644
 -18226356.51648 -14193598.58646  20729935.7734                   20729932.1094
 11  7 30  2 24 30.0000000  0  7G10G12G17G05G25G04G02
 -16811425.17647 -13092345.94546  21188086.4774                   21188085.0514
 -20605925.97747 -16048390.70346  20846774.5474                   20846772.2034
   7827754.19947   6109504.93444  24123959.5314                   24123957.7584
 -21592577.53948 -16816669.88346  20976635.3444                   20976633.2934
 -13971627.11747 -10878224.23445  22825985.8204                   22825986.3524
  -2853657.08247  -2213559.60544  22818010.4304                   22818009.3204
 -18187369.57448 -14163219.14147  20737354.9614                   20737351.1374
 11  7 30  2 25  0.0000000  0  7G10G12G17G05G25G04G02
 -16747979.93447 -13042908.08246  21200159.5864                   21200158.2114
 -20603073.40648 -16046167.91446  20847317.1884                   20847315.1684
   7917106.08647   6179129.78544  24140962.4694                   24140961.1484
 -21633022.74248 -16848185.59846  20968938.7974                   20968936.3204
 -14028337.07447 -10922413.76645  22815194.0084                   22815195.0474
  -2750207.51247  -2132949.59844  22837695.7504                   22837694.7464
 -18148172.10948 -14132675.65246  20744813.7584                   20744809.8674
 11  7 30  2 25 30.0000000  0  7G10G12G17G05G25G04G02
 -16683960.53947 -12993022.82846  21212341.9844                   21212340.4774
 -20599657.09047 -16043505.85246  20847967.3054                   20847964.9494
   8006632.86747   6248890.90644  24157998.5394                   24157997.0234
 -21672985.78548 -16879325.60246  20961334.0784                   20961332.3014
 -14084669.00047 -10966308.73845  22804474.1024                   22804475.4494
  -2646736.98447  -2052323.21144  22857385.8204                   22857385.3014
 -18108769.32048 -14101972.16847  20752312.1024                   20752307.9104
 11  7 30  2 26  0.0000000  0  7G10G12G17G05G25G04G02
 -16619364.56247 -12942688.28946  21224634.2194                   21224632.6054
 -20595671.65247 -16040400.30146  20848725.8834                   20848723.5044
   8096338.96147   6318791.75444  24175069.4384                   24175067.2304
 -21712460.42648 -16910085.02746  20953822.1334                   20953820.5124
 -14140616.09847 -11009903.79345  22793827.3524                   22793829.2304
  -2543242.57847  -1971678.22745  22877079.8914                   22877080.0044
 -18069157.96948 -14071106.15646  20759849.9384                   20759845.5354
 11  7 30  2 26 30.0000000  0  7G10G12G17G05G25G04G02
 -16554203.87547 -12891913.71946  21237033.9614                   21237032.5744
 -20591126.34848 -16036858.50446  20849591.0314                   20849588.6024
   8186214.73846   6388824.79744  24192171.9774                   24192170.1024
 -21751454.57448 -16940470.05146  20946402.5634                   20946400.2424
 -14196185.72747 -11053204.74245  22783253.2344                   22783254.1844
  -2439735.22747  -1891023.15244  22896777.3134                   22896777.2274
 -18029349.25848 -14040086.37546  20767424.8984                   20767420.9884
 11  7 30  2 27  0.0000000  0  7G10G12G17G05G25G04G02
 -16488472.39547 -12840694.37146  21249541.8204                   21249540.1644
 -20586012.54748 -16032873.71946  20850563.8524                   20850561.7234
   8276267.52746   6458995.81643  24209308.0314                   24209306.8634
 -21789958.84048 -16970473.34846  20939074.7114                   20939073.1604
 -14251367.84447 -11096203.76246  22772752.6954                   22772753.4574
  -2336208.86347  -1810353.27345  22916477.6724                   22916477.3444
 -17989337.00848 -14008907.98446  20775038.9774                   20775034.9774
 11  7 30  2 27 30.0000000  0  7G10G12G17G05G25G04G02
 -16422171.27347 -12789031.15646  21262158.9304                   21262157.4344
 -20580329.01248 -16028444.98046  20851645.2034                   20851643.2154
   8366498.25446   6529305.47343  24226477.6954                   24226476.5634
 -21827970.51648 -17000092.79746  20931841.3754                   20931839.3554
 -14306159.18747 -11138898.30545  22762326.0004                   22762326.1564
  -2232663.82847  -1729668.82044  22936180.9534                   22936180.9384
 -17949121.37948 -13977571.10946  20782692.0784                   20782687.9614
 11  7 30  2 28  0.0000000  0  7G10G12G17G05G25G04G02
 -16355311.16447 -12736932.35946  21274882.1804                   21274879.7934
 -20574083.92648 -16023578.68046  20852833.8054                   20852832.1804
   8456897.94146   6599746.78943  24243679.3754                   24243678.8204
 -21865496.66448 -17029333.92246  20924700.6884                   20924698.4264
 -14360566.20747 -11181293.34845  22751972.6804                   22751973.5904
  -2129110.23847  -1648977.71944  22955887.2034                   22955885.7074
 -17908712.12148 -13946083.37146  20790381.3134                   20790377.2734
 11  7 30  2 28 30.0000000  0  7G10G12G17G05G25G04G02
 -16287890.39547 -12684396.68446  21287712.0704                   21287709.7734
 -20567272.61748 -16018271.16446  20854129.7894                   20854127.8444
   8547470.28146   6670322.64143  24260915.4224                   24260915.3284
 -21902531.77048 -17058192.41846  20917652.8134                   20917650.8054
 -14414582.92647 -11223384.25845  22741693.2734                   22741694.8244
  -2025545.86347  -1568278.22744  22975594.7114                   22975593.5664
 -17868107.22348 -13914443.17247  20798108.3914                   20798104.5204
 11  7 30  2 29  0.0000000  0  7G10G12G17G05G25G04G02
 -16219902.36348 -12631418.98846  21300649.6564                   21300647.2074
 -20559886.05548 -16012515.39546  20855535.3674                   20855533.5554
   8638223.50046   6741039.40643  24278185.3594                   24278185.7384
 -21939065.62548 -17086660.32046  20910700.5864                   20910698.6764
 -14468198.46147 -11265162.54345  22731490.2734                   22731491.6804
  -1921963.55147  -1487564.77044  22995306.1644                   22995305.0164
 -17827299.27048 -13882644.76646  20805873.8524                   20805869.6294
 11  7 30  2 29 30.0000000  0  7G10G12G17G05G25G04G02
 -16151353.61347 -12578004.37546  21313693.9774                   21313691.3754
 -20551927.96948 -16006314.28546  20857049.7194                   20857047.4024
   8729153.34046   6811893.85543  24295488.9064                   24295489.5944
 -21975100.75848 -17114739.61746  20903843.6094                   20903841.4184
 -14521414.74647 -11306629.73845  22721363.8444                   22721365.2114
  -1818368.63747  -1406841.46944  23015019.4924                   23015017.8554
 -17786293.44548 -13850692.15647  20813676.7274                   20813673.0784
 11  7 30  2 30  0.0000000  0  7G10G12G17G05G25G04G02
 -16082248.23847 -12524156.02046  21326844.4384                   21326841.9304
 -20543400.32048 -15999669.35246  20858672.4304                   20858670.2544
   8820257.38346   6882883.93443  24312825.3444                   24312826.1414
 -22010638.02348 -17142430.96946  20897081.0084                   20897079.0434
 -14574231.84047 -11347785.87545  22711313.4304                   22711313.6524
  -1714765.13747  -1326111.44544  23034734.4694                   23034733.2074
 -17745093.52348 -13818588.30947  20821516.9454                   20821513.1174
 11  7 30  2 30 30.0000000  0  7G10G12G17G05G25G04G02
 -16012581.03147 -12469869.89146  21340101.7664                   21340099.5704
 -20534295.26248 -15992574.49246  20860405.0554                   20860403.3364
   8911542.70746   6954015.35943  24330197.0004                   24330196.8594
 -22045668.47748 -17169727.39846  20890414.7664                   20890412.9264
 -14626640.28147 -11388623.59445  22701340.3204                   22701341.2544
  -1611147.26247  -1245370.23044  23054452.0944                   23054450.8014
 -17703693.66048 -13786328.66046  20829394.9534                   20829391.3134
 11  7 30  2 31  0.0000000  0  7G10G12G17G05G25G04G02
 -15942360.78547 -12415152.81246  21353463.8134                   21353461.9844
 -20524618.94547 -15985034.50046  20862246.5704                   20862244.5354
   9003002.42246   7025282.64143  24347601.7664                   24347601.3874
 -22080196.94548 -17196632.66846  20883844.2194                   20883841.9064
 -14678644.40647 -11429146.25445  22691443.9844                   22691445.2384
  -1507522.64147  -1164623.77344  23074171.7114                   23074170.3484
 -17662101.75048 -13753919.37546  20837309.8594                   20837306.0474
 11  7 30  2 31 30.0000000  0  8G29G10G12G17G05G25G04G02
  -6389033.56657  -4972087.73453  24727656.6024                   24727656.6024
 -15871593.19547 -12360009.23846  21366930.7584                   21366928.3794
 -20514374.36748 -15977051.70346  20864196.1564                   20864193.8914
   9094632.80546   7096682.90243  24365038.2424                   24365037.8404
 -22114225.44148 -17223148.34846  20877368.7424                   20877366.8984
 -14730245.43047 -11469354.82045  22681624.9454                   22681625.3984
  -1403896.08647  -1083875.79744  23093890.9534                   23093889.5474
 -17620322.46148 -13721364.07046  20845260.1094                   20845256.3634
 11  7 30  2 32  0.0000000  0  8G29G10G12G17G05G25G04G02
  -6448353.71547  -5018311.13744  24716367.7584                   24716368.1764
 -15800271.10547 -12304433.57045  21380502.2894                   21380500.3204
 -20503552.15648 -15968618.80946  20866255.6484                   20866253.4494
   9186442.68446   7168223.07844  24382508.9844                   24382507.8404
 -22147743.29348 -17249266.12946  20870990.6094                   20870988.7154
 -14781432.11747 -11509240.50845  22671883.6414                   22671885.2974
  -1300259.78547  -1003120.24644  23113612.1024                   23113610.8714
 -17578348.14548 -13688656.80146  20853247.7504                   20853243.3444
 11  7 30  2 32 30.0000000  0  8G29G10G12G17G05G25G04G02
  -6507751.51647  -5064595.06644  24705065.1414                   24705065.3524
 -15728403.66847 -12248432.96945  21394178.4064                   21394175.6134
 -20492158.35548 -15959740.51646  20868423.5084                   20868421.2424
   9278425.07447   7239897.63744  24400012.6884                   24400011.0354
 -22180755.92648 -17274990.23446  20864708.2344                   20864706.5314
 -14832209.13747 -11548806.98845  22662221.0474                   22662221.6684
  -1196622.22747   -922363.73444  23133333.6024                   23133332.6054
 -17536186.86348 -13655803.84046  20861270.2584                   20861266.8244
 11  7 30  2 33  0.0000000  0  8G29G10G12G17G05G25G04G02
  -6567230.46147  -5110942.22744  24693746.9534                   24693747.4534
 -15655996.98047 -12192012.16446  21407957.3594                   21407954.2504
 -20480196.76648 -15950419.78546  20870699.6024                   20870697.6054
   9370576.23847   7311703.72744  24417549.0554                   24417547.5084
 -22213265.53148 -17300322.36746  20858521.3754                   20858519.9534
 -14882577.85547 -11588055.30545  22652636.5314                   22652637.3094
  -1092988.27746   -841610.00844  23153054.3674                   23153053.6954
 -17493843.38748 -13622808.91046  20869328.4304                   20869324.2894
 11  7 30  2 33 30.0000000  0  8G29G10G12G17G05G25G04G02
  -6626788.71947  -5157351.19544  24682412.9454                   24682413.0204
 -15583051.63348 -12135171.62145  21421838.1094                   21421835.2424
 -20467665.79748 -15940655.39546  20873084.2664                   20873082.0004
   9462897.10547   7383642.09044  24435116.2424                   24435114.6644
 -22245268.93748 -17325260.05546  20852431.6254                   20852429.9414
 -14932534.73047 -11626982.69945  22643130.0554                   22643130.1134
   -989357.88346   -760859.04744  23172774.7584                   23172774.0044
 -17451317.76648 -13589672.05546  20877420.4304                   20877416.6994
 11  7 30  2 34  0.0000000  0  8G29G10G12G17G05G25G04G02
  -6686414.90646  -5203813.09844  24671065.7034                   24671066.7734
 -15509558.51247 -12077904.25045  21435823.5394                   21435820.5274
 -20454553.44548 -15930437.96546  20875579.6254                   20875577.1564
   9555398.40247   7455721.01244  24452719.6884                   24452716.6134
 -22276753.68748 -17349793.59446  20846440.3284                   20846438.5784
 -14982066.52047 -11665578.88345  22633704.2584                   22633705.2814
   -885721.31647   -680103.27044  23192495.7274                   23192495.4844
 -17408600.20348 -13556385.62546  20885549.4844                   20885545.2424
 11  7 30  2 34 30.0000000  0  8G29G10G12G17G05G25G04G02
  -6746109.88346  -5250328.64144  24659706.3054                   24659707.5554
 -15435521.49247 -12020213.05546  21449912.2664                   21449909.5984
 -20440861.30948 -15919768.76646  20878185.1644                   20878182.3954
   9648078.84047   7527939.51244  24470355.7344                   24470353.9304
 -22307719.72748 -17373922.94146  20840547.6724                   20840546.0164
 -15031172.32847 -11703843.10545  22624359.8594                   22624361.2464
   -782080.95747   -599344.55544  23212218.4844                   23212217.6374
 -17365693.19548 -13522951.57446  20893714.7274                   20893710.4064
 11  7 30  2 35  0.0000000  0  8G29G10G12G17G05G25G04G02
  -6805878.31246  -5296901.36744  24648332.9454                   24648333.7664
 -15360947.52747 -11962103.46545  21464103.1024                   21464101.1134
 -20426593.76248 -15908651.18446  20880900.2424                   20880897.6454
   9740933.20347   7600293.57844  24488025.0164                   24488023.9344
 -22338170.66848 -17397650.91446  20834753.0944                   20834751.3674
 -15079854.85547 -11741777.50845  22615095.9224                   22615097.7894
   -678442.96947   -518587.68444  23231940.2424                   23231938.1564
 -17322602.75448 -13489374.59846  20901914.1484                   20901909.9964
 11  7 30  2 35 30.0000000  0  8G29G10G12G17G05G25G04G02
  -6865722.15247  -5343532.86744  24636945.5704                   24636945.4264
 -15285841.35947 -11903579.16845  21478395.4534                   21478393.4264
 -20411752.93448 -15897086.90246  20883724.3984                   20883721.9384
   9833958.99647   7672781.22744  24505727.0784                   24505726.6214
 -22368107.45348 -17420978.25046  20829056.1174                   20829054.5474
 -15128114.32447 -11779382.24645  22605912.3594                   22605913.3484
   -574811.02346   -437835.51644  23251660.4304                   23251658.2664
 -17279332.67248 -13455657.64146  20910148.2504                   20910143.9734
 11  7 30  2 36  0.0000000  0  8G29G10G12G17G05G25G04G02
  -6925633.67246  -5390217.13744  24625544.8444                   24625545.1884
 -15210198.25047 -11844636.50045  21492789.6804                   21492788.0124
 -20396331.33248 -15885070.06646  20886658.6094                   20886656.2664
   9927163.10246   7745407.78544  24523463.3834                   24523462.6844
 -22397521.00848 -17443897.86746  20823458.8524                   20823457.0164
 -15175941.31247 -11816649.97745  22596810.6174                   22596812.2814
   -471179.22346   -357083.45344  23271380.1724                   23271378.8284
 -17235876.75048 -13421795.86346  20918417.9614                   20918413.4384
 11  7 30  2 36 30.0000000  0  8G29G10G12G17G05G25G04G02
  -6985615.77746  -5436956.39543  24614130.3134                   24614130.0864
 -15134023.79348 -11785279.77345  21507285.0864                   21507283.0004
 -20380332.20348 -15872603.19546  20889703.2894                   20889700.8554
  10020541.80146   7818170.39143  24541233.0634                   24541231.5394
 -22426413.28148 -17466411.29346  20817961.1884                   20817958.7034
 -15223337.06647 -11853581.69145  22587791.7974                   22587793.0044
   -367551.92646   -276334.91044  23291100.2584                   23291098.6804
 -17192239.27048 -13387792.61746  20926721.7894                   20926717.4384
 11  7 30  2 37  0.0000000  0  8G29G10G12G17G05G25G04G02
  -7045660.80946  -5483744.67243  24602703.8914                   24602703.3324
 -15057312.71948 -11725504.90645  21521882.4614                   21521880.6524
 -20363747.71148 -15859680.21146  20892859.7274                   20892857.0704
  10114102.41846   7891074.77043  24559037.0164                   24559036.7384
 -22454776.00448 -17488512.08246  20812563.6644                   20812561.3674
 -15270292.01647 -11890169.93045  22578856.8674                   22578857.1214
   -263923.05947   -195585.13744  23310821.0554                   23310819.1414
 -17148414.78948 -13353643.66846  20935061.2664                   20935056.7234
 11  7 30  2 37 30.0000000  0  8G29G10G12G17G05G25G04G02
  -7105772.34446  -5530584.75043  24591264.4304                   24591264.7774
 -14980071.63348 -11665317.03945  21536581.0314                   21536579.1884
 -20346582.26648 -15846304.53146  20896125.6174                   20896123.2074
  10207840.41046   7964117.29743  24576873.9924                   24576874.3094
 -22482611.58248 -17510202.11346  20807266.7424                   20807264.8014
 -15316808.17647 -11926416.26645  22570005.1564                   22570005.3324
   -160297.85947   -114838.26244  23330540.0784                   23330539.2424
 -17104408.32048 -13319352.90246  20943435.2894                   20943430.9694
 11  7 30  2 38  0.0000000  0  8G29G10G12G17G05G25G04G02
  -7165950.57846  -5577476.85542  24579812.4224                   24579812.5864
 -14902303.50447 -11604718.49645  21551379.8444                   21551377.5744
 -20328836.17248 -15832476.39846  20899502.7664                   20899500.6454
  10301755.18446   8037297.62543  24594746.4844                   24594745.9184
 -22509919.42248 -17531480.91847  20802070.2114                   20802068.4654
 -15362884.01648 -11962319.48445  22561237.3284                   22561237.7274
    -56678.28947    -34095.77344  23350257.4304                   23350256.8674
 -17060221.60248 -13284921.68746  20951844.0944                   20951839.4774
 11  7 30  2 38 30.0000000  0  8G29G10G12G17G05G25G04G02
  -7226195.80146  -5624421.21142  24568347.8444                   24568347.6374
 -14824011.40648 -11543711.66845  21566277.7664                   21566276.1094
 -20310510.16048 -15818196.38746  20902990.5634                   20902987.9654
  10395845.39145   8110614.68443  24612649.9224                   24612649.4734
 -22536699.02348 -17552348.10547  20796974.3284                   20796971.9454
 -15408518.37948 -11997878.69545  22552553.2194                   22552553.8134
     46933.52346     46640.66844  23369974.3674                   23369973.2584
 -17015856.80148 -13250351.70746  20960286.2814                   20960281.6764
 11  7 30  2 39  0.0000000  0  8G29G10G12G17G05G25G04G02
  -7286503.04746  -5671413.84043  24556872.3914                   24556872.3054
 -14745193.02747 -11482294.75045  21581276.8054                   21581275.1174
 -20291599.23048 -15803460.59046  20906588.6804                   20906586.2154
  10490115.21546   8184071.65843  24630589.6334                   24630589.0204
 -22562944.39848 -17572799.02347  20791979.9384                   20791977.9804
 -15453704.47348 -12033088.60546  22543954.7734                   22543955.3874
    150541.17646    127373.89844  23389690.2894                   23389689.3484
 -16971310.57448 -13215640.35246  20968762.7344                   20968758.3914
 11  7 30  2 39 30.0000000  0  8G29G10G12G17G05G25G04G02
  -8922300.56646  -6946061.19943  24245590.9534                   24245590.6294
 -16241274.78947 -12648072.75045  21296582.2194                   21296580.6564
 -21847529.80547 -17015874.03146  20610504.9534                   20610502.7274
   9009140.77046   7030065.57043  24348769.0634                   24348767.7934
 -24164082.16448 -18820438.81646  20487293.8134                   20487291.5434
 -17073868.45348 -13295553.99646  22235647.5474                   22235648.3874
  -1321279.59446  -1019499.43444  23109611.9774                   23109611.3484
 -18502008.96948 -14408392.33246  20677480.7034                   20677476.5124
 11  7 30  2 40  0.0000000  0  8G29G10G12G17G05G25G04G02
  -8982741.29347  -6993157.88744  24234089.9534                   24234089.7464
 -16161422.04347 -12585849.83645  21311777.1094                   21311775.7544
 -21827460.67248 -17000235.74246  20614323.6644                   20614321.6884
   9103758.18446   7103793.43443  24366774.9534                   24366771.7934
 -24189266.62948 -18840063.04747  20482501.2584                   20482499.4264
 -17118162.72747 -13330068.97746  22227218.5394                   22227220.1334
  -1217694.41047   -938783.68744  23129324.3134                   23129322.9304
 -18457113.86348 -14373409.12146  20686024.2504                   20686019.5824
 11  7 30  2 40 30.0000000  0  7G29G10G12G05G25G04G02
  -9043246.52347  -7040304.78144  24222575.8134                   24222576.0864
 -16081054.53947 -12523225.79745  21327070.6414                   21327069.0904
 -21806810.82048 -16984144.94946  20618253.5704                   20618251.3204
 -24213917.27348 -18859271.31246  20477810.4534                   20477808.1764
 -17162006.59047 -13364232.98046  22218875.4844                   22218876.2034
  -1114120.75447   -858076.96944  23149034.2344                   23149031.7704
 -18412044.87148 -14338290.42646  20694600.0164                   20694596.1954
 11  7 30  2 41  0.0000000  0  7G29G10G12G05G25G04G02
  -9103812.37147  -7087498.94144  24211050.9924                   24211050.8634
 -16000171.44547 -12460200.03145  21342462.5394                   21342460.9454
 -21785576.94548 -16967599.07046  20622294.3134                   20622291.7504
 -24238029.57048 -18878060.09847  20473221.8134                   20473219.8954
 -17205394.57448 -13398041.76646  22210618.8914                   22210619.5394
  -1010556.37147   -777377.46944  23168741.8524                   23168738.6994
 -18366799.75448 -14303034.47746  20703210.0314                   20703206.0004
 11  7 30  2 41 30.0000000  0  7G29G10G12G05G25G04G02
  -9164433.53547  -7134736.18744  24199514.5314                   24199515.1484
 -15918769.78147 -12396770.16045  21357952.7814                   21357951.5864
 -21763754.28147 -16950594.39846  20626446.8524                   20626445.0004
 -24261597.18748 -18896424.44947  20468736.8834                   20468735.0044
 -17248319.77348 -13431489.93446  22202450.7664                   22202450.8794
   -906997.71947   -696682.44544  23188447.4224                   23188445.0554
 -18321374.73048 -14267638.34446  20711854.3674                   20711850.0084
 11  7 30  2 42  0.0000000  0  7G29G10G12G05G25G04G02
  -9225110.66847  -7182017.05544  24187968.0394                   24187967.7704
 -15836853.69547 -12332939.46545  21373540.4774                   21373539.5904
 -21741343.78948 -16933131.67246  20630711.5314                   20630709.1604
 -24284620.45748 -18914364.63347  20464355.5704                   20464353.6024
 -17290781.37148 -13464576.85946  22194370.4144                   22194370.7894
   -803447.02747   -615993.59443  23208152.1724                   23208150.0864
 -18275772.18048 -14232103.87946  20720532.0634                   20720527.8554
 11  7 30  2 42 30.0000000  0  7G29G10G12G05G25G04G02
  -9285841.19547  -7229339.47744  24176411.0944                   24176411.1214
 -15754423.65647 -12268708.27045  21389226.8054                   21389225.7464
 -21718343.92248 -16915209.69946  20635088.4304                   20635085.8134
 -24307096.10248 -18931878.09847  20460078.8674                   20460077.0354
 -17332775.26648 -13497299.34446  22186379.2274                   22186379.7464
   -699903.17246   -535310.06244  23227856.1724                   23227853.4774
 -18229990.96948 -14196430.19546  20729243.8054                   20729239.5704
 11  7 30  2 43  0.0000000  0  7G29G10G12G05G25G04G02
  -9346633.43447  -7276709.99644  24164842.9534                   24164842.2344
 -15671490.65647 -12204085.16445  21405008.2814                   21405006.9844
 -21694763.20348 -16896835.12146  20639575.6414                   20639573.1844
 -24329031.77748 -18948970.79747  20455904.4844                   20455902.3914
 -17374308.29348 -13529662.69946  22178475.8754                   22178476.2384
   -596375.83247   -454639.40644  23247557.3134                   23247555.5824
 -18184041.33648 -14160625.27346  20737987.6884                   20737983.5354
 11  7 30  2 43 30.0000000  0  7G29G10G12G05G25G04G02
  -9407479.04747  -7324122.11344  24153264.4224                   24153263.9654
 -15588049.78947 -12139066.30945  21420886.8444                   21420884.9694
 -21670594.38348 -16878002.27046  20644174.7734                   20644172.4184
 -24350418.73048 -18965635.92647  20451834.7734                   20451832.8284
 -17415370.82447 -13561659.43746  22170661.7274                   22170662.3244
   -492858.62547   -373976.64144  23267255.8444                   23267255.7774
 -18137916.68748 -14124683.98846  20746765.1254                   20746760.6884
 11  7 30  2 44  0.0000000  0  7G29G10G12G05G25G04G02
  -9468389.34846  -7371584.62144  24141672.9694                   24141673.9224
 -15504115.23447 -12073662.77045  21436858.9144                   21436856.8634
 -21645849.42648 -16858720.48046  20648883.1334                   20648881.2234
 -24371267.93748 -18981882.03147  20447867.0784                   20447865.3244
 -17455972.69147 -13593297.23046  22162935.2034                   22162936.3054
   -389364.55147   -293331.89544  23286950.6564                   23286949.7114
 -18091629.88348 -14088616.33246  20755572.9534                   20755569.0514
 11  7 30  2 44 30.0000000  0  7G29G10G12G05G25G04G02
  -9529348.55147  -7419085.26243  24130073.1484                   24130073.7154
 -15419674.59847 -12007864.87546  21452927.3054                   21452926.4454
 -21620513.57448 -16838978.26646  20653704.8364                   20653702.1644
 -24391562.91448 -18997696.26647  20444004.9144                   20444002.8834
 -17496097.01647 -13624562.89846  22155299.7504                   22155300.7974
   -285879.70347   -212694.35544  23306642.3364                   23306641.3754
 -18045167.33648 -14052411.74246  20764414.8054                   20764410.8914
 11  7 30  2 45  0.0000000  0  7G29G10G12G05G25G04G02
  -9590368.66446  -7466633.36344  24118461.6724                   24118461.9734
 -15334742.85947 -11941684.29345  21469089.8364                   21469088.3754
 -21594599.30148 -16818785.32846  20658636.1564                   20658633.6054
 -24411315.37948 -19013087.77047  20440246.8054                   20440244.5314
 -17535754.23448 -13655464.59446  22147753.0554                   22147754.1454
   -182417.39547   -132074.41444  23326330.3834                   23326328.8324
 -17998542.51248 -14016080.69946  20773287.1564                   20773283.1094
 11  7 30  2 45 30.0000000  0  7G29G10G12G05G25G04G02
  -9651450.12946  -7514229.27744  24106838.2194                   24106838.4614
 -15249323.18047 -11875123.50845  21485344.2034                   21485342.9264
 -21568107.96548 -16798142.72746  20663676.9694                   20663674.7074
 -24430525.07848 -19028056.33647  20436591.0234                   20436589.2664
 -17574943.18748 -13686001.39846  22140295.8594                   22140296.8554
    -78979.45347    -51473.45344  23346014.6414                   23346012.0004
 -17951757.26648 -13979624.66046  20782189.9224                   20782185.8714
 11  7 30  2 46  0.0000000  0  7G29G10G12G05G25G04G02
  -9712590.34446  -7561870.98043  24095203.9384                   24095204.2504
 -15163416.71547 -11808183.41045  21501691.6884                   21501690.2194
 -21541038.16448 -16777049.37146  20668828.6884                   20668825.7974
 -24449189.15648 -19042599.74647  20433039.1254                   20433037.3634
 -17613660.20748 -13716170.46946  22132928.4924                   22132929.0664
     24434.85547     29109.10244  23365693.9454                   23365692.7934
 -17904811.04348 -13943043.19146  20791123.3754                   20791119.4884
 11  7 30  2 46 30.0000000  0  7G29G10G12G05G25G04G02
  -9773791.92246  -7609560.43043  24083556.7114                   24083557.2544
 -15077028.99247 -11740868.30145  21518131.3444                   21518129.4224
 -21513392.32448 -16755507.16446  20674089.2274                   20674087.0164
 -24467309.52748 -19056719.49647  20429591.1094                   20429588.9964
 -17651906.24648 -13745972.54746  22125650.2424                   22125651.3984
    127821.44946    109670.07844  23385367.0704                   23385367.3164
 -17857707.63348 -13906339.23046  20800087.0634                   20800083.3364
 11  7 30  2 47  0.0000000  0  7G29G10G12G05G25G04G02
  -9835040.08646  -7657286.22744  24071901.5234                   24071903.2774
 -14990149.21147 -11673169.77345  21534663.8754                   21534661.6134
 -21485158.04348 -16733506.42646  20679462.0784                   20679459.7034
 -24484872.01648 -19070404.52347  20426248.8674                   20426247.3444
 -17689666.10548 -13775395.78546  22118464.9304                   22118465.3094
    231193.07446    190219.39144  23405037.5164                   23405037.7814
 -17810434.92648 -13869503.34846  20809082.7894                   20809079.0124
 11  7 30  2 47 30.0000000  0  7G29G10G12G05G25G04G02
  -9896335.98846  -7705049.18744  24060237.6484                   24060237.7894
 -14902781.90247 -11605091.33645  21551288.9844                   21551287.1954
 -21456337.40248 -16711048.78146  20684946.4454                   20684944.1374
 -24501877.52348 -19083655.53947  20423012.8364                   20423010.8444
 -17726939.63748 -13804440.06246  22111371.8754                   22111371.9304
    334546.80946    270754.78543  23424706.1804                   23424705.0084
 -17762995.77748 -13832537.77746  20818110.2034                   20818106.3954
 11  7 30  2 48  0.0000000  0  7G29G10G12G05G25G04G02
  -9957687.98846  -7752855.87944  24048563.2034                   24048562.8444
 -14814937.69947 -11536641.30945  21568004.8594                   21568003.7274
 -21426938.91848 -16688140.87546  20690540.5634                   20690538.4454
 -24518333.09448 -19096478.03547  20419881.6334                   20419879.5594
 -17763733.32448 -13833110.43746  22104370.1884                   22104370.2854
    437873.42246    351269.03544  23444367.5004                   23444365.8714
 -17715399.65648 -13795449.88346  20827167.4224                   20827163.4104
 11  7 30  2 48 30.0000000  0  7G29G10G12G05G25G04G02
 -10019094.00046  -7800704.64143  24036877.7734                   24036877.6374
 -14726618.01647 -11467820.78145  21584811.7974                   21584810.6214
 -21396961.84848 -16664782.12146  20696245.0314                   20696242.6094
 -24534237.06648 -19108870.72347  20416855.0084                   20416852.9264
 -17800044.03548 -13861404.46146  22097460.4694                   22097460.7894
    541173.14546    431762.30543  23464025.1414                   23464022.4024
 -17667646.12548 -13758239.34046  20836254.6254                   20836250.6724
 11  7 30  2 49  0.0000000  0  7G29G10G12G05G25G04G02
 -10080551.05946  -7848593.19143  24025182.8914                   24025181.4414
 -14637823.71147 -11398630.41845  21601708.6804                   21601707.4734
 -21366404.49248 -16640971.19946  20702060.2894                   20702057.3954
 -24549586.28948 -19120831.13347  20413934.2034                   20413932.0434
 -17835867.85948 -13889319.09846  22090643.1644                   22090644.0274
    644447.12147    512235.53143  23483677.4534                   23483673.7344
 -17619734.50448 -13720905.60946  20845371.8204                   20845368.3954
 11  7 30  2 49 30.0000000  0  7G29G10G12G05G25G04G02
 -10142054.24647  -7896517.68043  24013479.4384                   24013477.7584
 -14548552.90247 -11329068.74645  21618696.5704                   21618695.3444
 -21335262.86348 -16616704.99246  20707986.2504                   20707983.5704
 -24564375.57448 -19132355.21547  20411119.7734                   20411117.8204
 -17871198.73048 -13916849.59446  22083920.1334                   22083921.1024
    747698.79346    592691.37543  23503325.6174                   23503322.5124
 -17571661.42648 -13683446.05946  20854519.7274                   20854515.8204
 11  7 30  2 50  0.0000000  0  7G29G10G12G05G25G04G02
 -10203606.81646  -7944480.64543  24001765.5634                   24001765.0704
 -14458812.27347 -11259140.98045  21635773.6254                   21635772.2774
 -21303541.52748 -16591987.07446  20714022.8134                   20714020.3014
 -24578608.45348 -19143445.75847  20408411.6414                   20408409.7194
 -17906038.82848 -13943997.68446  22077290.2974                   22077291.2504
    850923.15647    673125.93443  23522969.8054                   23522967.3914
 -17523431.77348 -13645864.51246  20863697.7034                   20863693.8954
 11  7 30  2 50 30.0000000  0  7G29G10G12G05G25G04G02
 -10265210.89147  -7992483.74243  23990042.3754                   23990041.6094
 -14368607.14147 -11188851.27345  21652939.0784                   21652937.6054
 -21271243.71148 -16566819.94146  20720168.2974                   20720166.0204
 -24592286.59448 -19154104.02347  20405808.3984                   20405806.6174
 -17940388.96948 -13970763.99646  22070753.7894                   22070754.5744
    954116.48047    753536.35944  23542606.8284                   23542604.7384
 -17475049.52048 -13608164.03146  20872904.3444                   20872900.6294
 11  7 30  2 51  0.0000000  0  7G29G10G12G05G25G04G02
 -10326863.48847  -8040524.68044  23978310.8984                   23978311.4224
 -14277938.54347 -11118200.42245  21670192.6884                   21670191.1484
 -21238368.00848 -16541202.51246  20726424.3674                   20726422.2274
 -24605407.13348 -19164327.79347  20403311.5634                   20403309.7154
 -17974245.43448 -13997145.61746  22064310.9304                   22064311.7624
   1057280.14547    833923.60544  23562238.0394                   23562236.1564
 -17426513.79748 -13570343.99246  20882140.6564                   20882136.4804
 11  7 30  2 51 30.0000000  0  7G29G10G12G05G25G04G02
 -10388559.94547  -8088599.78544  23966570.3444                   23966569.9654
 -14186804.89847 -11047187.19545  21687534.6884                   21687533.6954
 -21204910.69948 -16515131.88346  20732791.3594                   20732788.8594
 -24617965.40648 -19174113.43747  20400921.7734                   20400919.8094
 -18007602.37148 -14023138.02046  22057963.2194                   22057963.8984
   1160417.14847    914290.12544  23581864.3754                   23581862.0394
 -17377821.32047 -13532401.78946  20891406.4224                   20891402.1644
 11  7 30  2 52  0.0000000  0  7G29G10G12G05G25G04G02
 -10450301.25447  -8136709.84444  23954821.8284                   23954820.7384
 -14095210.28547 -10975814.77345  21704964.6254                   21704963.4064
 -21170873.98848 -16488609.77046  20739268.1334                   20739265.7624
 -24629962.28148 -19183461.62947  20398639.2274                   20398637.2734
 -18040459.78548 -14048741.15645  22051710.4064                   22051710.9304
   1263525.08247    994633.93844  23601485.0554                   23601482.6604
 -17328974.74648 -13494339.50846  20900701.4454                   20900697.8054
 11  7 30  2 52 30.0000000  0  7G29G10G12G05G25G04G02
 -10512090.03547  -8184856.86744  23943062.9774                   23943062.5204
 -14003161.37547 -10904088.35245  21722481.1254                   21722479.1994
 -21136262.38748 -16461639.69946  20745854.6724                   20745852.7074
 -24641400.50848 -19192374.51647  20396462.3834                   20396460.3874
 -18072819.31248 -14073956.36745  22045552.8984                   22045553.1954
   1366599.50046   1074951.64543  23621098.3984                   23621096.5554
 -17279978.84848 -13456160.89146  20910025.3284                   20910021.4304
 11  7 30  2 53  0.0000000  0  7G29G10G12G05G25G04G02
 -10573916.98846  -8233033.63344  23931297.9144                   23931297.4534
 -13910652.23047 -10832003.30945  21740084.9694                   21740083.5904
 -21101067.31248 -16434214.95746  20752552.1334                   20752549.6294
 -24652270.94148 -19200844.95347  20394393.8754                   20394392.0514
 -18104670.69548 -14098775.57445  22039491.5234                   22039492.4964
   1469648.10947   1155249.22744  23640709.5234                   23640707.7194
 -17230825.96548 -13417859.93046  20919378.7274                   20919374.2384
 11  7 30  2 53 30.0000000  0  7G29G10G12G05G25G04G02
 -10635779.37547  -8281238.03944  23919525.7584                   23919524.9924
 -13817683.87547 -10759560.43045  21757776.4224                   21757774.9534
 -21065287.58648 -16406334.66046  20759360.5084                   20759358.4104
 -24662571.00448 -19208870.95347  20392434.0474                   20392431.7274
 -18136010.42248 -14123196.11345  22033527.7894                   22033528.8984
   1572671.96947   1235527.53944  23660313.2664                   23660313.8094
 -17181515.16048 -13379435.91846  20928762.0314                   20928757.9574
 11  7 30  2 54  0.0000000  0  7G29G10G12G05G25G04G02
 -10697693.93746  -8329483.09044  23907743.9304                   23907743.9414
 -13724276.23048 -10686775.26645  21775551.5474                   21775549.2274
 -21028941.88748 -16378013.33646  20766277.0634                   20766274.6484
 -24672317.44948 -19216465.55947  20390579.2114                   20390577.0314
 -18166854.20748 -14147230.19945  22027658.4534                   22027659.7234
   1675652.83247   1315772.35244  23679909.6804                   23679911.0664
 -17132064.86348 -13340903.21946  20938172.4694                   20938168.5784
 11  7 30  2 54 30.0000000  0  7G29G10G12G05G25G04G02
 -10759654.30546  -8377763.82444  23895953.0784                   23895953.1414
 -13630426.38348 -10613645.50845  21793410.5634                   21793409.0234
 -20992025.15648 -16349247.05146  20773302.1804                   20773299.7304
 -24681504.05148 -19223623.92247  20388830.7584                   20388828.8364
 -18197194.77348 -14170872.16845  22021884.8284                   22021885.5704
   1778595.63346   1395987.49244  23699498.2584                   23699500.0704
 -17082470.41448 -13302258.19146  20947610.0634                   20947605.6994
 11  7 30  2 55  0.0000000  0  7G29G10G12G05G25G04G02
 -10821652.60546  -8426074.11744  23884154.0784                   23884154.9654
 -13536130.14148 -10540167.93045  21811354.6094                   21811352.4304
 -20954530.68448 -16320030.58646  20780437.2034                   20780434.6334
 -24690123.67648 -19230340.48847  20387190.8524                   20387188.1174
 -18227023.42648 -14194115.25045  22016208.8204                   22016209.4224
   1881506.34847   1476177.66043  23719081.5864                   23719082.3834
 -17032725.86748 -13263496.20746  20957075.9144                   20957071.5204
 11  7 30  2 55 30.0000000  0  7G29G10G12G05G25G04G02
 -10883687.58246  -8474412.96544  23872349.3524                   23872349.9534
 -13441390.02348 -10466344.46945  21829382.7734                   21829380.8014
 -20916459.18448 -16290364.48846  20787681.7734                   20787679.6334
 -24698174.98048 -19236614.20347  20385658.6094                   20385656.4264
 -18256338.23048 -14216957.93445  22010630.3754                   22010630.6024
   1984384.65247   1556342.55544  23738659.5234                   23738659.0434
 -16982831.85248 -13224617.75446  20966570.6024                   20966566.0784
 11  7 30  2 56  0.0000000  0  7G29G10G12G05G25G04G02
 -10945761.96946  -8522782.51244  23860537.1174                   23860537.1764
 -13346212.62147 -10392180.25845  21847494.0004                   21847492.6564
 -20877814.49248 -16260251.75046  20795035.8754                   20795033.3914
 -24705660.73848 -19242447.23447  20384233.8364                   20384232.0164
 -18285141.12148 -14239401.72745  22005149.2194                   22005149.4924
   2087226.13347   1636478.70743  23758229.4534                   23758228.3754
 -16932792.96948 -13185626.41446  20976092.2504                   20976088.3054
 11  7 30  2 56 30.0000000  0  7G29G10G12G05G25G04G02
 -11007874.52746  -8571181.84444  23848717.8444                   23848717.8244
 -13250600.06247 -10317676.96145  21865688.6174                   21865686.5514
 -20838597.43748 -16229693.01646  20802498.7344                   20802496.3714
 -24712580.38748 -19247839.14547  20382917.2584                   20382915.2774
 -18313430.09448 -14261445.05945  21999765.5784                   21999766.6564
   2190030.30147   1716585.79743  23777792.7584                   23777791.5124
 -16882610.09048 -13146522.86346  20985641.8444                   20985637.7704
 11  7 30  2 57  0.0000000  0  7G29G10G12G05G25G04G02
 -11070023.46546  -8619609.52044  23836891.8674                   23836890.6994
 -13154554.31648 -10242836.10945  21883965.3984                   21883962.8754
 -20798808.19548 -16198688.41046  20810070.2194                   20810067.6294
 -24718933.01248 -19252789.21947  20381708.0554                   20381706.2704
 -18341202.94948 -14283086.20745  21994480.9064                   21994481.6134
   2292797.13347   1796663.84443  23797349.4144                   23797348.2154
 -16832282.98848 -13107306.93046  20995218.8914                   20995214.6914
 11  7 30  2 57 30.0000000  0  7G29G10G12G05G25G04G02
 -11132210.20746  -8668066.64544  23825058.0084                   23825057.5744
 -13058080.22747 -10167661.49645  21902323.6564                   21902321.6564
 -20758449.53548 -16167240.09846  20817750.3674                   20817747.9064
 -24724719.70348 -19257298.30547  20380607.0944                   20380605.1054
 -18368459.98448 -14304325.44145  21989293.8054                   21989293.8284
   2395523.92247   1876710.70743  23816896.4924                   23816896.3484
 -16781814.44548 -13067980.78146  21004822.2424                   21004818.5664
 11  7 30  2 58  0.0000000  0  7G29G10G12G05G25G04G02
 -11194430.10947  -8716549.59844  23813217.3284                   23813216.9534
 -12961177.16847 -10092152.63345  21920763.7734                   21920762.2154
 -20717517.70748 -16135345.16846  20825539.2814                   20825536.7344
 -24729936.41048 -19261363.24247  20379614.6094                   20379612.2854
 -18395196.03948 -14325158.70345  21984206.3834                   21984206.8634
   2498213.63346   1956728.64844  23836438.3524                   23836437.7814
 -16731202.02048 -13028542.51246  21014454.0634                   21014450.0124
 11  7 30  2 58 30.0000000  0  7G29G10G12G05G25G04G02
 -11256680.95747  -8765056.65244  23801371.3134                   23801371.8794
 -12863846.67247 -10016310.68045  21939285.0474                   21939283.6174
 -20676013.86348 -16103004.51646  20833436.7114                   20833434.4104
 -24734581.32848 -19264982.63747  20378730.2034                   20378728.2304
 -18421408.25848 -14345583.78145  21979218.4924                   21979218.1684
   2600867.07446   2036718.31644  23855973.2194                   23855971.9534
 -16680445.51248 -12988991.96946  21024112.5314                   21024108.6684
 11  7 30  2 59  0.0000000  0  7G29G10G12G05G25G04G02
 -11318960.54347  -8813586.11344  23789519.7194                   23789520.0234
 -12766090.01647  -9940136.67245  21957888.4454                   21957885.9064
 -20633936.85548 -16070217.24246  20841444.0084                   20841441.4844
 -24738652.74248 -19268155.14147  20377955.7034                   20377953.7424
 -18447093.65248 -14365598.35246  21974330.6644                   21974331.4844
   2703484.74647   2116680.07844  23875501.5394                   23875499.2584
 -16629544.10548 -12949328.52346  21033798.7424                   21033794.8404
 11  7 30  2 59 30.0000000  0  7G29G10G12G05G25G04G02
 -11381273.70347  -8862141.74244  23777662.0234                   23777661.6294
 -12667915.69147  -9863637.17645  21976569.9694                   21976567.4964
 -20591293.45348 -16036988.62546  20849558.7814                   20849556.3324
 -24742156.35248 -19270885.20347  20377289.1564                   20377286.6454
 -18472256.67248 -14385205.86346  21969542.5944                   21969542.3674
   2806059.92246   2196608.74643  23895019.9384                   23895018.1564
 -16578504.65648 -12909557.50846  21043511.1414                   21043507.2114
 11  7 30  3  0  0.0000000  0  7G29G10G12G05G25G04G02
 -11443617.02047  -8910720.86744  23765798.6724                   23765797.2234
 -12569324.52747  -9786812.87545  21995331.2114                   21995329.0944
 -20548082.12548 -16003317.46146  20857781.5634                   20857779.2584
 -24745089.16448 -19273170.48847  20376730.8754                   20376728.7774
 -18496893.52048 -14404403.39546  21964853.9064                   21964854.6644
   2908594.46946   2276505.76243  23914530.5944                   23914529.4804
 -16527325.95348 -12869677.98046  21053250.1804                   21053246.1644
 11  7 30  3  0 30.0000000  0  7G29G10G12G05G25G04G02
 -11505987.34847  -8959321.05944  23753929.9924                   23753928.7664
 -12470316.93447  -9709664.09845  22014170.8984                   22014169.8444
 -20504301.27348 -15969202.52746  20866112.9534                   20866110.4884
 -24747448.77048 -19275009.11347  20376281.9224                   20376279.7704
 -18521000.22748 -14423187.80546  21960266.4454                   21960267.3054
   3011089.86346   2356372.31643  23934034.2344                   23934034.1254
 -16476006.21948 -12829688.58246  21063015.9534                   21063011.7734
 11  7 30  3  1  0.0000000  0  7G29G10G12G05G25G04G02
 -11568389.23047  -9007945.81644  23742055.0634                   23742054.6844
 -12370901.35247  -9632197.43045  22033089.6884                   22033088.3524
 -20459957.64548 -15934649.04746  20874551.5234                   20874548.7974
 -24749240.40648 -19276405.17247  20375940.9384                   20375938.7114
 -18544581.04348 -14441562.44546  21955779.3754                   21955780.0824
   3113540.09446   2436203.66043  23953530.5084                   23953529.9184
 -16424552.11748 -12789594.45746  21072807.5314                   21072802.9844
 11  7 30  3  1 30.0000000  0  7G29G10G12G05G25G04G02
 -11630819.40247  -9056592.62144  23730174.4534                   23730173.9654
 -12271077.81247  -9554412.86345  22052085.1954                   22052083.5784
 -20415049.71148 -15899655.85546  20883096.8364                   20883094.5744
 -24750460.94948 -19277356.22747  20375708.7114                   20375706.1644
 -18567631.95748 -14459524.17246  21951393.2504                   21951393.0394
   3215946.95347   2516001.16044  23973018.6334                   23973017.1414
 -16372961.80548 -12749394.21146  21082624.8204                   21082620.4304
 11  7 30  3  2  0.0000000  0  7G29G10G12G05G25G04G02
 -11693277.09447  -9105260.90644  23718289.7274                   23718289.8324
 -12170849.98847  -9476313.26645  22071158.2734                   22071155.6214
 -20369579.29348 -15864224.36746  20891749.5084                   20891747.2544
 -24751110.85248 -19277862.61747  20375584.8284                   20375582.5784
 -18590152.16448 -14477072.36346  21947107.5084                   21947107.8554
   3318309.02347   2595763.75443  23992498.2664                   23992495.4804
 -16321236.71948 -12709088.95346  21092467.9064                   21092463.2194
 11  7 30  3  2 30.0000000  0  7G29G10G12G05G25G04G02
 -11755763.66047  -9153951.64544  23706398.8284                   23706398.2344
 -12070222.93047  -9397902.57845  22090307.0394                   22090304.9264
 -20323549.51648 -15828357.01646  20900509.1334                   20900506.6134
 -24751192.04748 -19277925.85947  20375569.3674                   20375567.1174
 -18612142.34448 -14494207.55146  21942923.0474                   21942923.8014
   3420623.75046   2675489.46943  24011966.3444                   24011964.8634
 -16269380.04348 -12668681.13746  21102335.4924                   21102331.3524
 11  7 30  3  3  0.0000000  0  7G29G10G12G05G25G04G02
 -11818267.11347  -9202655.60244  23694504.8984                   23694503.8834
 -11969188.52347  -9319174.48445  22109533.0704                   22109531.1764
 -20276950.35248 -15792045.98846  20909376.7194                   20909374.0434
 -24750693.60548 -19277537.44547  20375664.3674                   20375662.1094
 -18633590.39548 -14510920.28946  21938841.3754                   21938842.1454
   3522901.29746   2755186.25443  24031429.8524                   24031428.2774
 -16217381.66848 -12628162.91846  21112230.5394                   21112225.9804
 11  7 30  3  3 30.0000000  0  7G29G10G12G05G25G04G02
 -11880795.92247  -9251379.28144  23682605.4304                   23682604.8834
 -11867759.61347  -9240138.98045  22128834.5084                   22128832.6454
 -20229793.05148 -15755300.03946  20918350.4534                   20918347.8054
 -24749624.96548 -19276704.71547  20375867.7424                   20375865.3284
 -18654504.53548 -14527217.00446  21934861.6174                   21934861.8094
   3625131.34847   2834846.02043  24050883.1564                   24050881.2974
 -16165252.07048 -12587542.43746  21122150.1254                   21122145.7154
 11  7 30  3  4  0.0000000  0  7G29G10G12G05G25G04G02
 -11943344.82047  -9300118.60544  23670702.5474                   23670702.2194
 -11765934.27347  -9160794.55545  22148211.2034                   22148209.5704
 -20182073.41848 -15718115.91846  20927430.7344                   20927429.0784
 -24747981.41048 -19275423.99647  20376180.5084                   20376178.1914
 -18674878.85548 -14543093.09046  21930984.2894                   21930984.7544
   3727317.90646   2914471.89143  24070329.1884                   24070327.0514
 -16112987.79747 -12546817.02046  21132095.9774                   21132091.8284
 11  7 30  3  4 30.0000000  0  7G29G10G12G05G25G04G02
 -12005915.02347  -9348874.52344  23658795.6174                   23658795.9844
 -11663717.86347  -9081145.39844  22167662.6804                   22167660.4454
 -20133795.75048 -15680496.97346  20936617.9694                   20936615.7344
 -24745764.85248 -19273696.78947  20376601.9774                   20376600.2774
 -18694714.50048 -14558549.40646  21927209.7344                   21927210.0704
   3829458.05146   2994061.56643  24089766.0944                   24089765.0984
 -16060592.05948 -12505989.16846  21142066.5164                   21142061.9774
 11  7 30  3  5  0.0000000  0  7G29G10G12G05G25G04G02
 -12068503.77747  -9397644.93044  23646886.2344                   23646885.9574
 -11561111.30147  -9001192.24244  22187187.8524                   22187185.6884
 -20084959.37948 -15642442.66846  20945911.0234                   20945908.8134
 -24742973.56248 -19271521.73847  20377133.3134                   20377131.2704
 -18714008.50448 -14573583.66846  21923538.0004                   21923538.8794
   3931552.73846   3073615.83243  24109192.9924                   24109193.0824
 -16008063.51648 -12465057.83646  21152062.4064                   21152057.9264
 11  7 30  3  5 30.0000000  0  7G29G10G12G05G25G04G02
 -12131111.29747  -9446429.93745  23634972.6484                   23634972.5864
 -11458119.03947  -8920938.54345  22206786.2034                   22206784.4844
 -20035566.53148 -15603954.74646  20955310.5864                   20955307.9344
 -24739609.18448 -19268900.11747  20377773.6174                   20377771.2974
 -18732760.80548 -14588195.82846  21919969.6334                   21919970.2894
   4033599.98045   3153133.19143  24128611.4144                   24128613.2854
 -15955404.25048 -12424024.64146  21162083.1724                   21162079.1024
 11  7 30  3  6  0.0000000  0  7G29G10G12G05G25G04G02
 -12193732.39847  -9495225.53944  23623055.3524                   23623055.5314
 -11354739.67647  -8840383.19944  22226458.0474                   22226456.9734
 -19985614.48448 -15565031.07046  20964816.0004                   20964813.5944
 -24735667.09048 -19265828.34047  20378523.6334                   20378521.4224
 -18750966.06248 -14602381.71946  21916505.4844                   21916505.9614
   4135603.57446   3232616.52743  24148021.4534                   24148023.8094
 -15902611.44948 -12382887.39146  21172129.1724                   21172124.8284
 11  7 30  3  6 30.0000000  0  7G29G10G12G05G25G04G02
 -12256370.10547  -9544034.08244  23611135.8674                   23611134.8674
 -11250980.44147  -8759531.85545  22246203.3524                   22246201.5274
 -19935108.48448 -15525675.75446  20974426.7344                   20974424.1764
 -24731151.64848 -19262309.78947  20379382.7344                   20379380.5274
 -18768627.20348 -14616143.62546  21913144.4614                   21913145.0004
   4237558.71146   3312062.05543  24167424.3674                   24167424.7304
 -15849689.94548 -12341649.84846  21182200.0314                   21182195.3444
 11  7 30  3  7  0.0000000  0  7G29G10G12G05G25G04G02
 -12319023.99647  -9592855.26244  23599212.9694                   23599212.2424
 -11146844.94947  -8678387.32445  22266019.5784                   22266017.8754
 -19884050.82447 -15485890.57046  20984142.6024                   20984140.3244
 -24726063.31648 -19258344.83647  20380351.1884                   20380348.6764
 -18785743.76648 -14629481.19146  21909887.1804                   21909888.0314
   4339464.16446   3391468.88343  24186816.4144                   24186815.8164
 -15796641.35248 -12300313.27346  21192294.8984                   21192290.3594
 11  7 30  3  7 30.0000000  0  7G29G10G12G05G25G04G02
 -12381695.94147  -9641690.48044  23587287.6024                   23587286.4184
 -11042338.98447  -8596954.11345  22285906.8754                   22285905.2734
 -19832445.42247 -15445678.58646  20993963.0474                   20993960.3324
 -24720405.20748 -19253935.90247  20381427.8594                   20381425.3674
 -18802317.31648 -14642395.62946  21906733.8524                   21906733.6524
   4441316.60546   3470834.39143  24206197.4844                   24206197.6684
 -15743468.85548 -12258880.14546  21202412.9384                   21202409.1214
 11  7 30  3  8  0.0000000  0  7G29G10G12G05G25G04G02
 -12444378.38747  -9690533.89844  23575358.1564                   23575358.5124
 -10937459.19947  -8515229.62145  22305864.7894                   22305863.3094
 -19780287.37947 -15405035.96946  21003888.0554                   21003885.7194
 -24714170.93448 -19249078.00447  20382614.0944                   20382611.7664
 -18818340.51648 -14654881.21546  21903684.0704                   21903685.0204
   4543121.69146   3550162.96943  24225570.6804                   24225570.0044
 -15690167.10547 -12217346.30146  21212555.8984                   21212552.1054
 11  7 30  3  8 30.0000000  0  7G29G10G12G05G25G04G02
 -12507064.98847  -9739380.52344  23563430.1884                   23563430.2894
 -10832202.87547  -8433211.70344  22325894.6094                   22325892.7114
 -19727572.34048 -15363959.32446  21013919.4694                   21013917.0784
 -24707355.19948 -19243767.01247  20383911.4454                   20383909.0394
 -18833806.73848 -14666932.80546  21900741.5784                   21900741.6524
   4644884.14546   3629458.33643  24244935.4694                   24244935.1294
 -15636731.57047 -12175708.20746  21222724.5234                   21222720.3014
 11  7 30  3  9  0.0000000  0  7G29G10G12G05G25G04G02
 -12569760.21147  -9788233.87144  23551500.3364                   23551499.6094
 -10726578.87947  -8350907.28944  22345993.6724                   22345991.8324
 -19674307.81648 -15322454.50846  21024055.6564                   21024053.1524
 -24699963.60948 -19238007.32047  20385317.6954                   20385315.3634
 -18848720.68448 -14678554.04746  21897903.2424                   21897903.4184
   4746597.92646   3708715.76643  24264291.5554                   24264291.9804
 -15583168.80548 -12133970.97746  21232917.2734                   21232913.2384
 11  7 30  3  9 30.0000000  0  7G29G10G12G05G25G04G02
 -12632460.39147  -9837091.09044  23539568.6094                   23539567.8244
 -10620587.57847  -8268316.65644  22366163.5474                   22366160.9104
 -19620492.89848 -15280520.81646  21034296.2274                   21034293.9734
 -24691994.10548 -19231797.29747  20386834.1564                   20386831.7974
 -18863078.74648 -14689742.13746  21895170.6024                   21895172.1024
   4848264.94546   3787936.79743  24283638.3594                   24283639.0554
 -15529477.15248 -12092133.32046  21243134.1414                   21243130.1484
 11  7 30  3 10  0.0000000  0  7G29G10G12G05G25G04G02
 -12695167.03947  -9885953.35244  23527635.2584                   23527635.1994
 -10514234.41347  -8185444.05644  22386400.7584                   22386399.7704
 -19566131.35548 -15238161.17646  21044640.8754                   21044638.4104
 -24683449.43448 -19225139.08647  20388460.2344                   20388457.6054
 -18876882.49648 -14700498.28946  21892544.2344                   21892544.3554
   4949881.87946   3867118.83643  24302974.7664                   24302976.9184
 -15475659.94948 -12050197.84046  21253375.4144                   21253370.8874
 11  7 30  3 10 30.0000000  0  7G29G10G12G05G25G04G02
 -12757883.13347  -9934822.95344  23515700.5944                   23515700.1024
 -10407526.75447  -8102295.23044  22406707.3364                   22406706.0234
 -19511228.67648 -15195379.88746  21055088.5474                   21055086.0904
 -24674333.71548 -19218035.90647  20390194.9534                   20390192.5864
 -18890135.07448 -14710824.96546  21890022.1174                   21890022.5044
   5051444.33646   3946258.46543  24322301.8364                   24322302.8284
 -15421721.94148 -12008168.21946  21263639.6174                   21263634.8014
 11  7 30  3 11  0.0000000  0  7G29G10G12G05G25G04G02
 -12820606.83247  -9983698.48045  23503764.9224                   23503764.2974
 -10300466.74247  -8018871.84044  22427080.1724                   22427078.4144
 -19455785.68047 -15152177.55546  21065638.8364                   21065636.4064
 -24664646.39148 -19210487.32847  20392038.2584                   20392035.7504
 -18902834.72748 -14720720.77346  21887605.5004                   21887606.3054
   5152952.27746   4025355.55544  24341618.6564                   24341619.1764
 -15367663.47348 -11966044.73446  21273926.8594                   21273922.1024
 11  7 30  3 11 30.0000000  0  7G29G10G12G05G25G04G02
 -12883333.86747 -10032576.64144  23491828.5784                   23491827.1994
 -10193054.25847  -7935173.80145  22447520.9304                   22447517.9384
 -19399800.33648 -15108552.62146  21076292.6644                   21076290.4344
 -24654384.94548 -19202491.37147  20393990.6954                   20393988.7704
 -18914977.22748 -14730182.43746  21885295.2974                   21885295.6884
   5254408.73846   4104412.49644  24360925.1334                   24360924.7304
 -15313481.72348 -11923825.18446  21284237.0944                   21284232.2344
 11  7 30  3 12  0.0000000  0  7G29G10G12G05G25G04G02
 -12946060.54747 -10081454.52745  23479892.7114                   23479891.0124
 -10085289.72747  -7851201.43745  22468027.7664                   22468025.6764
 -19343272.59848 -15064505.04346  21087049.5634                   21087047.1764
 -24643546.81248 -19194046.05547  20396053.1884                   20396051.3284
 -18926559.27748 -14739207.39546  21883090.6884                   21883091.3634
   5355815.41046   4183430.63343  24380222.3834                   24380222.0394
 -15259175.11348 -11881508.33646  21294571.1414                   21294566.3914
 11  7 30  3 12 30.0000000  0  7G29G10G12G05G25G04G02
 -13008788.13347 -10130333.11744  23467955.3284                   23467953.9264
  -9977178.70347  -7766959.07845  22488600.1724                   22488598.7344
 -19286206.10248 -15020037.66046  21097908.9064                   21097906.3134
 -24632134.70348 -19185153.48447  20398224.9614                   20398222.9494
 -18937582.39148 -14747796.81646  21880993.3204                   21880994.0744
   5457169.30946   4262407.65243  24399509.0554                   24399508.8204
 -15204747.11748 -11839096.90646  21304928.6644                   21304924.0314
 11  7 30  3 13  0.0000000  0  7G29G10G12G05G25G04G02
 -13071515.40647 -10179211.45744  23456018.3754                   23456017.5824
  -9868723.94147  -7682448.88745  22509238.0474                   22509237.2734
 -19228602.25448 -14975151.54346  21108870.2974                   21108867.9694
 -24620149.02048 -19175813.96547  20400505.7894                   20400503.6134
 -18948045.44948 -14755949.85246  21879002.5004                   21879003.0554
   5558470.16846   4341343.36743  24418785.3914                   24418786.3524
 -15150198.16448 -11796591.22346  21315308.8594                   21315304.4844
 11  7 30  3 13 30.0000000  0  7G29G10G12G05G25G04G02
 -13134238.13346 -10228086.25844  23444082.2114                   23444081.6604
  -9759925.73847  -7597671.08645  22529941.3834                   22529940.2304
 -19170459.53948 -14929845.53546  21119935.1094                   21119932.4224
 -24607587.17648 -19166025.49647  20402896.2504                   20402894.0234
 -18957944.75448 -14763663.57846  21877118.2734                   21877118.9454
   5659720.50046   4420239.71543  24438054.0394                   24438054.2304
 -15095526.17248 -11753989.66446  21325712.3984                   21325707.8634
 11  7 30  3 14  0.0000000  0  7G29G10G12G05G25G04G02
 -13196960.04347 -10276960.41444  23432146.8134                   23432146.2154
  -9650791.65646  -7512631.53544  22550709.4694                   22550707.2934
 -19111784.68748 -14884124.88346  21131100.1174                   21131097.6214
 -24594454.32048 -19155792.08247  20405395.2664                   20405393.2344
 -18967284.37948 -14770941.19946  21875341.1884                   21875341.6094
   5760914.73046   4499092.32443  24457310.2734                   24457310.8954
 -15040736.75848 -11711296.60946  21336138.8284                   21336134.1604
 11  7 30  3 14 30.0000000  0  8G29G10G12G26G05G25G04G02
 -13259677.65647 -10325831.19944  23420212.3984                   23420211.2034
  -9541322.61747  -7427330.98844  22571540.3524                   22571538.2504
 -19052577.10248 -14837989.11346  21142367.0234                   21142364.9184
  -7986575.94956  -6215513.25053  24914798.8204                   24914797.5394
 -24580748.73048 -19145112.38347  20408003.1954                   20408001.2194
 -18976061.28948 -14777780.32446  21873671.0944                   21873671.4494
   5862054.59046   4577902.55943  24476556.9844                   24476555.8914
 -14985828.29748 -11668510.80146  21346587.1174                   21346582.6564
 11  7 30  3 15  0.0000000  0  8G29G10G12G26G05G25G04G02
 -13322394.50447 -10374701.41444  23408277.6254                   23408276.8404
  -9431526.17647  -7341775.32844  22592434.3444                   22592433.1484
 -18992843.34048 -14791443.33246  21153733.9454                   21153731.6994
  -8060803.89846  -6273353.12943  24900673.2814                   24900672.8134
 -24566475.18748 -19133990.12147  20410719.6174                   20410717.6134
 -18984279.28547 -14784183.94946  21872106.8284                   21872107.7234
   5963135.15646   4656666.57042  24495791.5474                   24495788.8834
 -14930806.33648 -11625636.53146  21357057.3524                   21357053.0904
 11  7 30  3 15 30.0000000  0  8G29G10G12G26G05G25G04G02
 -13385105.03947 -10423566.71544  23396344.0634                   23396342.1844
  -9321400.95747  -7255963.47344  22613390.2034                   22613388.5554
 -18932580.04748 -14744484.93746  21165201.8524                   21165199.9064
  -8135153.34046  -6331287.67243  24886524.9694                   24886524.8714
 -24551630.07848 -19122422.48447  20413544.5004                   20413542.6294
 -18991933.04348 -14790147.89546  21870650.8754                   21870651.2854
   6064160.41046   4735387.53143  24515015.5944                   24515014.0004
 -14875666.85948 -11582670.69946  21367550.4384                   21367546.0984
 11  7 30  3 16  0.0000000  0  8G29G10G12G26G05G25G04G02
 -13447810.77046 -10472428.26244  23384411.3134                   23384410.1334
  -9210953.12547  -7169900.23044  22634407.8204                   22634406.0664
 -18871792.97348 -14697118.39146  21176769.0474                   21176766.7814
  -8209624.99646  -6389317.42643  24872353.5314                   24872353.2934
 -24536216.99648 -19110412.26247  20416477.6254                   20416475.1454
 -18999025.08248 -14795674.14846  21869300.9844                   21869301.6214
   6165126.61746   4814062.44143  24534229.5554                   24534229.0554
 -14820413.94948 -11539616.47746  21378064.4844                   21378060.5514
 11  7 30  3 16 30.0000000  0  8G29G10G12G26G05G25G04G02
 -13510506.71147 -10521282.16844  23372481.0084                   23372480.3054
  -9100181.98047  -7083585.04344  22655487.2424                   22655484.8204
 -18810479.96148 -14649342.03546  21188436.7734                   21188434.0274
  -8284212.14546  -6447437.18443  24858160.1024                   24858158.2154
 -24520232.65248 -19097956.91047  20419518.9844                   20419517.2304
 -19005550.96147 -14800759.22746  21868058.8444                   21868059.4384
   6266037.12946   4892693.97343  24553432.5554                   24553432.4304
 -14765044.49647 -11496471.43746  21388600.7974                   21388596.9734
 11  7 30  3 17  0.0000000  0  8G29G10G12G26G05G25G04G02
 -13573191.45747 -10570127.34044  23360551.7424                   23360551.4344
  -8989090.12547  -6997019.97744  22676627.2344                   22676625.3794
 -18748641.85948 -14601156.50846  21200203.6644                   21200201.6764
  -8358911.60246  -6505644.46943  24843945.0864                   24843943.6174
 -24503676.82048 -19085056.24647  20422669.4694                   20422667.4454
 -19011509.52747 -14805402.24646  21866925.5554                   21866925.6374
   6366891.96947   4971282.09043  24572624.8834                   24572625.6764
 -14709559.05547 -11453236.03146  21399159.2894                   21399155.0354
 11  7 30  3 17 30.0000000  0  8G29G10G12G26G05G25G04G02
 -15211286.18847 -11846564.71945  23048833.8914                   23048831.6374
 -10453097.05947  -8137804.62544  22398036.3594                   22398034.5314
 -20261698.80948 -15780161.94146  20912278.9384                   20912276.4064
 -10009143.27046  -7791539.18443  24529915.5944                   24529914.5864
 -26061970.39548 -20299310.95747  20126136.3674                   20126134.0904
 -20592320.48848 -16037202.99646  21566106.7274                   21566107.2274
   4892273.85546   3822228.96944  24292013.7974                   24292013.8364
 -16229376.24647 -12637509.16046  21109947.8674                   21109943.3954
 11  7 30  3 18  0.0000000  0  8G29G10G12G26G05G25G04G02
 -15273947.27347 -11895391.47745  23036908.9924                   23036908.3714
 -10341375.70347  -8050749.03944  22419296.2194                   22419294.1484
 -20198819.29748 -15731164.93746  20924244.5394                   20924241.8914
 -10084061.70346  -7849917.07443  24515659.6024                   24515659.3444
 -26044276.78948 -20285523.71547  20129503.1334                   20129501.0274
 -20597145.16848 -16040962.46146  21565188.4534                   21565188.9924
   4993013.16846   3900727.12943  24311183.2504                   24311183.9534
 -16173662.93047 -12594096.17646  21120549.9064                   21120545.7934
 11  7 30  3 18 30.0000000  0  8G29G10G12G26G05G25G04G02
 -15336596.12947 -11944208.69945  23024987.3984                   23024986.5904
 -10229345.39847  -7963452.68445  22440615.5634                   22440612.8794
 -20135423.03148 -15681765.26246  20936308.7194                   20936306.0664
 -10159086.68446  -7908378.02043  24501383.5164                   24501382.4104
 -26026016.44948 -20271294.85247  20132977.9774                   20132975.4614
 -20601403.31247 -16044280.47746  21564378.4454                   21564378.5634
   5093692.83246   3979178.77743  24330341.8754                   24330340.5704
 -16117838.28947 -12550596.45346  21131172.7894                   21131168.9224
 11  7 30  3 19  0.0000000  0  8G29G10G12G26G05G25G04G02
 -15399223.74647 -11993009.33645  23013069.5634                   23013068.5594
 -10117001.65647  -7875912.12144  22461992.7424                   22461990.5394
 -20071504.45748 -15631958.59846  20948471.7114                   20948469.3714
 -10234207.80146  -7966913.84443  24487087.4694                   24487086.6764
 -26007182.40648 -20256618.95347  20136561.8674                   20136559.6134
 -20605086.81647 -16047150.73846  21563677.5084                   21563677.0164
   5194319.88747   4057589.42643  24349491.1804                   24349488.7704
 -16061895.21147 -12507004.44546  21141818.2664                   21141814.1764
 11  7 30  3 19 30.0000000  0  8G29G10G12G26G05G25G04G02
 -15461833.82047 -12041796.34445  23001155.4144                   23001154.2154
 -10004352.57447  -7788133.60544  22483428.9534                   22483427.0474
 -20007070.63748 -15581750.43446  20960732.9454                   20960730.9414
 -10309427.27046  -8025526.38342  24472772.8444                   24472771.1724
 -25987780.18748 -20241500.32847  20140253.9064                   20140251.6134
 -20608200.07047 -16049576.62946  21563085.1804                   21563085.2344
   5294889.00847   4135954.92643  24368629.0704                   24368627.2544
 -16005839.54747 -12463324.69146  21152485.6644                   21152481.5434
 11  7 30  3 20  0.0000000  0  8G29G10G12G26G05G25G04G02
 -15524420.60247 -12090565.17645  22989245.8364                   22989244.5554
  -9891396.43447  -7700115.84444  22504924.0784                   22504922.5044
 -19942118.73048 -15531138.57046  20973093.0944                   20973091.0204
 -10384737.48846  -8084209.55942  24458441.9454                   24458441.5394
 -25967806.02048 -20225936.03147  20144054.9064                   20144052.3634
 -20610737.99247 -16051554.22346  21562602.0474                   21562601.9774
   5395404.48847   4214278.64144  24387756.6564                   24387756.3404
 -15949667.68447 -12419554.39846  21163174.4924                   21163170.1094
 11  7 30  3 20 30.0000000  0  8G29G10G12G26G05G25G04G02
 -15586985.77047 -12139317.19945  22977339.5234                   22977338.7934
  -9778139.42647  -7611863.63344  22526476.3134                   22526474.3984
 -19876653.84048 -15480126.98446  20985550.5474                   20985548.5824
 -10460139.03946  -8142963.92642  24444093.8284                   24444092.9104
 -25947264.10948 -20209929.32447  20147963.9454                   20147961.3244
 -20612703.33248 -16053085.65246  21562228.0634                   21562228.3444
   5495862.50447   4292557.57844  24406873.2584                   24406873.5274
 -15893382.94947 -12375696.15646  21173885.0554                   21173880.7664
 11  7 30  3 21  0.0000000  0  8G29G10G12G26G05G25G04G02
 -15649524.37546 -12188048.49645  22965438.7114                   22965438.4964
  -9664580.94147  -7523376.49244  22548086.0634                   22548083.6884
 -19810674.19548 -15428714.28146  20998106.3754                   20998103.8714
 -10535625.12146  -8201784.19943  24429729.6804                   24429727.6954
 -25926151.06248 -20193477.58247  20151981.4774                   20151979.3714
 -20614091.72348 -16054167.52046  21561963.8834                   21561964.1414
   5596266.52747   4370794.45343  24425978.9384                   24425979.1024
 -15836982.41047 -12331747.68446  21184618.1484                   21184613.7894
 11  7 30  3 21 30.0000000  0  8G29G10G12G26G05G25G04G02
 -15712041.52046 -12236763.05144  22953541.4064                   22953541.1684
  -9550730.08647  -7434661.54344  22569750.6334                   22569748.1954
 -19744187.48048 -15376906.46146  21010758.1414                   21010756.3164
 -10611198.96546  -8260672.82043  24415348.3284                   24415346.3164
 -25904474.05148 -20176586.38347  20156106.5314                   20156103.9654
 -20614908.97748 -16054804.34046  21561808.3524                   21561808.8874
   5696609.83247   4448983.99643  24445074.0004                   24445073.8324
 -15780473.01647 -12287714.39846  21195371.5084                   21195367.1524
 11  7 30  3 22  0.0000000  0  8G29G10G12G26G05G25G04G02
 -15774527.16046 -12285453.06645  22941651.1024                   22941650.4024
  -9436581.31646  -7345714.46544  22591472.0234                   22591469.8324
 -19677188.16448 -15324699.21146  21023507.5164                   21023505.8634
 -10686848.96146  -8319620.80543  24400952.4144                   24400952.5514
 -25882224.91848 -20159249.37547  20160340.3364                   20160337.8984
 -20615145.91848 -16054988.95746  21561763.2194                   21561763.6214
   5796901.07847   4527132.97343  24464159.0084                   24464157.1214
 -15723846.44948 -12243589.81646  21206147.0234                   21206142.7704
 11  7 30  3 22 30.0000000  0  8G29G10G12G26G05G25G04G02
 -15836985.87147 -12334122.12944  22929766.1484                   22929763.9694
  -9322144.27346  -7256542.75044  22613249.1174                   22613247.0474
 -19609684.21148 -15272098.73846  21036353.0314                   21036351.0124
 -10762578.85947  -8378631.02043  24386541.8754                   24386541.3484
 -25859411.19948 -20141472.43747  20164682.0704                   20164679.3364
 -20614808.73848 -16054726.21946  21561827.2664                   21561828.0084
   5897132.98847   4605235.70743  24483232.4844                   24483231.9844
 -15667110.33648 -12199379.85546  21216943.4774                   21216939.1214
 11  7 30  3 23  0.0000000  0  8G29G10G12G26G05G25G04G02
 -15899413.46947 -12382766.94945  22917886.7194                   22917885.2274
  -9207418.72346  -7167146.25444  22635080.6954                   22635079.0004
 -19541674.25848 -15219103.98846  21049295.2424                   21049292.9454
 -10838382.67247  -8437698.84843  24372116.6094                   24372115.9454
 -25836030.57048 -20123253.74647  20169131.0004                   20169128.4414
 -20613893.94148 -16054013.37946  21562001.7504                   21562001.9224
   5997308.44946   4683294.48042  24502293.6484                   24502294.4184
 -15610261.96947 -12155082.43446  21227761.1484                   21227757.4414
 11  7 30  3 23 30.0000000  0  8G29G10G12G26G05G25G04G02
 -15961805.30546 -12431383.87545  22906013.4924                   22906012.4064
  -9092404.35546  -7077524.68844  22656967.5944                   22656965.2114
 -19473157.72348 -15165714.48846  21062333.6484                   21062330.8444
 -10914253.95746  -8496819.27743  24357678.4694                   24357677.1254
 -25812080.61748 -20104591.43047  20173688.4844                   20173686.2274
 -20612397.79348 -16052847.53946  21562286.2584                   21562286.9414
   6097430.48046   4761311.70342  24521345.5704                   24521347.3634
 -15553298.54747 -12110695.34446  21238601.1414                   21238596.8244
 11  7 30  3 24  0.0000000  0  8G29G10G12G26G05G25G04G02
 -16024170.58246 -12479980.08645  22894145.6564                   22894144.9844
  -8977114.90247  -6987688.77044  22678906.1254                   22678904.3134
 -19404147.10248 -15111939.98446  21075465.6024                   21075463.1564
 -10990200.33646  -8555998.18043  24343226.5004                   24343225.2274
 -25787572.55148 -20085494.21947  20178352.1724                   20178349.4494
 -20610330.49648 -16051236.64146  21562679.5634                   21562680.2624
   6197488.39146   4839278.89142  24540388.6174                   24540388.4184
 -15496231.34847 -12066227.37946  21249460.3204                   21249456.3204
 11  7 30  3 24 30.0000000  0  8G29G10G12G26G05G25G04G02
 -16086498.80947 -12528547.46145  22882284.7274                   22882283.7624
  -8861544.19947  -6897633.68844  22700898.6644                   22700896.6174
 -19334634.26648 -15057774.14546  21088693.4924                   21088690.7934
 -11066210.07046  -8615226.46543  24328761.9774                   24328762.0984
 -25762498.50048 -20065955.98047  20183123.4694                   20183121.0864
 -20607682.78948 -16049173.49246  21563183.7194                   21563184.0904
   6297490.57846   4917202.67642  24559418.2424                   24559417.1564
 -15439051.88347 -12021671.93746  21260341.7894                   21260337.5594
 11  7 30  3 25  0.0000000  0  8G29G10G12G26G05G25G04G02
 -16148794.28947 -12577089.31245  22870430.8134                   22870429.4574
  -8745700.88347  -6807366.16444  22722943.4774                   22722941.2464
 -19264628.43748 -15003224.16446  21102015.4844                   21102012.8204
 -11142285.50447  -8674505.94143  24314286.2974                   24314285.7384
 -25736864.87548 -20045981.70747  20188001.3594                   20187999.2074
 -20604460.01648 -16046662.23046  21563796.8204                   21563796.4774
   6397431.10946   4995078.44942  24578436.0704                   24578434.6334
 -15381766.34447 -11977033.84446  21271242.3444                   21271238.6764
 11  7 30  3 25 30.0000000  0  8G29G10G12G26G05G25G04G02
 -16211050.95747 -12625600.95345  22858583.2504                   22858581.4574
  -8629583.89847  -6716885.38744  22745039.4924                   22745037.2114
 -19194126.70348 -14948287.75046  21115431.2814                   21115428.9264
 -11218419.27346  -8733830.87943  24299797.0084                   24299797.5204
 -25710668.21548 -20025568.71147  20192986.4064                   20192983.9884
 -20600657.32048 -16043699.09046  21564520.4774                   21564520.4654
   6497314.22746   5072909.40642  24597442.8834                   24597440.8324
 -15324370.95748 -11932310.15646  21282164.7664                   21282160.0434
 11  7 30  3 26  0.0000000  0  7G29G10G12G26G05G25G02
 -16273267.84847 -12674081.59845  22846744.0554                   22846741.9104
  -8513196.30946  -6626193.77744  22767186.7814                   22767184.6134
 -19123131.53148 -14892966.84846  21128941.1564                   21128938.9804
 -11294608.79746  -8793199.25043  24285299.5164                   24285298.9924
 -25683909.64848 -20004717.86347  20198078.4384                   20198075.7704
 -20596274.98848 -16040284.27746  21565354.3054                   21565354.3714
 -15266866.72748 -11887501.66046  21293107.5784                   21293103.2584
 11  7 30  3 26 30.0000000  0  7G29G10G12G26G05G25G02
 -16335446.63747 -12722532.53545  22834911.6724                   22834909.3014
  -8396544.03946  -6535295.90644  22789385.2504                   22789382.2544
 -19051648.21548 -14837265.58246  21142544.2974                   21142541.5124
 -11370854.11746  -8852611.10943  24270790.4454                   24270789.4694
 -25656593.38748 -19983432.44947  20203276.5704                   20203274.4384
 -20591315.75448 -16036419.92246  21566297.8054                   21566298.5864
 -15209257.12548 -11842611.05546  21304069.9924                   21304065.5314
 11  7 30  3 27  0.0000000  0  7G29G10G12G26G05G25G02
 -16397583.77747 -12770951.02345  22823087.1564                   22823085.9884
  -8279627.99647  -6444192.50844  22811633.8834                   22811631.3874
 -18979676.80948 -14781183.98846  21156239.6724                   21156237.6374
 -11447150.13746  -8912062.46943  24256272.2034                   24256271.1374
 -25628718.15248 -19961711.47347  20208580.7894                   20208578.5704
 -20585777.31248 -16032104.24646  21567352.0474                   21567352.0944
 -15151540.69148 -11797637.20346  21315053.3984                   21315048.8524
 11  7 30  3 27 30.0000000  0  7G29G10G12G26G05G25G02
 -16459672.83647 -12819332.03145  22811272.1484                   22811271.1994
  -8162446.14547  -6352881.98044  22833932.6484                   22833930.9734
 -18907214.71948 -14724720.03546  21170028.6484                   21170026.6884
 -11523488.60246  -8971546.89743  24241744.0164                   24241744.7234
 -25600280.29348 -19939552.08247  20213992.4384                   20213989.9494
 -20579654.54348 -16027333.25046  21568516.7974                   21568517.6994
 -15093712.85547 -11752576.54346  21326057.1174                   21326052.3364
 11  7 30  3 28  0.0000000  0  7G29G10G12G26G05G25G02
 -16521714.38347 -12867676.01645  22799465.5864                   22799465.4344
  -8045003.75847  -6261368.43044  22856281.5084                   22856279.1644
 -18834265.87148 -14667876.80546  21183910.3444                   21183908.1214
 -11599868.72746  -9031063.80143  24227209.9844                   24227209.2894
 -25571282.94148 -19916956.73447  20219510.5164                   20219508.1524
 -20572949.38748 -16022108.44146  21569793.1724                   21569793.2344
 -15035776.33647 -11707431.18746  21337082.1644                   21337077.9024
 11  7 30  3 28 30.0000000  0  7G29G10G12G26G05G25G02
 -16583708.82447 -12915983.28145  22787668.4224                   22787667.9144
  -7927306.19547  -6169656.04744  22878678.0864                   22878677.0824
 -18760834.78948 -14610657.81246  21197884.0314                   21197881.9414
 -11676289.65646  -9090612.53543  24212667.3364                   24212666.1644
 -25541728.88748 -19893927.58647  20225134.3054                   20225131.9494
 -20565663.87148 -16016431.39846  21571179.1884                   21571180.0904
 -14977733.87147 -11662203.27746  21348127.4774                   21348123.0164
 11  7 30  3 29  0.0000000  0  7G29G10G12G26G05G25G02
 -16645649.29347 -12964248.49645  22775882.1174                   22775879.6134
  -7809350.82847  -6077742.78544  22901124.5314                   22901123.1884
 -18686918.10948 -14553060.42246  21211950.1254                   21211947.5314
 -11752742.49246  -9150186.10243  24198119.1094                   24198117.6684
 -25511613.73448 -19870461.21547  20230864.8364                   20230862.5004
 -20557792.21948 -16010297.63346  21572677.2114                   21572677.4534
 -14919580.08248 -11616888.61746  21359193.7274                   21359189.0004
 11  7 30  3 29 30.0000000  0  7G29G10G12G26G05G25G02
 -16707541.54747 -13012476.14545  22764103.7814                   22764102.3404
  -7691147.63347  -5985636.41844  22923618.1954                   22923616.2424
 -18612525.87148 -14495092.46946  21226106.7194                   21226103.9414
 -11829231.59846  -9209787.90243  24183563.5634                   24183563.0004
 -25480946.14148 -19846564.37947  20236700.5864                   20236698.6954
 -20549341.81648 -16003712.89846  21574285.2664                   21574285.7194
 -14861322.89148 -11571493.38746  21370279.2194                   21370274.7734
 11  7 30  3 30  0.0000000  0  7G29G10G12G26G05G25G02
 -16769382.16047 -13060663.58245  22752336.3284                   22752333.6094
  -7572697.82047  -5893337.87944  22946158.1954                   22946155.7624
 -18537657.97748 -14436753.87146  21240353.3524                   21240350.8364
 -11905752.14547  -9269414.21143  24169002.2194                   24169001.1804
 -25449725.25448 -19822236.40247  20242642.0864                   20242639.7894
 -20540310.72748 -15996675.67246  21576003.8754                   21576004.3674
 -14802961.43848 -11526016.93046  21381385.6024                   21381380.9384
 11  7 30  3 30 30.0000000  0  7G29G10G12G26G05G25G02
 -16831174.12147 -13108813.12145  22740577.2424                   22740576.4304
  -7454008.88347  -5800853.00444  22968743.4614                   22968741.1884
 -18462321.43048 -14378050.09046  21254689.1954                   21254686.8714
 -11982305.33647  -9329066.03143  24154434.8054                   24154433.8134
 -25417956.79748 -19797481.74647  20248687.7344                   20248684.9694
 -20530703.44948 -15989189.47746  21577832.4454                   21577831.9734
 -14744500.63748 -11480463.06246  21392510.6334                   21392506.1724
